GFSSE_prec_radar_057.txt.gz
Reflectivity
-20 -20 -20 -19 7 -20 -20 -20 -20 -12 -20 -20 -20 -20 -20 -7 -20 -20 -20 -20 -20 -9 13 11 7 1 5 -5 -20 -20 -20 -20 -20 -20 -20 -16 8 2 -12 -4 0 0 1
-20 -20 -20 -15 13 -20 -20 -20 -20 -20 -2 -1 -20 -20 -20 -16 -20 -20 -20 -20 6 3 -9 -18 6 4 -2 -4 -5 -20 -20 -20 -20 -20 -18 6 9 2 -18 -2 6 -19 -20
-20 -20 -20 -20 2 16 10 7 -1 -20 -16 -20 -20 -20 -20 -20 -20 -20 -20 -16 -20 -20 -20 -20 8 9 6 -20 -20 -20 -20 -20 -20 -20 -13 5 3 -20 -20 -20 -20 -20 -3
-20 -20 -20 -20 -7 -18 -19 9 -16 31 -2 12 -20 -20 -20 11 -13 -20 -20 -11 -1 -18 -20 -20 5 4 -20 -20 -20 -20 -20 -20 -20 -20 -20 -20 0 6 -20 -20 13 14 15
-20 -20 -20 -20 -20 -20 -20 1 -2 -17 -20 -10 -5 -20 -20 20 -16 -20 -20 -19 -16 2 9 -12 -4 -1 -20 -20 -20 -20 -20 -20 -20 -20 -20 -20 -14 10 13 14 -2 -20 -20
-20 -20 29 -20 -20 -20 36 12 -7 -2 -20 2 5 -18 -19 -20 -20 -19 -20 -20 6 5 10 2 2 -20 -20 -20 -20 -20 -20 -20 -20 -20 -20 -20 -20 2 -20 -20 -20 -20 -20
-17 -18 -11 -20 -12 -20 -4 24 16 -3 27 -20 -20 -3 -20 -6 -20 -20 -20 4 6 -19 -1 -18 -20 -20 -20 -20 -20 -20 -20 -20 -20 -20 -20 -20 -19 -2 -20 -20 -20 -20 -20
-3 -7 12 -12 -4 -20 -20 34 42 40 -19 -16 -20 -20 -11 10 -20 -20 2 -11 -14 6 -20 -17 -20 -20 -20 -20 -20 -20 -20 -20 -20 -20 -20 -20 4 -8 -20 -8 -19 -14 -20
6 7 1 4 -20 -20 -20 26 43 33 4 -15 -20 -19 -15 11 -12 -3 9 9 -20 -1 -17 -20 -20 -20 -20 -20 -20 -20 -20 -20 -20 -20 -20 -20 -20 -20 -20 -18 -17 -20 -20
12 6 -2 4 -8 1 -17 14 45 47 38 27 -16 28 18 9 27 -14 -20 -6 -20 -8 -20 -20 -20 -20 -20 -20 -20 -20 -20 -20 -20 -20 -20 -20 3 -20 -20 -20 -20 -20 -20
12 10 31 -15 9 9 30 25 31 42 39 8 -15 -11 4 1 -18 -20 -1 -20 -20 -18 -20 -20 -20 -20 -20 -20 -20 -20 -20 -20 -20 -20 -20 2 -5 -20 -20 -19 -5 -6 -6
26 10 -20 6 -16 -20 25 5 20 36 36 30 14 1 29 15 23 15 17 -20 3 -2 -20 -20 -20 -20 -20 -20 -20 -20 -20 -20 -20 -20 -20 2 -20 -20 -14 -7 -20 -20 -20
28 23 -16 13 16 -10 -1 19 41 31 26 20 33 -1 -3 28 6 20 -5 6 3 -20 -20 -20 -20 -20 -20 -20 -20 -20 -20 -20 -20 -20 -20 2 -2 -20 -20 -20 -20 -20 -20
15 -13 7 22 4 -20 -20 16 20 37 33 25 25 25 17 31 16 14 4 13 -20 -20 -20 -20 -20 -20 -20 -20 -20 -20 -20 -20 -20 -20 -20 6 -19 -20 -18 -18 -20 -20 -20
1 12 -18 14 11 -13 9 -7 -20 20 34 31 37 21 23 16 8 14 13 10 -19 -16 -20 -20 -20 -20 -20 -20 -20 -20 -20 -20 -20 -20 -20 -20 -6 -17 -20 -20 -20 -20 -20
-6 -18 -4 11 1 -12 -7 5 8 34 14 30 28 24 20 25 11 14 14 -8 -20 -20 -20 -20 -20 -20 -20 -20 -20 -20 -20 -20 -20 -20 -20 -20 -20 -20 -13 1 -20 -20 -20
-12 2 -20 1 21 -18 -16 -18 1 26 24 29 31 25 27 5 -9 13 -5 -5 -20 -20 -20 -20 -20 -20 -20 -20 -20 -20 -20 -20 -20 -20 -20 -20 -20 -20 -20 -18 -20 -20 -20
-12 -20 -0 -3 -20 -8 -17 1 23 35 32 36 32 28 -3 13 13 12 -20 -20 -20 -20 -20 -20 -20 -20 -20 -20 -20 -20 -20 -20 -20 -20 -20 -20 -20 -20 -20 -12 -14 -20 -20
-6 -20 -10 19 7 -0 4 8 29 30 34 32 30 27 12 18 26 14 -5 -20 -20 -20 -20 -20 -20 -20 -20 -20 -20 -20 -20 -20 -20 -20 -20 -20 -20 -20 -20 -20 -20 -20 -20
4 -12 -7 -14 -1 7 2 20 29 28 31 29 29 8 9 17 25 12 12 17 5 6 -18 -20 -20 -20 -20 -20 -20 -20 -20 -20 -20 -20 -20 -20 -20 -20 -20 -1 -20 -20 -20
-13 10 11 -9 2 10 6 12 22 26 30 18 27 6 19 17 14 1 2 25 13 11 -18 -20 -20 -20 -20 -20 -20 -20 -20 -20 -20 -20 -20 -20 -20 -20 -20 -20 -20 -20 -20
-16 8 11 -20 -0 -1 3 7 3 11 24 22 20 20 24 16 16 7 13 12 24 12 -9 -20 -20 -20 -20 -20 -20 -20 -20 -20 -20 -20 -20 -20 -20 -20 -20 -20 -20 -20 -20
-20 2 -1 -20 -1 -1 5 17 9 0 20 18 20 17 18 18 -15 -19 12 18 17 -16 -20 -20 -20 -20 -20 -20 -20 -20 -20 -20 -20 -20 -20 -20 -20 -20 -20 -20 -20 -20 -20
-20 -20 2 -3 -20 8 1 -4 -2 1 11 -6 8 -1 5 -4 -20 12 5 -19 -19 -20 -20 -20 -20 -20 -20 -20 -20 -20 -20 -20 -20 24 -10 -20 -20 -20 -20 -20 -20 -20 -20
-20 -20 -0 4 -12 -14 5 -3 7 6 -20 -10 -16 5 5 -20 -17 -17 -3 -20 -20 -20 -20 -20 -20 -20 -20 -20 -20 -20 -20 -20 -20 -20 2 -17 -20 -20 -20 -20 -2 -18 4
-20 -20 -6 9 -16 -20 1 4 -1 -20 -20 -20 -20 3 -7 -20 1 25 7 -20 -20 -20 -20 -20 11 -13 -20 -9 31 -20 -12 -20 5 21 8 -1 25 -6 -20 -20 -20 3 4

GFSSE_prec_radar_060.txt.gz
Reflectivity
-20 -20 -20 -20 -15 -14 -1 -9 -20 -20 -20 -20 -20 -20 -20 -20 -20 -20 -20 -20 -20 -20 1 3 -0 -20 -12 -20 -20 -20 -20 -20 -20 -20 -11 -8 1 9 -20 -20 -7 -7 -9
-20 -20 -20 -20 -19 -16 3 -1 -20 -20 -20 -20 -20 -20 -20 -20 -20 -20 -20 -20 -15 2 6 4 -2 1 -6 -20 -20 -20 -20 -20 -20 -20 9 14 18 11 4 -20 9 7 14
-20 -20 -20 -20 -20 -20 2 8 -19 -20 -17 -20 -20 -20 -20 -20 -20 -20 5 -20 -20 -19 0 -3 4 16 -4 -20 -20 -20 -20 -20 -20 -14 5 -3 2 12 -20 -20 -20 -20 -2
-20 -20 -20 -20 -6 2 -20 -15 -8 10 -1 5 -17 -20 -20 -20 -20 -20 14 -20 -20 -20 8 -20 -5 16 -20 -20 -19 -20 -20 -10 -20 -20 -13 -8 13 16 6 13 9 -20 -5
-20 -20 -20 -20 -20 12 -11 -4 10 -15 -20 -20 -4 1 -20 -9 -20 21 -17 -6 -20 -20 -20 -3 3 -16 -20 -17 -7 -20 -20 -20 -12 -20 -20 5 13 11 16 15 14 -15 -20
-20 -20 -20 -20 -20 -6 16 -11 5 -19 -20 -20 -20 -20 -20 7 -20 -20 -15 -20 -20 -20 -20 6 -10 -11 15 -12 -13 -20 -20 -20 9 -20 -20 -3 6 18 17 11 8 -7 -6
-20 -20 -20 -20 -20 -17 -20 -20 -20 -15 1 -20 -19 -20 -14 -12 16 -19 8 2 -20 3 -20 -15 -4 8 -19 -20 -20 -20 -20 -20 -20 -20 -20 -20 6 17 -20 -11 -20 -20 -20
-20 -20 -20 -19 -20 -14 -20 -10 23 37 37 8 -7 10 2 -20 20 -20 -1 9 -17 -20 -20 -16 -7 -19 -20 -20 -20 -20 -20 -20 -20 -20 -20 -13 5 -3 -20 -20 -20 -20 -20
-20 -4 15 -20 -20 16 -16 21 33 47 48 44 15 -13 -20 -20 20 -20 -20 -20 -4 -20 -17 16 2 -20 -20 -20 -20 -20 -20 -20 -20 -20 -20 -20 -0 -20 -4 -20 -20 -20 -20
8 9 -20 -19 -20 11 11 30 32 21 28 51 38 9 -14 -18 -0 3 -20 -20 -9 -20 -15 -16 -20 -20 -20 -20 -20 -20 -20 -20 -20 -20 -20 -19 2 -2 -20 -20 -20 -20 -20
9 10 -17 -20 -20 -17 30 30 25 19 30 50 35 0 -20 -20 -1 -19 -14 -3 -19 23 18 6 -20 -20 -20 -20 -20 -20 -20 -20 -20 -20 -20 2 -20 -18 -20 -18 -20 -20 -20
-15 10 -11 4 5 10 27 28 25 9 34 48 34 8 18 -20 2 9 30 -6 -20 -4 -18 3 -20 -20 -20 -20 -20 -20 -20 -20 -20 -20 -20 6 -20 -20 -5 -20 -20 -20 -20
-20 -10 13 -2 -5 -12 -12 2 19 22 31 48 31 27 30 28 1 11 12 -12 -20 -20 -20 -3 -20 -20 -20 -20 -20 -20 -20 -20 -20 -20 -10 2 -4 -20 -5 -20 -20 -20 -20
-12 -19 -17 17 15 -20 -14 0 -9 16 31 39 30 12 -18 10 31 12 -13 -8 -16 -20 -7 -2 -20 -20 -20 -20 -20 -20 -20 -20 -20 -20 -20 -20 -20 -20 -20 -20 -20 -20 -20
-20 5 -3 -11 -20 22 6 -7 -3 -2 -0 16 19 25 2 12 16 33 13 -15 -20 -2 1 -12 -20 -20 -20 -20 -20 -20 -20 -20 -20 -20 -20 -20 -20 -2 -20 -20 -20 -20 -20
-20 -16 1 -11 14 21 -2 -14 21 -10 -20 -13 -13 -7 31 13 16 34 8 6 -20 -7 -13 -7 -20 -20 -20 -20 -20 -20 -20 -20 -20 -20 -20 -20 -20 -18 -4 -20 -20 -20 -20
-20 -20 -20 -20 -20 -20 1 -19 -20 -6 -20 -16 10 8 5 19 18 32 -20 -19 -4 -9 -4 -4 -20 -20 -20 -20 -20 -20 -20 -20 -20 -20 -20 -20 -20 -20 -20 -20 -20 -20 -20
-20 -20 -20 -17 -20 -8 -5 4 -10 6 -14 -20 -8 -1 11 22 18 -16 -20 16 -12 15 2 -19 -20 -20 -20 -20 -20 -20 -20 -20 -20 -20 -20 -20 -20 -20 -20 -20 -20 -20 -20
-20 -18 2 -16 -20 -20 -10 -12 1 12 26 -18 -3 10 -2 14 -13 12 15 29 -9 17 3 -20 -20 -20 -20 -20 -20 -20 -20 -20 -20 -20 -20 -20 -20 -20 -20 -20 -20 -20 -20
-20 -18 -20 -12 -15 -18 -15 -20 -20 4 27 17 26 16 18 15 -20 31 18 30 19 19 -2 -20 -20 -20 -20 -20 -20 -20 -20 -20 -20 -20 -20 -20 -20 -20 -20 -20 -20 -20 -20
-20 -6 -20 -2 -3 -15 -20 -1 -3 18 28 30 29 16 16 4 -20 11 21 18 -4 14 2 1 -20 -8 -20 -20 -20 -20 -20 -20 -20 -20 -20 -20 -20 -20 -20 -20 -20 -20 -20
-20 -17 -2 -19 -9 -16 -20 -0 7 -4 12 24 17 5 -3 -12 6 18 22 -2 19 6 -20 1 24 16 -11 -20 -20 -20 -20 -20 -20 -20 -20 -20 -20 -20 -20 -20 -20 -20 -20
-20 -20 4 -20 -16 -19 -20 2 6 9 5 18 18 23 1 3 12 9 -12 6 -4 -3 13 27 24 6 -19 -20 -20 -20 -20 -20 -20 -20 -20 -20 -20 -20 -20 -20 -20 -20 -20
-20 -20 1 1 -20 -20 -20 -2 -19 -18 -17 -20 -3 14 15 1 -19 -20 -18 -19 -20 -20 -11 25 -0 -20 -20 -20 -20 -20 -20 -20 -14 19 -20 -20 -20 -20 -20 -20 -20 -20 -20
-20 -20 -20 10 -20 -20 -19 -15 -2 -6 -20 -20 -20 0 3 14 -2 -20 -20 -20 -20 -20 -18 19 -20 -20 -20 -20 -20 -20 -20 -20 -20 -20 -20 -20 -20 -20 -20 -20 -20 -20 -20
-20 -20 -20 -7 11 -17 -20 -20 -20 -18 -20 -20 -16 -9 -4 -12 -18 -20 -7 -19 -20 -20 -20 7 -20 -20 -20 -20 -20 -20 -20 -20 -20 -20 -20 -15 -20 -20 -20 -20 -20 -20 -20

GFSSE_prec_radar_063.txt.gz
Reflectivity
-20 -20 -20 -20 -20 -20 -20 -20 -20 -20 -20 -20 -20 -20 -20 -20 -20 -20 -20 -20 -20 -20 -20 -5 -6 7 2 -3 -20 -20 -16 -20 -20 -17 -11 12 11 8 -20 -20 -10 2 -8
-20 -20 -20 -20 -20 -20 -20 -20 -20 -20 -20 -20 -20 -20 -20 -20 -20 -20 -20 -20 -20 -20 -17 -2 -14 14 -20 -4 -20 -20 -20 -20 -20 1 -5 14 9 8 7 11 6 -7 -4
-20 -20 -20 -20 -20 -20 -19 -13 -3 -20 -20 -20 -19 -20 -20 -20 -20 -20 -18 -20 -20 6 8 6 16 18 -7 -20 -20 -20 -20 -20 -20 -16 2 4 -17 17 16 12 11 6 7
-20 -20 -20 -20 -20 -20 -12 -20 -7 -10 2 -20 -15 -20 -20 -20 -20 -20 -20 -20 -5 7 7 19 19 4 -20 -20 -20 -20 -20 -20 -20 -12 -5 8 15 15 15 17 17 18 15
-20 -20 -20 -20 -20 -20 -20 -20 -20 -20 -20 -14 -20 1 -20 -20 -20 -20 -20 -20 -20 11 4 12 -2 -20 -20 -20 -20 -20 -20 -20 -20 -20 -2 11 11 11 9 -20 -20 -20 -10
-20 -20 -20 -20 -20 -20 -20 -20 -20 -19 -20 -20 -20 -20 -20 -20 -20 -20 -20 -20 -20 11 8 5 -20 -20 -20 -20 -20 -16 7 -2 -20 -20 15 4 -7 2 8 4 -3 -19 7
-20 -20 -20 -20 -20 -20 -20 -20 -20 -20 -20 -10 -17 6 -20 -20 -20 -20 -20 -20 -20 10 4 -3 -20 -20 -20 -20 -10 -14 -20 -15 -20 -20 -20 -8 -18 19 17 14 5 -2 16
-20 -20 -20 -20 10 6 -20 14 -20 -7 13 17 24 4 -5 5 10 3 -20 -11 -20 5 -6 -20 -20 -20 -20 -16 -14 -17 -16 -20 -20 -20 -20 -20 3 19 -8 4 -2 -16 -20
-20 -20 -10 -20 -10 15 -1 16 18 10 32 42 41 24 11 10 -19 -13 -20 -12 -20 7 -13 -15 -20 -20 -10 -17 -17 -18 -20 -20 -20 -20 -20 -20 19 0 -1 -14 -7 -20 -20
-20 -20 -20 -20 -20 -20 -20 2 3 -4 15 44 43 41 33 40 -20 -1 -19 19 6 17 5 -20 -20 -20 -17 -20 -20 -20 -20 -20 -20 -20 -20 -20 -3 -13 -2 -5 -9 -20 -20
-20 -20 -20 -20 -20 -19 -19 -8 26 27 32 39 39 45 40 30 -11 -15 10 14 -19 -20 -9 -20 -20 8 3 -7 -19 -20 -20 -20 -20 -20 -20 -7 1 1 -3 -2 -5 -5 -20
-20 -20 -20 -20 -13 -20 -13 1 -2 24 30 34 38 42 35 11 -13 -20 -2 -8 -20 -20 -20 -20 -19 7 -15 -20 -20 -20 -20 -20 -20 -20 -20 -3 -20 -7 2 -5 -4 -20 -20
-20 -20 -20 -18 -18 -2 24 -18 -19 -20 2 18 31 33 33 13 -18 -20 -12 -20 -20 -20 -20 -20 9 16 -20 -20 -20 -20 -20 -20 -20 -20 -20 -5 -1 -15 -1 -0 -5 -20 -20
-20 -18 -20 1 -17 3 -20 22 -20 -20 -20 -8 26 34 26 6 -20 -20 -17 -16 13 0 -20 -8 -2 -19 -20 -20 -20 -20 -20 -20 -20 -20 -20 -20 -5 -4 -3 -20 -20 -20 -20
-20 2 -20 7 -15 -2 -20 -20 -16 7 -8 21 39 36 26 13 -4 -20 15 3 24 7 -19 -20 -20 -18 -20 -20 -20 -20 -20 -20 -20 -20 -20 -20 -20 -7 -10 -20 -20 -20 -20
-20 -20 -20 -13 1 4 -20 -20 -20 -15 -1 12 22 30 25 17 -20 -3 -17 -13 -11 -20 -20 -20 -20 12 -20 -20 -20 -20 -20 -20 -20 -20 -20 -20 -20 -20 -20 -20 -20 -20 -20
-20 -19 -1 15 6 -20 -13 -12 -15 -20 -4 -7 -3 -18 -19 13 -15 11 -3 -20 -17 -20 -20 -20 -20 -16 -8 -20 -20 -20 -20 -20 -20 -20 -20 -20 -20 -20 -20 -20 -20 -20 -20
-20 -20 7 10 13 -16 8 -20 -2 -20 -20 -8 10 -18 -20 -10 -1 -10 -11 -14 -19 -20 -20 -20 -20 -20 7 -20 -20 -20 -20 -20 -20 -20 -20 -20 -20 -20 -20 -20 -20 -20 -20
-20 -20 -16 11 13 -11 7 15 -11 -13 -20 3 -16 13 13 -2 3 -9 6 -19 -20 -20 -20 -20 -20 7 11 -20 -20 -20 -20 -20 -20 -20 -20 -20 -20 -20 -20 -20 -20 -20 -20
-20 -20 -20 10 -11 16 -20 -20 -20 2 9 20 -4 7 -3 -15 3 -18 -1 -20 -20 -20 -20 -10 -6 17 -5 -20 -20 -20 -20 -20 -20 -20 -20 -20 -20 -20 -20 -20 -20 -20 -20
-20 -20 -20 -6 9 4 2 2 -2 4 25 20 19 23 18 -17 -14 -17 7 3 -20 15 -20 -20 -4 1 -5 -20 -20 -20 -20 -20 -20 -20 -20 -20 -20 -20 -20 -20 -20 -20 -20
-20 -20 -20 6 -2 -19 5 2 2 -18 -12 -7 6 28 10 11 -20 -20 -11 8 -9 10 11 -14 -20 4 26 12 -19 -12 -20 -20 -20 -20 -20 -20 -20 -20 -20 -20 -20 -20 -20
-20 -20 -20 -20 -1 -4 -6 -16 3 1 15 21 6 26 14 -10 -7 -10 -9 22 20 -10 28 18 -2 -19 11 24 16 9 -20 -20 -20 -20 -20 -20 -20 -20 -20 -20 -20 -20 -20
-20 -20 -20 -0 2 -20 -4 -19 -11 -3 2 7 10 11 17 20 -17 -11 20 14 27 25 -15 10 -19 -18 26 13 9 -20 -20 -20 -20 -20 -20 -20 -20 -20 -20 -20 -20 -20 -20
-20 -20 -20 -16 2 -20 -20 11 14 -20 -20 -20 -20 4 8 -18 -18 -3 -10 3 0 -9 -19 -20 -20 -17 19 12 -20 -20 -20 -20 -20 -20 -20 -20 -20 -20 -20 -20 -20 -20 -20
-20 -20 -20 -20 -5 -2 -20 -20 -20 -20 -20 -20 -20 -10 -20 -20 -15 7 1 -20 -20 -20 -20 -20 -20 -20 19 -19 -20 -20 -20 -20 -20 -20 -20 -20 -20 -20 -20 -20 -20 -20 -20

GFSSE_prec_radar_066.txt.gz
Reflectivity
-20 -20 -20 -20 -20 -20 -20 -20 -20 -20 -20 -20 -20 -20 -20 -20 -20 -20 -20 -20 -20 -20 -20 -20 -20 -20 -4 15 5 5 -8 -20 -20 3 14 4 9 4 7 -15 -20 -20 -4
-20 -20 -20 -20 -10 -20 -20 -20 -20 -20 -20 -20 -20 -20 -20 -20 -20 -20 -20 -20 -20 -20 -20 -20 -3 15 16 2 -0 0 -20 -3 0 -12 8 6 13 15 7 -13 -2 7 4
-20 -20 -20 -20 -11 -0 -20 -20 -20 -20 -20 -20 -20 -20 -20 -20 -20 -20 -20 -20 -20 -20 -20 -20 8 16 17 3 -7 -20 -20 -20 -20 -20 -20 -15 4 14 13 12 10 5 -7
-20 -20 -20 -20 -14 -1 -20 -20 -20 -20 -13 -20 -20 -20 -20 -20 -20 -20 -20 -20 -20 -20 -15 -7 14 17 7 -20 -20 -20 -20 -20 -8 -20 -20 -5 -4 3 10 1 10 13 4
-20 -20 -20 -20 -20 -20 -20 -20 -20 -20 -20 -20 -20 -20 -20 -20 -20 -20 -20 -10 -8 -20 11 11 14 10 -14 -20 -20 -20 -20 -20 -20 -20 -19 5 -11 11 19 15 8 6 1
-20 -20 -20 -20 -20 -20 -20 -20 -20 -20 -20 -20 -20 -20 -20 -20 -20 -20 -20 -20 -20 -19 7 17 8 -20 5 -20 -20 -20 -20 -20 -20 -20 -20 -4 -20 17 -20 -20 12 11 -12
-20 -20 -20 -20 -20 -20 -6 -20 -20 -20 -14 3 -20 -20 -1 -20 -20 -20 -20 -20 -20 -20 16 2 -19 -15 -20 -20 -19 -20 -20 -20 -14 -15 -20 -17 -17 3 -18 14 2 4 4
-20 -20 -20 -17 -3 -7 -20 -10 -17 13 10 -8 -20 -20 -20 8 -10 -20 -20 -20 2 -20 8 -11 -18 -20 -20 -20 4 -4 -20 -20 -20 -20 -20 -20 9 19 11 20 8 12 17
-20 -20 -20 -14 10 -20 -17 -7 37 40 30 33 28 38 35 40 -4 -12 -20 -20 -20 -3 -16 -20 -20 -20 -20 -20 -8 -18 -20 -20 -20 -20 -20 -18 14 14 9 -13 1 1 3
-20 -20 -20 -19 15 -19 -20 -6 -18 20 50 34 27 44 43 42 25 22 -20 -7 -18 -11 -20 -20 -20 -20 -20 -12 -1 6 -19 -20 -20 -20 -20 -14 -5 -15 -20 -15 -3 -1 0
-20 -20 -20 -20 -13 -14 -10 -20 -20 2 24 25 26 31 41 38 33 -11 -0 -19 22 7 0 -20 -20 -20 -8 11 3 1 -20 -20 -20 -20 -20 2 -19 -20 -9 -6 -0 0 6
-20 -20 -20 -20 -20 -20 -20 -20 -20 -14 8 14 23 35 37 42 36 23 -5 -20 -13 -5 -13 -20 6 -20 -0 3 18 -14 -20 -18 -20 -20 -20 1 -14 -20 -20 -2 -0 -4 -20
-20 -20 -20 -20 -4 -20 -11 4 -20 -20 -20 -13 -10 22 27 37 34 8 6 -20 -20 -17 24 10 -19 -20 -20 12 -13 -20 -20 -20 -20 -20 -20 -14 -20 -20 -6 2 -4 -3 -19
-20 -20 -20 -20 3 3 -16 -15 -20 -20 -20 -20 -19 -20 7 43 31 -14 -20 -20 -20 9 -20 -20 -20 -20 -20 18 7 -20 -20 -20 -20 -20 -20 -20 -20 -20 -10 -5 -4 -20 -20
-20 -20 -20 -13 12 9 -7 -14 -20 -18 -15 -20 5 -19 12 24 14 -20 -20 -20 -20 -20 -20 -20 -20 -20 -14 22 -20 -20 -20 -20 -20 -20 -20 -20 -20 -20 -20 -20 -20 -20 -20
-20 -20 -20 -13 12 7 -3 -20 -20 4 -7 -4 8 12 23 9 -2 4 -20 -20 -20 -20 -20 -20 -20 -20 -20 3 -18 -20 -20 -20 -20 -20 -20 -20 -20 -20 -20 -20 -20 -20 -20
-20 -20 -20 -20 -13 12 -0 -20 -2 -17 -18 -13 24 25 15 10 -3 -19 -20 -14 17 5 -8 -12 -20 -20 -20 -15 13 -20 -20 -20 -20 -20 -20 -20 -20 -20 -20 -20 -20 -20 -20
-20 -20 -20 -20 7 -20 -1 -20 3 -20 -20 4 5 24 24 4 -8 -12 6 -16 -11 -13 -4 -20 -20 -20 -20 -20 13 -20 -20 -20 -20 -20 -20 -20 -20 -20 -20 -20 -20 -20 -20
-20 -20 -20 -20 -20 -3 12 -19 -20 -20 -3 21 10 11 21 13 4 -14 -20 -19 -8 -20 -20 -20 -20 -20 -20 -20 8 -0 -20 -20 -20 -20 -20 -20 -20 -20 -20 -20 -20 -20 -20
-20 -20 -20 -20 -20 -8 11 -20 -12 -20 -20 -20 -20 -19 -20 -13 -14 21 -20 0 -3 -20 -20 -20 -20 -20 -20 -20 -2 -6 -6 -20 -20 -20 -20 -20 -20 -20 -20 -20 -20 -20 -20
-20 -20 -20 -20 -20 -20 -1 -6 14 -18 12 12 -3 -19 3 15 3 10 -5 9 -2 -20 -20 -18 -20 -20 -20 0 -11 -6 5 -20 -20 -20 -20 -20 -20 -20 -20 -20 -20 -20 -20
-20 -20 -20 -20 -16 -10 -20 -13 -20 3 -20 0 20 28 11 28 23 9 15 9 5 -20 -20 -20 -20 -20 -20 2 -12 2 14 -1 -18 -20 -20 -20 -20 -20 -20 -20 -20 -20 -20
-20 -20 -20 -20 -15 10 -7 -20 -20 -20 11 15 22 31 4 24 -1 17 5 2 4 -1 -20 -20 -20 -20 -20 12 -3 7 15 14 9 -19 -2 -20 -20 -20 -20 -20 -20 -20 -20
-20 -20 -20 -20 -17 1 -0 -20 -20 -20 -4 -9 -1 25 30 27 14 19 7 -4 9 6 -3 9 -20 -20 -19 6 15 6 18 24 5 -20 -20 -20 -20 -20 -20 -20 -20 -20 -20
-20 -20 -20 -20 -20 8 -7 -20 -20 -20 -20 -20 -15 -10 19 21 25 -11 -2 25 22 24 24 23 13 1 -20 -16 4 17 22 7 -20 -20 -20 -20 -20 -20 -20 -20 -20 -20 -20
-20 -20 -20 -20 -20 -12 11 5 -20 -20 -20 -20 -12 0 10 21 20 23 30 25 20 27 26 31 30 7 -8 11 -2 7 6 -20 -20 -20 -20 -20 -20 -20 -20 -20 -20 -20 -20

GFSSE_prec_radar_069.txt.gz
Reflectivity
-20 -20 -20 -20 -15 3 -20 -20 -20 -20 -11 -20 -20 -20 -20 -20 -20 -20 -20 -20 -20 -20 -20 -20 -20 -20 -20 -10 0 -7 8 -20 -20 -20 -16 4 17 9 2 -10 -10 -5 -12
-20 -20 -20 -20 -4 -20 -20 -20 -20 -20 -20 -12 -20 -20 -20 -20 -20 -20 -20 -20 -20 -20 -20 -20 -20 -10 4 5 -1 -20 -20 -20 -20 -20 15 15 7 4 -7 -20 -17 -3 19
-20 -20 -20 -20 -4 -20 -20 -20 -20 -20 -20 -20 -20 -20 -20 -20 -20 -20 -20 -20 -20 -18 2 -3 1 7 12 2 -20 -3 -20 -20 -20 -20 -20 -20 -20 -17 -2 12 3 -3 8
-20 -20 -20 -20 -11 -20 -20 -20 0 -20 -20 -20 -20 -20 -20 -20 -20 -20 -20 -20 -15 1 5 13 14 4 17 -3 5 -20 -20 -20 -20 -20 -20 -20 -20 11 10 12 7 10 -1
-20 -20 -20 -20 -20 -20 -15 -20 -20 -20 -18 -17 -20 -20 -20 -20 -20 -20 -20 -11 2 -13 4 5 -9 -6 9 -10 -20 -13 -20 -20 -20 -20 -20 -4 -6 6 15 12 5 11 8
-20 -20 -20 -20 -20 -20 -20 -20 -20 -20 -18 12 -18 -20 -20 -20 -20 -20 -0 -9 -20 -20 5 13 -19 16 -9 -20 -20 -20 -20 -20 -20 -20 -20 -20 4 -17 16 7 1 13 14
-20 -20 -20 -20 -20 -20 -20 -20 -20 -20 -20 -20 -20 13 -20 -20 -20 4 3 -1 -20 -20 -12 -20 -9 -16 -19 -16 -20 -20 -20 -20 -20 -20 -20 -20 -18 15 -2 -13 -13 -20 -8
-20 -20 -20 -9 -20 -20 -20 -20 -19 7 -20 -20 4 -3 20 0 -19 -20 12 2 -20 -6 -20 -7 2 -20 -20 -20 -12 -20 -20 -20 -20 -18 -17 -20 3 -19 -1 5 10 15 4
-20 -20 -20 -16 -0 -16 20 -18 7 32 31 37 30 27 42 18 14 -5 -20 -19 -20 -20 -20 -10 -20 -20 -20 -19 -12 -20 -20 -20 -18 -20 -20 -1 14 13 0 -6 19 18 12
-20 -20 -20 -20 -20 -20 32 -19 11 23 12 48 36 36 24 34 35 33 24 -10 -20 -20 -20 -20 -20 -20 -20 -20 -20 -20 -20 5 -20 -20 -20 1 16 14 -7 6 -2 -2 -20
-20 -20 -20 -20 -20 -5 -17 14 17 -10 -6 21 35 45 35 21 34 35 13 -20 -20 -20 -20 -20 -20 -20 -20 -20 -20 -19 -19 -20 -20 -20 -20 5 -3 -20 5 3 4 -4 -20
-20 -20 -20 -20 -20 -20 -18 11 -3 6 -0 -16 12 22 37 30 35 38 33 -10 -15 -20 -20 -20 -20 -20 -13 -19 -20 -16 -18 -8 -20 -20 -20 4 -14 -20 -5 -9 6 14 2
-20 -20 -20 -20 -20 -20 -20 -20 -7 -16 -20 -4 13 25 11 22 34 34 34 -12 11 -20 -20 -20 -20 8 0 0 -15 -16 8 -20 -20 -20 -20 3 1 -20 -0 1 1 -19 17
-20 -20 -20 -16 13 -7 -20 0 13 -5 -14 -20 -20 13 -17 1 34 37 30 -20 -20 -20 -20 -20 -20 -7 -9 -10 2 -2 -20 -20 -20 -20 -12 -2 1 9 2 3 -20 -20 -20
-20 -20 -20 -11 1 -19 -20 -3 1 9 -7 -20 -3 1 -20 -12 3 23 22 -20 -20 -20 -20 -20 -20 -15 4 -8 -17 -12 -12 -18 -20 -20 -20 -20 10 4 3 -8 -20 -20 -20
-20 -20 -20 -20 -18 7 -4 -19 -20 -20 -12 -20 -20 -20 15 -18 7 11 16 -20 -20 -20 -20 -20 -20 1 -7 -19 -19 5 -4 -20 -20 -20 -20 -20 2 4 -1 -20 -20 -20 -20
-20 -20 -20 -20 -13 9 9 -20 -20 -20 -20 -19 -2 -20 -18 -1 8 21 -13 -20 -20 -20 -20 -20 -20 -20 -20 -20 -5 16 1 -20 -20 -20 -20 -20 -20 -20 -20 -20 -20 -20 -20
-20 -20 -20 -20 -20 4 -2 -20 -20 -3 -20 -14 9 7 17 20 24 12 -19 -20 -20 -20 -20 -20 -20 -19 -8 -11 -18 -18 -20 -20 -20 -20 -20 -20 -20 -20 -20 -20 -20 -20 -20
-20 -20 -20 -20 -20 -12 7 -4 -20 -20 -20 -4 14 34 31 28 23 -5 -17 -20 -20 -20 -20 -20 -20 -20 -19 -6 -20 -20 -20 -20 -20 -20 -20 -20 -20 -20 -20 -20 -20 -20 -20
-20 -20 -20 13 -19 -20 -6 -17 -13 3 -20 -8 3 34 34 25 18 -5 9 -11 -14 -15 -18 -15 -20 -13 2 -2 -18 -20 0 -0 -19 -17 -20 -20 -20 -20 -20 -20 -20 -20 -20
-20 -20 -20 5 1 -1 -20 -16 11 6 -20 2 -20 -5 19 33 28 7 2 -3 -11 -20 -20 -20 -13 -18 -20 -20 -20 -20 -20 0 -20 -20 -6 -20 -20 -20 -20 -20 -20 -20 -20
-20 -20 -20 -19 4 -16 -15 -20 -9 -19 -20 -20 -20 -20 -18 -6 17 21 11 19 8 -14 -19 -18 -20 -20 -20 -20 -20 -19 -8 3 -12 -20 -20 -12 -20 -20 -20 -20 -20 -20 -20
-20 -20 -20 -20 -20 11 -6 -7 -20 20 -20 -20 -20 4 -14 -17 11 27 6 19 13 2 7 -16 -14 -20 -20 -20 -20 4 -18 6 11 -10 4 -8 -20 -20 -20 -20 -20 -20 -20
-20 -20 -20 -20 -20 -20 -20 -9 -14 -20 -14 -8 -18 11 28 12 -9 26 18 18 12 5 21 21 -13 -20 -18 -20 -20 -10 1 3 17 29 14 12 1 -20 -20 -20 -20 -20 -20
-20 -20 -20 -20 -20 -20 -20 -13 6 10 3 10 11 1 -3 31 1 18 18 26 23 10 3 16 9 -18 -19 -20 -20 -20 -9 18 16 5 16 5 -20 -20 -20 -20 -20 -20 -20
-20 -20 -20 -20 -20 -20 -20 -20 -20 -20 -15 -4 -3 3 5 25 15 25 28 23 18 10 13 19 21 5 -5 -15 -15 -11 -17 -1 -7 22 2 -20 -20 -20 -17 -20 -20 -20 -20

GFSSE_prec_radar_075.txt.gz
Reflectivity
-20 -20 -20 1 -20 -20 -20 -20 -20 -20 -20 -20 -20 -20 -20 -20 -20 -20 -20 -20 -12 9 4 3 2 -1 -5 -3 -10 1 6 -4 11 8 -2 7 8 0 0 -20 -7 1 -20
-20 -20 -20 -15 -16 -20 -20 -20 -20 -20 -20 -20 -20 -20 -20 -20 -20 -20 -20 -20 8 11 8 3 -20 -16 -8 -3 -18 -20 -20 -20 -20 -20 4 3 9 -0 -3 1 4 -13 -20
-20 -20 -20 -8 2 -20 -20 -20 -18 -17 -17 -20 -20 -20 -20 -20 -20 -20 -20 -19 7 26 13 11 3 3 10 -4 -20 -20 -20 -20 -3 -7 -1 -10 7 5 -13 -20 -20 -20 -20
-20 -20 -20 -20 3 -20 -20 -20 -9 8 2 1 -20 -20 -20 -20 -20 -20 -20 -16 -1 -10 6 9 3 10 8 -7 -20 -20 -20 -20 -20 -11 6 12 10 -11 -20 -20 -10 -9 -9
-20 -20 -20 -20 -2 -15 -20 -20 -20 8 8 -3 -9 -20 -20 -20 -20 -20 -20 -17 -17 -20 -20 -10 7 4 -4 -20 -20 -20 -20 -20 -20 -20 -17 8 13 10 13 -19 -12 -20 12
-20 -20 -20 -19 8 10 -20 -20 -20 -20 21 3 -3 -4 -20 -20 -20 -20 -20 -20 -20 -20 -20 -6 -16 8 -20 -20 -20 -20 -20 -20 -20 -20 -20 -20 -18 -1 -20 3 -17 -7 5
-20 -20 -20 -16 14 15 -0 -20 -20 -20 -17 12 -12 -6 -2 2 7 -16 -5 -20 -20 -20 -16 10 -13 -8 -20 -20 -20 -20 -20 -20 -20 -20 -20 -20 -20 -8 -20 -10 -14 8 1
-20 -20 -20 3 7 16 7 -20 -20 -20 -18 17 11 4 2 24 8 12 8 -20 -14 -20 5 -5 -20 -20 -20 -20 -20 -20 -20 -20 -20 -20 -20 -20 1 5 9 7 -1 6 5
-20 -20 -20 -20 -6 11 15 -5 -20 16 -4 17 32 17 41 36 39 35 2 -3 -12 -8 -20 -15 -20 -20 -20 -20 -20 -20 -20 -20 -20 -20 -20 -20 3 -4 -11 -4 -5 -16 0
-20 -20 -19 -20 -20 8 10 15 -20 -20 -20 -18 3 -12 29 33 36 29 29 20 28 -0 17 -19 -20 -20 -20 -20 -20 -20 -20 -20 -20 -20 -20 -20 -19 -5 14 5 7 11 11
-20 -20 -20 -13 -16 -6 18 -15 -20 -19 -20 -20 -20 -7 16 -13 -10 20 28 24 33 33 -5 -20 -20 -20 -20 -20 -20 -20 -20 -20 -20 -20 -20 -20 8 6 12 12 5 -1 3
-20 -20 -20 -20 -20 -20 -20 -20 -12 -20 26 14 -20 -20 -20 -20 -1 -4 11 29 37 33 28 -7 -20 -20 -20 -20 -20 -20 -20 -20 -20 -20 -20 -20 6 13 10 8 11 3 -1
-20 -20 -20 -20 -20 -20 -20 -16 -7 -20 -13 -1 -11 -16 -12 -4 -8 -2 18 33 34 38 0 7 -20 -20 -20 -20 -20 -20 -20 -20 -20 -20 -20 -20 13 13 14 1 -2 2 -1
-20 -20 -20 -20 -20 -20 -19 -20 -12 -20 -4 3 2 -20 -16 5 0 9 30 21 25 35 17 -3 -20 -20 -20 -20 -20 -20 -20 -20 -20 2 -13 -2 8 7 -12 -3 10 11 6
-20 -20 -20 -20 -20 -20 -20 3 -12 -9 -7 7 10 -0 1 -5 6 9 24 2 23 32 10 -20 -20 -20 -20 -20 -20 -20 -20 -20 -20 -20 -7 6 6 4 -3 13 15 7 3
-20 -20 -20 -18 -20 -19 -20 2 7 7 6 -7 -0 4 -16 -8 9 -5 27 3 16 30 20 -20 -20 -20 -20 -20 -20 -20 -18 -13 -20 -14 -17 -16 7 -8 12 11 12 5 8
-20 -20 -20 -20 -20 -6 -15 1 -2 7 10 6 -11 -7 8 11 -1 31 6 1 26 24 22 -19 -20 -20 -20 -20 -20 -20 -20 -20 -20 8 -20 -20 -3 11 7 8 2 2 4
-20 -20 -20 -19 -20 -18 -7 -5 0 13 10 17 -0 -5 -8 -11 3 13 3 7 28 31 -4 8 -20 -20 -20 -20 -20 -20 -20 -20 -20 -7 -20 -20 -20 -2 -5 -18 6 7 3
-20 -20 -20 -18 -20 -10 7 8 -4 1 13 15 18 11 29 38 13 15 -20 -13 26 22 0 -19 -20 -20 -20 -20 -20 -20 -20 -20 -20 -20 -20 -20 2 0 -6 -19 -20 -20 1
-20 -20 -20 -20 -20 -17 -18 8 2 -7 -15 12 5 -5 20 32 37 5 -1 6 29 24 -2 -20 -20 -20 -20 -20 -20 -20 -20 -20 -20 11 -16 -20 -20 -20 -17 2 -5 -20 -20
-20 -20 -20 -20 -20 3 11 -5 -8 -5 -20 -17 -7 12 -1 19 33 32 0 19 22 23 15 -20 -20 -20 -20 -20 -20 -20 -20 -20 -20 -20 -17 -20 -20 -20 -20 -20 -20 -20 -20
-20 -20 -20 -20 -12 -7 -20 -19 4 -19 -20 -12 -20 3 3 20 35 21 21 25 26 23 -3 -20 -20 -20 -20 -20 -20 -20 -2 -18 -20 -17 9 7 -16 -20 -19 -20 -20 -20 -20
-20 -20 -20 -20 -14 -13 2 -20 3 -15 -20 -0 -17 8 16 32 33 35 31 34 27 11 -20 -20 -20 -20 -20 -20 -20 -20 -20 -16 3 -8 -11 -2 -11 -7 10 -12 -20 -20 -20
-20 -20 -20 -20 -20 -20 -20 8 -3 1 -18 14 -20 18 21 19 32 36 31 23 12 -6 -20 -20 -20 -20 -20 -20 -20 -20 -20 -20 -19 -20 -20 -20 -20 -15 4 21 10 -14 -20
-20 -20 -20 -20 -20 -20 -20 -17 -19 -4 5 -16 13 -3 2 20 14 28 29 26 18 6 8 -16 -14 -20 -20 -20 -20 -20 -20 -20 -20 -20 -20 -20 -1 4 -0 -3 10 0 14
-20 -20 -20 -20 -20 -6 -20 -20 -14 -5 -12 -20 -7 6 -9 13 27 28 -1 12 16 0 -16 -10 3 -19 -20 -18 -17 -20 -20 -20 -20 -20 -20 -16 -20 -2 -5 -12 -20 -20 -20

GFSSE_prec_radar_078.txt.gz
Reflectivity
-20 -20 -20 -20 -20 -20 -20 -20 -20 -20 -20 -20 -20 -20 -20 -20 -20 -20 -20 -20 -20 -20 -14 9 1 5 -11 -20 -20 -20 -20 -20 -20 -20 -20 -17 -6 -5 -20 7 23 3 -4
-20 -20 -20 -20 -20 -20 -20 -20 -20 -20 -20 -20 -20 -20 -20 -20 -20 -20 -20 -20 -20 -20 3 -9 -9 0 3 3 -17 -20 -20 -20 -20 -20 -20 -6 8 -10 -20 -3 13 -4 -20
-20 -20 -20 -20 -20 -20 -20 -20 -20 -20 -20 -20 -20 -20 -20 -20 -20 -20 -20 -20 -20 -20 -20 -20 -1 3 7 -17 -20 -20 -20 -20 -20 -20 -10 8 9 -10 -18 -20 -20 8 -20
-20 -20 -20 -20 -20 -20 -20 -20 -20 -20 -20 -20 -20 -20 -20 -7 -15 -20 -20 -20 -20 -20 -20 -17 8 -9 -3 -20 -20 -20 -20 -20 -20 -20 -20 8 5 3 -17 -19 -20 8 -20
-20 -20 -20 -20 -20 -20 -20 -20 -20 -20 -20 -6 -20 -20 -9 -3 -20 -20 -20 -20 -20 -20 5 8 -14 5 -19 -20 -20 -20 -20 -20 -20 7 2 -19 10 15 1 -16 -16 -12 10
-20 -20 -20 -20 -20 -20 -20 -20 -20 0 -16 4 -14 -8 -1 3 -4 -20 -20 -20 -20 -20 -20 -19 -20 -19 -20 -20 -20 -20 -20 -20 -20 9 -20 -20 11 13 1 -20 -19 -20 -2
-20 -20 -20 -20 -20 -20 -20 -20 -20 -20 8 8 2 3 5 8 3 -20 -20 -20 -19 -6 -20 -19 -20 -20 -20 -20 -20 -20 -20 -20 2 6 -16 5 2 -2 -20 -20 -20 -20 -20
-20 -20 -20 -20 -20 -20 -20 -20 -20 -20 -20 -1 4 -18 -13 -3 10 17 4 15 -9 -15 -20 -20 -20 -20 -20 -20 -20 -20 -20 -20 -4 -2 -9 -18 -20 -10 -20 -20 -20 -15 -20
-20 -20 -20 -20 -19 -20 -19 -20 -20 -20 -20 -20 -1 28 41 42 38 35 34 31 8 38 -20 -20 -20 -20 -20 -18 -20 -20 -20 -20 -20 -19 -17 -20 -20 -20 -20 -20 -6 2 -3
-20 -20 -20 -20 -19 -1 5 -8 -20 -20 -20 -20 -20 -14 8 14 21 47 38 21 32 1 -20 -20 -20 -20 -20 -20 -20 -20 -20 -20 -20 -20 -20 -20 4 -19 -16 -19 -20 4 5
-20 -20 -5 -20 -11 -20 5 6 -20 -20 -20 -20 -20 -20 -20 -20 9 26 42 35 23 32 25 2 -13 -20 -20 -20 -20 -20 -20 -20 -20 -20 -20 -20 -20 -12 -3 1 -14 2 7
-20 -20 -11 -20 -11 -10 -19 15 -0 2 -20 -20 0 -20 -20 -20 -20 10 4 8 -20 28 33 32 28 26 -20 2 -20 -20 -20 -20 -20 -20 -20 -20 -20 -12 -10 4 6 8 9
-20 -20 -20 -6 -9 2 2 -13 10 11 4 9 5 -20 -20 -20 -19 -20 -20 -20 -10 27 28 33 -11 -20 19 -16 -20 -20 -20 -20 -20 -20 -20 -20 4 12 -13 -20 7 9 0
-20 -20 -20 -20 -20 -4 1 -20 -12 7 10 7 10 -19 -20 -20 -17 -20 -20 -20 -11 28 21 34 27 20 20 -18 -20 -20 -20 -20 -20 -20 -20 0 13 7 -20 3 -20 10 4
-20 -20 -20 -13 -14 -20 -20 -20 -20 3 -18 -13 -6 1 -20 -17 -9 6 9 8 -11 27 29 37 25 -5 24 -20 -20 -20 -20 -20 -20 -20 -20 -20 11 -8 -6 4 1 9 5
-20 -20 -20 -20 -20 -6 -3 -2 0 -18 -2 -2 -3 3 2 1 -12 -3 0 9 20 27 31 31 -5 4 1 -20 -20 -20 -20 -20 -20 -20 -20 -20 -3 11 2 12 12 10 12
-20 -20 -20 -20 -20 -4 -11 1 1 -16 -17 1 -8 3 3 -9 -3 1 -7 15 25 22 26 33 25 -14 -20 -20 -17 -20 -20 -20 -20 -20 -20 -20 -10 11 -1 15 11 10 11
-20 -20 -20 -20 -2 1 -6 -9 -4 -9 9 0 3 5 18 -4 26 6 3 13 22 25 23 32 -7 23 20 -20 -20 -20 -20 -20 -20 -20 -20 -20 -20 -20 6 11 10 12 9
-20 -20 -20 -20 -12 -11 -13 -1 -7 -12 3 4 0 -0 2 7 24 11 17 21 14 27 32 33 -20 -20 14 -20 -20 -20 -20 -20 -20 -20 -20 -20 -20 -20 -20 -16 7 3 4
-20 -20 -20 -19 -6 -7 -1 -2 -2 3 1 -4 -2 -10 -5 5 16 23 27 -18 -8 21 27 27 -10 9 -20 -20 -20 -20 -20 -20 -20 -20 -20 -20 -20 -20 -20 -20 -20 -15 -18
-20 -20 -20 -16 -11 1 7 3 6 16 3 -2 5 -3 7 26 41 37 30 -17 26 15 29 20 3 19 6 -20 -20 13 7 -3 2 -20 -20 -20 2 -20 -20 -20 -20 -20 -20
-20 -20 -20 -20 -13 -17 -6 -14 -5 -5 13 5 8 1 -0 14 16 37 37 30 30 13 28 27 22 -2 18 -20 -4 6 6 3 3 1 -14 -20 -9 -20 -20 -20 -20 -20 -20
-20 -20 -20 -20 -20 -7 -20 0 8 -0 7 15 13 6 -10 20 -10 26 35 35 25 24 25 16 18 5 -8 -3 -20 -18 10 -9 -15 2 -11 -20 -20 -15 -2 -7 -20 -20 -19
-20 -20 -20 -20 -20 -20 -20 -0 -13 -17 -4 2 -6 -19 5 2 16 24 28 27 30 27 26 27 -1 -19 -17 6 -7 -20 -20 -20 -15 10 1 -20 -20 -20 -20 -9 -7 -17 -0
-20 -20 -20 -20 -20 -20 -20 -20 -9 4 -19 7 -3 3 7 -2 2 30 31 34 30 31 25 28 16 -17 -18 -20 -20 5 -20 -19 -20 -20 -20 -20 -20 -17 -3 -12 -20 -18 -20
-20 -20 -20 -20 -20 -20 -20 -4 -18 -18 -9 16 7 11 11 -10 15 30 35 26 30 26 22 -12 -3 -2 -13 -20 -20 -20 -18 -5 -16 -20 -20 -20 -20 -20 -20 -10 -13 6 -7

GFSSE_prec_radar_081.txt.gz
Reflectivity
-20 -20 -20 -20 -20 -20 -20 -20 -20 -20 -20 -20 -20 -20 -20 -20 -20 -20 -20 -20 -20 -20 -20 -20 -9 -20 -20 -20 -20 -20 -20 -20 -20 -20 -20 -13 -9 -20 -20 -20 26 4 16
-20 -20 -20 -20 -20 -20 -20 -20 -20 -20 -20 -20 -20 -20 -20 -20 -20 -20 -20 -20 -20 -20 -20 -20 -20 6 7 -20 -20 -20 -20 -20 -20 -20 -20 -19 -17 -2 -20 -1 12 -6 -20
-20 -20 -20 -20 -20 -20 -20 -20 -20 -20 -20 -20 -20 -20 -20 -20 -20 -20 -20 -20 -20 -14 -2 -20 -18 -0 -12 -20 -20 -20 -20 -20 -20 -20 6 2 8 -11 -20 16 -20 -4 -20
-20 -20 -20 -20 -20 -20 -20 -20 -20 -20 -20 -20 -20 -20 -20 -20 -20 -20 -20 -20 -1 -20 17 1 9 9 -11 -20 -20 -20 -20 -20 -20 -20 -19 -8 5 -16 -20 -20 -11 -13 -17
-20 -20 -20 -20 -20 -20 -20 -20 -20 -20 -20 -20 -20 -20 -20 -13 -11 -20 -20 -20 -13 -20 -20 -13 9 -6 -20 -20 -20 -20 -20 -20 -20 28 -20 2 4 -1 -12 15 -20 5 7
-20 -20 -20 -20 -20 -20 -20 -20 -20 -20 -20 -1 -20 -20 -4 -20 -20 -20 -20 -19 -20 -20 -20 -20 -8 -8 -20 -20 -20 -20 -20 -20 -20 13 -15 0 5 7 9 -2 -20 -20 -5
-20 -20 -20 -20 -20 -20 -20 -20 -20 -20 -1 6 8 5 1 -16 -16 -20 -20 -9 -17 1 -19 -11 -4 -20 -20 -20 -20 -20 -20 -11 14 -10 -19 22 5 4 0 -16 -20 -20 -20
-20 -20 -20 -20 -20 -20 -20 -20 -20 -20 0 9 6 -6 -14 4 20 36 -9 -4 14 8 5 -7 -17 -20 -20 -20 -20 -20 -20 -20 -20 -12 -20 23 2 11 7 -2 -20 -20 -20
-20 -20 -20 -20 -20 -20 -20 -20 -20 -20 -20 -20 -14 -20 -11 12 33 42 34 33 29 34 -0 17 -20 -20 -20 -20 -20 -20 -20 -20 8 15 -20 -15 22 -6 -20 -20 -20 -20 -20
-20 -20 -20 -20 -20 -20 -20 -20 -20 -20 -20 -20 -20 -20 -20 -20 36 24 43 43 36 28 36 -6 31 -20 -19 -20 -20 -20 -20 -20 -12 -20 -19 -20 -20 0 8 6 12 -1 1
-20 -20 -20 -11 -20 -20 -20 -10 -20 -20 -20 -20 -20 -20 -20 -20 -20 -14 12 39 41 38 24 25 30 -20 25 -20 -20 -20 -20 -20 -20 -20 -20 -20 -20 -20 -17 6 -3 6 9
-20 -20 -11 -20 -20 -20 -20 6 1 3 -20 -20 -20 -6 -20 1 -19 2 -3 30 31 28 21 31 24 27 18 9 6 -16 -20 -20 -20 -20 -20 -20 -20 -20 -19 -20 -20 -11 -2
-20 -20 -20 -6 -20 -20 -20 3 6 6 -16 6 11 13 -8 14 1 -20 15 14 5 12 -3 27 23 27 1 10 -19 -20 -19 10 -20 -20 -20 -20 -20 1 -13 -15 8 8 7
-20 -20 -20 -20 -20 -20 -20 9 -19 -20 -9 10 11 5 26 23 6 -20 4 3 1 19 -2 7 26 26 31 18 -17 -20 8 -20 -20 -20 -20 -20 -17 -13 -5 3 -20 5 -15
-20 -20 -20 -20 -20 -20 -13 -9 -1 -20 -1 -4 10 -6 25 10 5 -20 -20 -12 -17 -18 -19 21 31 30 24 -5 -20 -20 -11 -20 -20 -20 -20 -20 11 -16 -20 9 -8 8 2
-20 -20 -20 -20 -20 -20 -7 -20 -12 -18 1 -8 11 2 12 4 6 1 -20 -4 7 -20 -17 28 35 33 12 -19 3 -18 -20 -20 -20 -20 -20 -15 3 6 -20 10 11 11 10
-20 -20 -20 -20 -20 -20 -20 -19 -11 -16 -1 -19 -11 -18 23 19 18 18 15 9 -1 -17 27 27 36 35 -9 -20 -15 -12 -20 -20 -20 -20 -20 -20 -3 7 -4 -17 13 14 -9
-20 -20 -20 -20 -20 -20 -20 -20 -20 6 -3 -1 2 -15 11 20 22 -20 -11 4 -1 13 33 32 33 34 8 -20 -8 -20 -20 -20 -20 -20 -20 -20 -20 -20 -20 10 9 15 12
-20 -20 -20 -20 -20 -20 -20 -20 -3 1 -2 -1 2 -2 18 1 18 22 14 -2 11 9 29 31 33 27 12 -20 -15 -20 -20 -20 -20 -20 -20 -20 -20 -20 -20 -19 11 -5 12
-20 -20 -20 -20 -20 -20 -20 -20 -13 -18 1 -11 3 -5 6 20 4 27 4 -20 17 4 28 35 33 27 -20 -20 -17 -20 -1 -20 -20 -20 -20 -20 -20 -20 -20 -20 -20 -20 -20
-20 -20 -20 -20 -20 -20 -20 -20 -20 0 -6 7 6 1 -3 -3 22 25 29 21 19 17 20 31 32 27 29 -20 -20 -20 -11 2 -20 -20 -20 -20 -20 -20 -20 -20 -20 -20 -20
-20 -20 -20 -20 -20 -20 -20 -20 -20 -4 8 3 8 7 -7 -4 9 -20 12 24 26 5 -1 29 29 31 -16 -20 -12 -20 10 7 9 -20 -20 -20 -20 -20 -20 -20 -20 -20 -20
-20 -20 -20 -20 -20 -20 -20 -20 -20 -12 11 13 18 20 -12 -4 11 23 35 26 36 -3 27 25 29 28 16 6 -20 -18 9 -4 -6 8 -3 -18 -20 -20 -20 -20 -20 -20 -20
-20 -20 -20 -20 -20 -20 -20 -20 -13 -2 1 7 -1 4 -0 13 20 -11 -14 18 34 27 29 22 28 29 28 -4 23 -7 -20 -20 -20 12 8 -20 -20 -20 -20 -20 -20 -20 -20
-20 -20 -20 -20 -20 -20 -20 -20 -20 -20 7 -20 4 8 6 2 -7 4 14 31 30 31 28 25 24 31 25 8 -3 -11 -20 -20 -20 -8 -20 -20 7 -20 -20 -20 -20 -20 -20
-20 -20 -20 -20 -20 -20 -20 -20 -20 -20 1 -11 7 6 -0 -2 -4 22 23 26 32 28 28 27 29 29 22 19 -20 -20 -14 -5 -20 -20 -20 -20 -20 -20 -20 -20 -0 5 4

GFSSE_prec_radar_084.txt.gz
Reflectivity
-20 -20 -20 -20 -20 -20 -20 -20 -20 -20 -20 -20 -20 -20 -20 -20 -20 -20 -20 -20 -20 -20 -20 -20 -20 -20 -20 -20 36 -20 -20 -20 -20 -20 -20 -20 -20 -20 -20 -20 -14 -20 -20
-20 -20 -20 -20 -20 -20 -20 -20 -20 -20 -20 -20 -20 -20 -20 -20 -20 -20 -20 -20 -20 -20 -11 -20 -20 -20 -20 -20 -20 -20 -20 -20 -20 -20 -20 -20 -20 -20 -20 10 -20 -19 -20
-20 -20 -20 -20 -20 -20 -20 -20 -20 -20 -20 -20 -20 -20 -20 -20 -20 -20 -20 -20 -20 -20 2 -18 -20 -20 -20 -20 -20 -20 -20 -20 -20 -20 -20 -20 -20 -20 -20 -20 -20 -20 -20
-20 -20 -20 -20 -20 -20 -20 -20 -20 -20 -20 -20 -20 -20 -20 -20 -20 -20 -20 -20 -20 -20 -4 -20 -7 -18 -17 -20 -20 -20 -20 -20 -20 -4 -20 -20 -4 -12 -20 -20 -17 -6 -17
-20 -20 -20 -20 -20 -20 -20 -20 -20 -20 -20 -20 -20 -20 -20 -11 -20 -20 -7 -20 -20 -20 -20 -20 -20 5 -20 -20 -20 -20 -20 -20 -20 -20 -4 -20 -17 -8 4 -14 -6 -20 -3
-20 -20 -20 -20 -20 -20 -20 -20 -20 -20 -20 -20 -20 -20 -20 -20 -20 -20 -20 -20 -20 -20 -2 -19 7 -20 -20 -20 -20 -20 -20 -20 12 13 -20 22 -20 -6 -7 8 -20 -20 -5
-20 -20 -20 -20 -20 -20 -20 -20 -20 -20 -20 -4 -15 -20 -20 -14 -20 22 -20 -18 -15 1 -4 16 -15 -19 -20 -20 -20 -20 -20 -20 -20 -20 -20 -20 -15 20 5 3 -20 -0 -3
-20 -20 -20 -20 -20 -20 -20 -20 -20 -20 -20 -8 5 9 6 -1 22 33 3 21 27 24 10 26 17 -16 -20 -20 -20 -20 5 14 2 27 -20 -20 26 22 11 6 -20 -20 -20
-20 -20 -20 -20 -20 -20 -20 -20 -20 -20 -20 -4 6 11 -18 -1 2 -12 -6 30 46 40 30 35 10 -12 -20 -20 -20 -20 -20 -20 -20 18 -20 -20 21 28 13 2 -20 -20 -20
-20 -20 -20 -20 -20 -20 -20 -20 -20 -20 -20 -20 -20 -20 -20 -20 -20 -20 -16 30 42 47 34 36 33 4 -17 -20 -16 -20 -20 -20 -20 25 -20 -20 -20 -20 -19 16 -3 5 -20
-20 -20 -20 -20 -20 -20 -20 -20 -20 -20 -20 -20 -20 -20 -20 -20 -20 -20 -20 -13 17 38 38 27 32 26 0 -8 -2 23 -20 -20 -12 -20 -8 -20 -20 -20 2 14 15 10 14
-20 -20 -20 -20 -20 -20 -20 -20 -20 -20 -20 -20 -20 -20 -20 -20 -20 -20 24 -20 -16 33 35 31 25 -14 28 -20 -20 -20 -5 -20 -20 -18 -20 -20 -20 -20 -20 12 16 14 14
-20 -20 -20 -20 -20 -20 -20 -20 -20 -20 -20 -20 -20 -20 -4 -20 -20 -20 -20 -20 -20 18 29 33 28 18 -20 -15 -20 -20 -20 -20 -20 -7 -20 -20 -20 -20 -20 -17 5 6 14
-20 -20 -20 -20 -20 -20 -20 -20 -20 -20 -20 -20 -20 -20 -20 -19 -20 -20 -20 -20 -20 -19 16 15 -19 -6 -19 -20 -20 -20 -20 -20 7 -20 -20 -20 -20 -20 -18 -16 -14 -17 9
-20 -20 -20 -20 -20 -20 -20 -20 -20 -9 -20 -20 -17 -20 -20 -20 -17 -15 -20 -20 -20 -20 -18 6 -16 34 17 -18 -8 -20 -20 3 -20 -20 -20 -20 -20 -20 -11 5 8 16 -8
-20 -20 -20 -20 -20 -20 -20 -20 -20 -20 -9 -20 -17 -5 -20 -20 -8 -20 -20 -20 -20 -20 -20 -20 4 10 29 26 31 -20 -20 -20 -20 -20 -20 -20 -20 -20 -20 9 16 19 11
-20 -20 -20 -20 -20 -20 -20 -20 -20 -20 -20 -20 -20 -20 -15 5 8 -20 -20 -20 -20 -20 -11 -20 -19 30 35 32 31 -20 -20 -20 -20 -20 -20 -20 -20 -20 1 5 12 5 -7
-20 -20 -20 -20 -20 -20 -20 -20 -20 -20 -17 -20 -5 -10 0 -12 11 9 -20 -20 -4 -20 -20 -20 -3 27 31 33 27 -17 -8 -20 -20 -20 -20 -20 -20 -20 -18 -16 -15 10 10
-20 -20 -20 -20 -20 -20 -20 -20 -20 -20 3 -15 -10 13 7 -3 -20 -7 -9 -6 24 -20 -20 -19 26 29 38 34 8 -10 -1 -20 -20 -20 -20 -20 -20 -20 -20 -5 7 -20 6
-20 -20 -20 -20 1 -20 -20 -20 -20 -7 -3 -17 -20 -20 -9 3 -20 -11 15 -3 9 -16 -1 7 32 35 27 32 6 -20 -20 -20 -20 -20 -20 -20 -20 -20 -20 -20 -16 -7 -20
-20 -20 -20 -20 -20 -20 -20 -20 -20 -20 4 -20 -15 -20 9 -4 -20 -20 -20 -11 -2 -4 -17 18 30 31 32 29 18 -20 -20 -20 -20 -20 -20 -20 -20 -20 -20 -20 -20 -20 -20
-20 -20 -20 -20 -20 -20 -20 -20 -20 -20 -20 -20 -12 -12 -1 -20 -16 6 7 -7 -20 11 1 -14 34 23 35 26 -8 -13 -0 -3 -15 -20 -20 -20 -20 -20 -20 -20 -20 -20 -20
-20 -20 -20 -12 -20 -20 -20 -20 -20 -20 -20 -20 -16 10 -20 -20 -20 3 13 10 -4 23 30 15 19 26 27 31 -18 4 -10 -19 -6 -20 -20 -20 -20 -20 -20 -20 -20 -20 -20
-20 -20 -20 -20 -20 -20 -20 -20 -20 -20 -20 -20 -20 -2 -13 12 17 17 -20 -13 -20 14 21 24 24 28 30 30 14 4 19 -13 -20 -20 -20 -20 -20 -20 -20 -20 -20 -20 -20
-20 -20 -20 -20 -20 -20 -20 -20 -20 -20 -20 -20 -20 5 10 10 -20 21 -20 -20 -20 18 26 26 23 26 24 32 17 7 11 -20 -20 -20 -20 -20 -20 -20 -20 -20 -20 -20 -20
-20 -20 -20 -20 -18 -20 -20 -20 -20 -20 -20 -20 -16 7 2 -20 -19 -10 -15 -20 -6 16 30 24 27 28 27 22 20 22 7 -19 4 -15 -12 -20 -20 -20 -20 -20 -20 -20 -20

GFSSE_prec_radar_087.txt.gz
Reflectivity
-20 -20 -20 -20 -20 -20 -20 -20 -20 -20 -20 -20 -20 -20 -20 -20 -20 -20 -20 -20 -20 -20 -20 -20 -20 -20 -20 -20 -20 -20 -20 -20 -20 -20 -20 -20 -20 -20 -20 -20 -20 -20 -20
-20 -20 -20 -20 -20 -20 -20 -20 -20 -20 -20 -20 -20 -20 -20 -20 -20 -20 -20 -20 -20 -20 -20 -20 -20 -20 -20 -20 -20 -20 -20 -20 -20 -7 -20 -20 -20 -20 -20 -20 -20 -20 -20
-20 -20 -20 -20 -20 -20 -20 -20 -20 -20 -20 -20 -20 -20 -20 -20 -20 -20 -20 -20 -20 -3 -20 -20 -20 -20 -20 -20 -20 -20 -20 -20 -20 -20 -20 -20 -20 -20 -20 -20 -20 -20 -20
-20 -20 -20 -20 -20 -20 -20 -20 -20 -20 -20 -20 -20 -20 -20 -20 -20 -20 -20 -20 -20 -20 -20 -20 -20 -20 -20 -20 -20 -20 -20 -20 -20 -20 -20 -20 -20 3 -20 -20 0 5 4
-20 -20 -20 -20 -20 -20 -20 -20 -20 -20 -20 -20 -20 -20 -20 -20 -20 -20 -20 -20 -20 -20 -0 -20 -5 -20 -20 -20 -20 -20 -20 -20 -20 -20 -20 -20 -20 -17 -0 -3 -8 -2 -18
-20 -20 -20 -20 -20 -20 -20 -20 -20 -20 -20 -20 -20 -20 -20 -20 -20 -20 -20 8 -20 -20 -20 -15 -3 -20 -20 -20 -20 -20 -20 -20 -20 -20 -20 -20 -20 32 2 -14 -4 -20 -10
-20 -20 -20 -20 -20 -20 -20 -20 -20 -20 -20 -20 -20 -20 -20 -20 -20 -20 -20 -20 -19 -16 11 1 -13 -5 11 -10 -20 -20 -20 -20 -20 -20 -20 -20 -20 15 -3 11 -17 4 6
-20 -20 -20 -20 -20 -20 -20 -20 -20 -20 -20 -20 -20 -20 -20 -20 -20 6 -20 7 7 33 33 35 40 13 -3 -11 -20 -20 -20 -20 -20 -20 -20 -20 11 10 16 4 -14 -4 -20
-20 -20 -20 -20 -20 -20 -20 -20 -20 -20 -20 -20 -5 5 5 -20 -18 -20 -20 -20 20 -8 37 41 33 12 -0 -20 -20 -12 -20 -20 -20 -20 -20 -20 25 10 12 6 -1 -20 -20
-20 -20 -20 -20 -20 -20 -20 -20 -20 -20 -20 -20 -9 -19 9 -20 -20 -20 -20 -19 -20 -18 33 42 36 34 3 -7 -20 -20 -20 -20 -20 -20 -20 -20 -20 1 9 -0 -20 -19 -20
-20 -20 -20 -20 -20 -20 -20 -20 -20 -20 -20 -20 -20 -20 -20 -20 -20 -20 -20 32 -20 -9 11 29 41 33 30 -15 -19 -4 -11 -12 30 -20 12 -20 -20 -20 -20 -11 14 9 9
-20 -20 -20 -20 -20 -20 -20 -20 -20 -20 -20 -20 -20 -20 -20 -20 -20 -20 22 -11 -20 -20 -15 3 46 33 32 -19 11 2 -20 -20 -20 -8 -20 -20 -20 -5 -20 -20 8 4 14
-20 -20 -20 -20 -20 -20 -20 -20 -20 -20 -20 -20 -20 -20 -20 -20 -20 -20 -20 -20 -20 -20 -20 21 41 32 31 -20 27 -20 -20 -20 -20 14 -20 -19 -20 -13 -17 -10 14 13 13
-20 -20 -20 -20 -20 -20 -20 -20 -20 -20 -20 -20 -20 -20 -20 -20 -20 -20 -20 -20 -20 -20 -20 5 38 36 15 -20 -20 -20 -20 -20 -20 -20 -20 -20 -20 -20 10 -2 12 10 12
-20 -20 -20 -20 -20 -20 -20 -20 -20 -20 -20 -20 -20 -20 -20 -20 -20 -20 -20 -20 -20 -20 -16 -16 6 19 -4 1 -20 -20 -20 -20 -20 -20 -20 -20 -20 -20 -20 -12 14 -14 14
-20 -20 -20 -20 -20 -20 -20 -20 -20 -20 -20 -20 -20 -20 -20 -20 -20 -20 -20 -20 -20 -20 -1 -18 -20 -8 13 11 15 -20 -20 -20 -20 -20 -20 -20 -20 -20 -20 -14 7 2 14
-20 -6 -20 -20 -18 -19 -20 -20 -20 -20 -20 -20 -20 -20 -20 -20 -20 -20 -20 -20 -20 -20 -20 -20 -20 -20 24 21 30 26 -20 -20 -20 -20 -20 -20 -20 -20 -20 3 14 18 19
-20 -20 -20 -20 -18 -20 -20 -20 -20 -20 -20 -20 -20 -20 -20 -20 -17 1 -16 -20 -20 -20 -17 -20 -20 -20 -20 23 29 28 12 -20 -20 -20 -20 -20 -20 -20 -20 -20 6 7 14
-17 -20 -20 -20 -20 -20 -15 -20 -20 -20 -20 -20 -20 -20 -20 -20 -20 -20 -20 -20 -20 -20 -20 -9 -20 -20 -13 30 25 26 17 -20 -20 -20 -20 -20 -20 -20 -20 -20 -20 -20 5
-3 -20 -20 -20 -20 -13 -10 -17 -20 -20 5 -20 -20 -20 -20 -3 7 -20 -20 -3 -20 23 18 -13 -20 -20 14 34 28 23 12 -14 -20 -20 -20 -20 -20 -20 -20 -20 -10 1 1
-20 -20 -20 -20 -13 -20 -20 -20 -20 -20 14 -20 -20 -20 -20 -20 10 13 12 20 -20 -17 18 -20 -20 14 26 35 36 26 15 -6 -20 -20 -20 -20 -20 -20 -20 -20 -20 -20 -20
-20 -20 -20 -20 -20 -20 -20 -20 -20 -20 -20 -20 -20 -20 -20 -15 0 10 15 20 20 -20 -20 6 -3 17 35 25 24 10 12 -18 -20 -20 -20 -20 -20 -20 -20 -20 -20 -20 -20
-20 -20 -20 -6 -20 -20 -20 -20 -20 -20 -20 -20 -20 -20 -20 1 -15 -2 -15 2 19 -20 -7 -17 -4 9 34 26 27 -4 20 -18 -20 -20 -20 -20 -20 -20 -20 -20 -20 -20 -20
-20 -20 -19 -20 -20 -20 -20 -20 -20 -20 -20 -20 -20 -20 -20 -18 7 -20 -20 -16 -18 -20 -12 8 1 13 20 30 16 21 27 9 -20 -15 -20 -20 -20 -20 -20 -20 -20 -20 -20
-20 -20 -20 -20 -20 -20 -20 -20 -20 -20 -20 -20 -20 -20 -19 -18 8 -20 -20 -1 -11 4 -20 -12 31 34 21 28 27 9 14 16 13 -1 -20 -20 -20 -20 -20 -20 -20 -20 -20
-20 -20 -20 -20 -20 -20 -20 -20 -20 -20 -20 -20 -20 -20 5 14 13 9 8 -11 -17 -2 -20 11 19 22 28 25 31 27 23 6 16 10 2 -20 -20 -20 -20 -20 -20 -20 -20

GFSSE_prec_radar_090.txt.gz
Reflectivity
-20 -20 -20 -20 -20 -20 -20 -20 -20 -20 -20 -20 -20 -20 -20 -20 -20 -20 -20 -20 -20 -20 -20 -20 -20 -20 -20 -6 -18 -20 -20 -20 -20 -20 -20 -14 -6 -20 -20 -20 -20 -20 -17
-20 -20 -20 -20 -20 -20 -20 -20 -20 -20 -20 -20 -20 -20 -20 -20 -20 -20 -20 -20 -20 -20 -20 -20 -20 -20 -20 -20 -20 -20 -20 -20 -20 -18 -20 -20 -9 -3 -20 -20 -20 -20 -20
-20 -20 -20 -20 -20 -20 -20 -20 -20 -20 -20 -20 -20 -20 -20 -20 -20 -20 -20 -20 -20 -20 -20 -20 -20 -20 -20 -20 -20 -20 -20 -20 -20 -20 -20 -20 -20 8 -19 -20 -20 -20 -20
-20 -20 -20 -20 -20 -20 -20 -20 -20 -20 -20 -20 -20 -20 -20 -20 -20 -20 -20 -20 -11 2 -3 -20 -19 -20 -20 -20 -20 -20 -4 -20 -20 -20 -20 3 -4 8 -11 -20 -13 -2 -9
-20 -20 -20 -20 -20 -20 -20 -20 -20 -20 -20 -20 -20 -20 -20 -20 -20 -20 -20 -11 3 4 2 -6 3 -6 -20 -20 -20 -20 -20 -20 -20 -20 -20 -20 -20 11 4 3 -1 -3 9
-20 -20 -20 -20 -20 -20 -20 -20 -20 -20 -20 -20 -20 -20 -20 -20 -20 -20 -20 -20 -20 -20 -20 0 -19 -11 -20 -20 -20 -20 -20 -20 -20 -20 -19 -20 -20 4 -1 -6 -20 -20 1
-20 -20 -20 -20 -20 -20 -20 -20 -20 -20 -20 -20 -20 -20 -20 -20 11 -20 -20 11 -20 -20 -14 -10 17 24 -11 14 19 -1 -20 -20 -20 -20 -20 -20 -20 14 5 -1 -20 -20 5
-20 -20 -20 -20 -20 -20 -20 -20 -20 -20 -20 -20 -20 -20 -20 -20 -20 -20 -20 -20 -20 5 7 -14 11 32 18 16 11 -17 -20 -20 -20 -20 -20 -20 10 10 4 -6 -17 1 -15
-20 -20 -20 -20 -20 -20 -20 -20 -20 -20 -20 -20 -20 -20 -20 -20 -20 -20 -20 -20 -20 -20 -20 -13 11 31 33 35 -10 -20 -20 -20 -20 -17 -20 -20 13 -11 11 3 -2 -20 1
-20 -20 -20 -20 -20 -20 -20 -20 -20 -20 -20 -20 -20 -20 -20 -20 -20 -20 -20 -20 -20 -20 -20 -20 7 18 35 37 14 -20 -20 -20 -19 -20 -20 -20 7 21 14 -0 -0 -20 -20
-20 -20 -20 -20 -20 -20 -20 -20 -20 -20 -20 -20 -20 -20 -20 -20 -20 -20 -20 -20 -20 -20 -20 -20 -20 34 45 37 33 -20 -12 -20 -5 27 -20 -17 -19 -2 2 -20 -20 -18 -19
-20 -20 -20 -20 -20 -20 -20 -20 -20 -20 -20 -20 -20 -20 -20 -20 -20 -20 -20 -7 25 -20 -20 -20 -20 -1 41 34 33 -20 -20 -20 -20 -20 -11 -20 -11 -4 -20 -20 -18 11 13
-20 -20 -20 -20 -20 -20 -20 -20 -20 -20 -20 -20 -20 -20 -20 -20 -20 -20 -20 -20 -20 -20 -20 -20 -20 6 37 30 36 19 -16 -20 -14 25 22 29 -18 20 4 -20 8 -18 16
-20 -20 -20 -20 -20 -20 -20 -20 -20 -20 -20 -20 -20 -20 -20 -20 -20 -19 -20 -20 -20 -20 -20 -20 -20 13 32 30 34 16 -20 -20 -20 -20 -5 24 2 8 10 -15 -7 13 17
-20 -20 -20 -20 -20 -20 -20 -20 -20 -20 -20 -20 -20 -20 -20 -20 -20 -20 -20 -20 -20 -20 -20 -20 -20 4 33 35 30 -20 -20 -20 -20 -20 -1 16 -20 -20 10 -12 -20 11 11
-20 -20 -20 -20 -20 -20 -20 -20 -20 -20 -20 -20 -20 -20 -20 -20 -20 -20 -20 -20 -20 -20 -20 -20 -20 -13 5 33 30 3 -20 -20 -20 -10 -20 -20 -20 -20 -8 9 -16 7 10
-20 -20 -20 -20 -20 -20 -20 -20 -20 -20 -20 -20 -20 -20 -20 -20 -20 -20 -20 -20 -20 -20 -8 -20 -20 -20 -0 20 34 23 17 -20 -20 -20 -19 -20 -20 -20 -20 -18 -20 4 14
-20 -20 -20 -20 -20 -20 -20 -20 -20 -20 -20 -20 -20 -20 -20 -20 -20 -20 -20 -20 -20 -1 -16 -20 -20 -20 -5 -12 24 22 24 25 13 -20 -20 -20 -20 -20 -20 -20 -5 8 17
-20 -20 -20 -20 -20 -20 -17 -19 -20 -20 -20 -20 -20 -20 -20 -20 -20 -20 -20 -20 -20 -20 -4 15 -15 -20 -20 -3 -20 13 30 17 -20 -20 -20 -20 -20 -20 -20 -20 6 -0 13
-20 -19 -20 -20 -20 -20 4 4 -11 -4 -17 -20 -20 -20 -20 -20 -20 -20 -15 -20 -20 -2 -13 -6 -14 14 -20 15 -20 19 37 6 -9 -9 -20 -20 -20 -20 -20 -20 -4 -14 -15
-20 -20 -20 -20 -20 -20 -17 2 -4 1 -20 -20 -19 -20 -20 -20 -20 7 -20 -20 -20 -20 27 8 20 19 -20 15 -12 31 35 19 20 21 -20 -20 -20 -20 -20 -20 -20 -20 -10
-20 -20 -20 -20 -20 -16 -14 4 -16 -19 -20 -20 -20 -20 -20 -20 -10 5 -18 -20 -20 -10 16 8 13 -20 -20 8 17 28 32 21 22 13 -20 -20 -20 -20 -20 -20 -20 -20 -20
-20 -20 -20 -20 -20 -17 -20 -7 4 -19 -20 -20 -18 -20 -20 -20 -20 -20 -7 0 14 22 19 19 -20 -20 -20 5 9 35 24 11 15 -6 -19 -20 -20 -20 -20 -20 -20 -20 -20
-20 -20 -20 -20 -13 -9 -20 -6 -20 -20 -20 -20 -20 -20 -20 -20 -20 6 -20 -20 -13 11 5 2 -14 -13 -16 -14 23 30 23 26 32 25 -15 -20 -3 -20 -20 -20 -20 -20 -20
-20 -20 -20 -18 0 -20 -20 -0 -20 -20 -20 -20 -20 -20 -20 -20 -20 -20 -20 -1 -6 -20 -20 12 12 -20 -14 5 6 34 29 32 28 -8 -20 -20 -15 -20 -20 -20 -20 -20 -20
-20 -20 -20 -8 -20 -20 -10 -6 -20 -20 -20 -20 -20 -20 -20 -20 -20 -20 4 -11 -14 -9 -15 3 8 -13 14 31 11 18 26 25 23 21 5 16 9 -15 -16 -20 -20 -20 -20

GFSSE_prec_radar_093.txt.gz
Reflectivity
-20 -20 -20 -20 -7 -20 -20 -20 -20 -20 -20 -20 -20 -20 -20 -20 -20 -20 -20 -20 -20 14 -20 -20 -20 -20 -20 -20 -20 -20 -20 -20 -20 -20 -20 -14 -5 -9 -3 -20 -20 -20 -20
-20 -20 -20 -20 -13 -20 -20 -20 -20 -20 -20 -20 -20 -20 -20 -20 -20 -20 -20 -20 -20 -20 -16 -20 -20 -20 -20 -20 -20 -20 -20 -20 -20 -20 -20 -20 -1 5 -1 -20 -20 -19 -20
-20 -20 -20 -20 -20 -20 -20 -20 -20 -20 -20 -20 -20 -20 -20 -20 -20 -20 -20 -20 -20 -20 -20 -20 -20 -20 -20 -20 -20 -20 -20 -20 -20 -20 -20 -20 -3 14 -3 -20 -3 7 -20
-20 -20 -20 -20 -20 -20 -20 -20 -20 -20 -20 -20 -20 -20 -20 -20 -20 -20 -20 -20 -20 -20 -20 -20 -12 -20 -20 -20 -18 -20 -20 -20 -20 -20 -20 -6 -1 21 2 -5 -18 1 -20
-20 -20 -20 -20 -20 -20 -20 -20 -20 -20 -20 -20 -20 -20 -20 -20 -20 -20 -20 -20 -20 -5 -2 -20 4 -14 -20 -20 -20 -20 -20 -20 -20 -20 -20 -20 -12 12 -5 -15 16 -6 -15
-20 -20 -20 -20 -20 -20 -20 -20 -20 -20 -20 -20 -20 -20 -20 -20 -20 -20 -20 -20 -20 -20 -2 4 6 -20 -14 -8 23 13 -17 9 -20 -20 -20 -20 -12 8 11 5 -20 12 -20
-20 -20 -20 -20 -20 -20 -20 -20 -20 -20 -20 -20 -20 -20 -20 -20 -20 -20 -20 -20 -7 -20 -20 -20 22 -15 -20 -18 4 12 17 9 -20 -20 -20 -20 4 15 6 3 -19 4 -20
-20 -20 -20 -20 -20 -20 -20 -20 -20 -20 -20 -20 -20 -20 -20 -20 -20 -20 -20 -20 -20 -20 -20 -20 -20 -20 -20 -11 -0 16 13 -20 -20 -20 -20 9 7 11 15 2 -19 -16 -20
-20 -20 -20 -20 -20 -20 -20 -20 -20 -20 -20 -20 -20 -20 -20 -20 -20 -20 -20 -20 -20 -20 -20 -20 -20 -20 -17 9 22 22 25 -20 -20 -20 2 -20 7 8 14 -6 -20 -20 -20
-20 -20 -20 -20 -20 -20 -20 -20 -20 -20 -20 -20 -20 -20 -20 -20 -20 -20 -20 -20 -20 -20 -20 -20 -20 21 19 14 35 24 34 -19 5 -20 -20 -20 -20 12 14 7 4 5 2
-20 -20 -20 -20 -20 -20 -20 -20 -20 -20 -20 -20 -20 -20 -20 -20 -20 -20 -20 -20 -20 -20 -20 -20 -18 -20 -20 -18 30 32 33 11 -20 6 -20 -20 -10 9 14 8 -0 9 13
-20 -20 -20 -20 -20 -20 -20 -20 -20 -20 -20 -20 -20 -20 -20 -20 -20 -20 -20 -20 -20 -20 -20 -4 10 -20 -20 -20 14 36 31 26 31 -14 -20 -20 1 15 14 10 -20 -19 -17
-20 -20 -20 -20 -20 -20 -20 -20 -20 -20 -20 -20 -20 -20 -20 -20 -20 -20 -20 -20 -20 -20 -20 -20 -20 -20 -20 -19 10 37 34 -0 29 30 -20 -20 -15 18 18 19 -19 -4 16
-20 -20 -20 -20 -20 -20 -20 -20 -20 -20 -20 -20 -20 -20 -20 -20 -18 -20 -20 -20 -20 -20 -20 -20 -20 -20 -20 -20 9 31 36 -6 -20 27 21 -20 33 -13 12 4 -20 3 -1
-20 -20 -20 -20 -20 -20 -20 -20 -20 -20 -18 -20 -20 -20 -20 -15 10 -20 -20 -20 -13 -20 -20 -20 -20 -20 -20 -20 20 37 37 30 29 12 -12 -20 29 -20 -11 2 -18 20 -17
-20 -20 -20 -20 -20 -20 -20 -20 -20 -20 -20 -20 -20 -20 -20 -20 2 8 -7 10 -3 -20 -20 -20 -20 -20 -20 -8 35 36 34 31 -20 -8 -12 -20 -20 6 -8 -20 -5 -14 10
-20 -20 -20 -20 -20 -20 -20 -3 20 -19 -20 -20 -20 -20 -20 -18 -16 -20 1 2 8 -1 -20 -20 -20 -20 -20 -15 24 38 35 27 -20 -6 -20 -20 -20 -20 -20 -20 -20 -18 12
-20 -20 -20 -20 -20 -13 -3 -11 -20 -20 -20 -20 -20 -20 -20 -20 -20 -20 -16 -20 -10 -20 -15 -20 -20 -20 -20 2 -3 37 33 26 20 17 16 13 -20 -20 -20 -20 -17 14 12
-20 -20 -20 -20 -20 -16 -13 -15 -20 -20 -20 -20 -20 -20 -20 -20 -20 -20 -20 -14 -8 8 9 -8 -20 -20 -20 -20 3 21 19 28 32 25 16 -16 -20 -20 -20 -20 -20 -20 10
-20 -20 -20 -20 -20 8 -15 -3 -20 -20 -20 -20 -20 -20 -20 -20 -20 -20 -20 -20 -16 6 -7 7 -20 -20 -20 -20 -20 7 7 21 23 29 18 -20 -20 -20 -20 -20 -20 0 10
-20 -20 -20 -20 -20 -20 -8 -20 -20 -20 -20 -19 -18 -20 -20 -20 -20 -20 8 -20 -20 -20 -2 -2 -1 -20 -20 -4 17 9 -0 -2 14 28 28 -19 -20 -20 -20 -20 -20 -20 -1
-20 -20 -20 -20 -20 -20 9 -2 -20 -20 -20 16 15 -20 -20 -20 -20 -20 -20 -13 18 -20 -20 -7 6 19 -20 12 9 -2 -1 30 24 28 23 1 -19 -20 -20 -20 -20 -20 -20
-20 -20 -20 -20 -20 -20 9 2 -20 -20 -17 36 20 -6 -16 -20 -20 -20 -4 1 -17 3 5 0 13 19 -20 9 -3 -14 4 16 28 25 19 18 -2 -15 -20 -20 -20 -20 -20
-20 -20 -20 -20 -20 -9 -7 -20 -20 -20 -1 -10 15 -12 -20 -20 -20 2 0 8 6 -19 9 2 -2 6 21 -20 -20 -20 -2 25 26 22 28 29 -10 -20 -20 -20 -20 -20 -20
-20 -20 -20 -17 -20 -20 -20 -20 -20 -20 6 -13 -6 -20 -20 -20 -20 -20 7 -3 18 -4 -7 15 15 0 13 15 -20 -20 2 9 29 32 33 33 15 2 -20 -20 -20 -20 -20
-20 -20 -20 -20 -20 -20 -20 -20 -20 -20 -1 -5 12 -16 -20 -20 -20 -20 -13 -3 5 3 -15 -4 16 -2 8 -20 14 -20 -8 14 25 35 34 32 11 -14 -20 10 -20 -20 -19

GFSSE_prec_radar_096.txt.gz
Reflectivity
-20 -20 -20 -20 -20 -20 -20 -20 -20 -20 -20 -20 -20 -20 -20 -20 -20 -20 -20 -20 -20 -20 4 -1 -20 -20 -20 -20 -20 -20 -20 -20 -20 -20 -20 -20 -20 -9 2 -20 -20 -20 -20
-20 -20 -20 -20 -20 -20 -20 -20 -20 -20 -20 -20 -20 -20 -20 -20 -20 -20 -20 -20 -20 -20 2 -1 -20 -20 -20 -20 -20 -20 -20 -20 -20 -20 -20 -19 2 -4 -11 -20 -20 -20 -20
-20 -20 -20 -20 -20 -20 -20 -20 -20 -20 -20 -20 -20 -20 -20 -20 -20 -20 -20 -20 -20 -20 -20 -20 -20 -20 -20 -20 -20 -20 -20 -20 -20 -16 -20 -20 -20 6 -0 -20 -20 -20 -20
-20 -20 -20 -20 -20 -20 -20 -20 -20 -20 -20 -20 -20 -20 -20 -20 -20 -20 -20 -20 -20 -20 -20 -20 -20 -16 -20 -20 -20 -20 -20 -20 -20 -20 -20 -20 1 16 0 -20 -20 -20 -20
-20 -20 -20 -20 -20 -20 -20 -20 -20 -20 -20 -20 -20 -20 -20 -20 -20 -20 -20 -20 -20 -20 -20 -14 -20 -20 -20 -20 -20 -20 -20 0 -15 -10 -18 -20 -1 6 2 20 -20 -20 -20
-20 -20 -20 -20 -20 -20 -20 -20 -20 -20 -20 -20 -20 -20 -20 -20 -20 -20 -20 -20 -20 -20 -20 -13 3 -20 -20 -20 -20 -20 -20 -17 -6 -6 -9 -20 9 16 8 -17 -20 -20 -20
-20 -20 -20 -20 -20 -20 -20 -20 -20 -20 -20 -20 -20 -20 -20 -20 -20 -20 -20 -20 -20 -20 -20 -14 -18 -17 -20 -20 -20 -20 -20 -17 10 -4 -20 -20 -5 10 12 -7 -20 -20 -20
-20 -20 -20 -20 -20 -20 -20 -20 -20 -20 -20 -20 -20 -20 -20 -20 -20 -20 -20 -20 -11 5 -20 -20 -20 -20 -20 -20 -20 -20 -20 -20 -13 -6 -20 -20 -10 6 12 -19 -20 -20 -8
-20 -20 -20 -20 -20 -20 -20 -20 -20 -20 -20 -20 -20 -20 -20 -20 -20 -20 -20 -20 -20 -20 -20 -20 -20 -20 -20 -20 32 12 -7 11 -6 -5 -20 -20 -20 5 16 1 -16 -18 14
-20 -20 -20 -20 -20 -20 -20 -20 -20 -20 -20 -20 -20 -20 -20 -20 -20 -20 -20 -20 -20 -20 -20 -20 -20 -20 -20 -20 20 31 15 20 19 -19 -19 -20 -4 -13 23 6 6 -3 -20
-20 -20 -20 -20 -20 -20 -20 -20 -20 -20 -20 -20 -20 -20 -20 -20 -20 -20 -20 -20 -20 -20 -20 -20 -20 -20 -20 -20 -15 -6 -18 4 30 -3 -20 11 17 7 18 14 11 -7 -2
-20 -20 -20 -20 -11 -19 -20 -20 -20 -20 -20 -20 -20 -20 -20 -20 -20 -20 -20 -20 -20 -20 -20 18 -20 -20 -20 -20 -20 -20 -5 15 32 31 -20 9 -20 8 20 12 1 14 -2
-20 -20 -20 -20 -20 5 -20 -20 -20 -20 -20 -20 -20 -20 -20 -20 -20 -20 -20 -20 -20 -20 -20 -20 -20 -20 -20 -20 -20 -20 -14 17 26 29 1 -19 -4 30 12 -12 -20 -16 -20
-20 -19 -20 -20 -20 -20 -20 -20 -20 -20 -6 -20 -20 -20 -20 -20 -20 -20 -20 -20 -20 -20 -20 -20 -20 -20 -20 -20 -20 -20 -13 21 23 28 5 30 31 7 10 23 -7 -16 -1
-20 3 -20 -20 -20 -20 -20 -20 -20 -20 -16 -20 -20 -20 -20 -16 -20 -19 -20 -20 -20 -20 -20 -20 -20 -20 -20 -16 -19 -20 -13 11 33 16 5 18 -20 4 10 9 6 -5 14
-20 -20 -20 -20 -20 -20 -20 -20 -20 -20 -20 -20 -20 -20 -20 -16 9 18 -17 -18 -20 -20 -20 -20 -20 -20 -14 -18 -11 0 15 29 31 19 6 -20 -20 -3 28 23 6 -14 -20
-20 -20 -20 -20 -20 -20 -20 -20 -20 -20 -20 -20 -20 -20 1 7 -11 -18 4 -0 -20 2 -15 -20 -20 -20 -20 -20 -20 14 26 39 33 15 7 -20 -20 -20 27 27 -19 -2 15
-20 -20 -20 -20 -20 -20 -20 -20 -20 -13 -20 -20 -20 -3 14 14 -20 -19 -17 13 -19 6 -7 -20 -20 -20 -19 -20 -20 16 21 38 33 30 31 -20 -20 -20 -20 3 2 -8 5
-20 -20 -20 -20 -20 -20 -20 -20 -20 -2 -20 -20 -20 -20 8 11 7 -20 -11 -19 -18 13 10 -20 -20 -20 -20 -7 -20 -9 11 38 36 32 21 31 -1 27 -20 -20 -20 -20 -8
-20 -20 -20 -20 -20 -20 -20 4 -20 -19 -20 -20 -13 -4 -16 4 -2 -20 -17 -20 10 12 13 -20 -20 -20 -20 -18 -14 -9 5 34 36 33 27 26 26 6 -20 -20 -20 -20 -20
-20 -20 -20 -20 -20 -20 1 -20 -18 -20 -20 -20 -16 -4 -19 12 -17 -20 -20 -17 6 -5 11 7 8 -20 8 1 -1 -5 9 1 22 28 33 17 23 5 -20 -20 -20 -20 -20
-20 -20 -20 -20 -20 -20 -20 -20 -18 -2 -18 -20 5 -10 -20 -20 -20 -20 -20 -20 -6 13 6 3 -4 -2 8 3 -16 -19 -2 15 13 -5 1 26 18 -0 -20 -20 -20 -20 -20
-20 -20 -20 -20 -20 -20 -20 -20 -18 -16 8 15 16 -15 37 21 -18 -8 -19 -14 10 1 2 -9 -20 2 4 15 -19 -11 -11 -3 8 14 12 31 28 8 -20 -20 -20 -20 -20
-20 -20 -20 -20 -20 -20 -20 -8 -20 -20 -20 -19 -20 -15 26 46 34 2 -8 7 7 -20 -0 -20 3 19 20 19 19 -15 -20 -20 -13 -18 15 21 28 18 -20 -20 -20 -20 -20
-20 -20 -20 -20 -20 -20 -20 -20 3 -20 -18 -11 -17 -7 21 25 7 -0 -6 9 6 -20 -10 -2 -9 14 18 28 23 -14 -20 11 -20 -20 -10 32 28 26 26 5 -20 -20 -20
-20 -20 -20 -20 -19 5 -15 -20 -19 -20 -20 -20 -20 -20 -12 -9 -14 4 7 7 -12 -17 13 -14 -15 19 19 21 22 21 -20 -20 -20 -20 -17 26 28 28 32 4 -15 -20 -20

GFSSE_prec_radar_099.txt.gz
Reflectivity
-20 -20 -20 -20 -20 -20 -20 -20 -20 -20 -20 -20 -20 -20 -20 -20 -20 -20 -20 -20 -20 -20 -6 2 -19 -20 -20 -20 -20 -20 -20 -20 -20 -20 -20 -12 -20 -20 -20 -20 -20 3 -20
-20 -20 -20 -20 -20 -20 -20 -20 -20 -20 -20 -20 -20 -20 -20 -20 -20 -20 -20 -20 -20 -20 -20 -20 -20 -20 -20 -20 -20 -20 -20 -20 -20 -20 -20 -20 -8 -3 1 -20 -16 -6 -20
-20 -20 -20 -20 -20 -20 -20 -20 -20 -20 -20 -20 -20 -20 -20 -20 -20 -20 -20 -20 -20 -20 -20 -20 -20 -20 -20 -20 -20 -20 -20 -20 -20 -20 -20 -20 -2 -18 -13 -20 -20 -20 -20
-20 -20 -20 -20 -20 -20 -20 -20 -20 -20 -20 -20 -20 -20 -20 -20 -20 -20 -20 -20 -20 -20 -20 -20 -20 -20 -20 -20 -20 -20 -20 -20 -20 -20 -20 -13 -20 -18 -9 -20 -20 -20 -20
-20 -20 -20 -20 -20 -20 -20 -20 -20 -20 -20 -20 -20 -20 -20 -20 -20 -20 -20 -20 -20 -20 -20 -20 -20 -20 -20 -20 -20 -20 -20 -20 -20 -20 -20 -20 -9 3 7 -20 -20 -20 -20
-20 -20 -20 -20 -20 -20 -20 -20 -20 -20 -20 -20 -20 -20 -20 -20 -20 -20 -20 -20 -20 -20 -20 -20 -18 -20 -20 -20 -20 -20 -20 -20 -20 -20 -20 -20 -20 11 5 -20 3 -20 -20
-20 -20 -20 -20 -20 -20 -20 -20 -20 -20 -20 -20 -20 -20 -20 -20 -20 -20 -20 -20 -20 -20 -20 3 -20 -20 -20 -20 -20 -20 -20 -20 -20 -20 -20 -20 -11 -1 -8 -10 -20 -20 -20
-20 -20 -20 -20 -20 -20 -20 -20 -20 -20 -20 -20 -20 -20 -20 -20 -20 -20 -20 -20 -20 -20 -20 -20 -20 -20 -20 -20 -20 -20 -20 -20 -20 -6 -4 -20 1 -20 11 -12 -20 -20 -20
-20 0 -20 -20 -20 -20 -20 -20 -20 -20 -20 -20 -20 -20 -20 -20 -20 -20 -20 -20 -20 -5 -20 -20 -20 -20 -20 -20 -20 -20 -20 -20 -20 3 7 -17 -17 -20 18 5 -20 -20 -20
-20 -20 -20 -15 -20 -5 -6 -20 -20 -20 -20 -20 -20 -20 -20 -20 -20 -20 -20 -20 -20 -20 -20 2 -20 -20 -20 -20 -20 -20 -20 23 -10 14 1 -19 -17 35 -6 5 -6 -20 -20
-20 -20 -20 -20 -20 -19 -19 -20 -20 -20 -20 -20 -20 -20 -20 -20 -20 -20 -20 -20 -20 -20 -20 -20 -20 -20 -20 -14 -19 -20 3 -10 -20 22 23 -19 14 21 26 13 -20 -20 -20
-20 -20 -20 -20 -17 -13 -20 -20 -1 -19 -20 -18 -20 -10 -20 -20 -20 -20 -20 -20 -20 -20 -20 -6 4 -20 8 -10 -20 -20 -20 -20 -20 24 13 -20 -20 34 25 15 -20 -11 -20
-20 -20 -20 -20 -20 7 -17 -19 -19 -20 -20 -20 -20 -17 5 2 -20 -20 -0 -10 -14 -20 -4 4 -15 -9 4 -20 -20 -20 -20 -20 -20 -15 7 -20 -19 34 9 18 -14 -20 -20
-20 -20 -20 -20 -20 -20 9 -20 -19 -20 -20 10 -8 -9 -20 -19 1 -20 -20 -10 -16 -20 -20 -8 1 3 -20 -20 -20 -20 -20 -20 -20 3 10 -17 30 32 15 -15 -19 11 -20
-20 -20 -20 -20 -20 -20 -20 -16 -1 -20 -16 -20 -1 -20 -20 -20 -19 -20 -20 -20 -20 -20 -20 -11 -1 1 1 -20 1 -20 -20 -20 -20 7 23 -6 30 34 23 -3 -20 -16 -18
-20 -20 -20 -20 -20 -20 -15 -20 -18 -20 -20 -11 -4 -20 -20 -9 1 -4 -5 -20 -20 -20 -20 -15 22 -1 -4 -4 -0 -4 -5 -15 -20 19 32 21 29 31 33 9 6 14 4
-20 -20 -20 -20 -20 -20 -20 -20 -15 -20 -20 -20 -15 -16 4 4 -7 -11 6 -20 -18 -20 -17 -20 -20 -20 -1 14 8 5 -4 -20 -20 27 32 26 28 31 31 36 24 -14 -20
-20 -20 -20 -20 -20 -20 -20 -3 -19 -15 -20 -20 -12 7 -16 -15 -8 2 0 14 -20 -20 -16 2 -17 -13 -20 3 -19 0 16 -20 -6 27 35 33 28 24 -17 20 34 -18 2
-20 -20 -20 -20 -20 -20 -20 -20 -18 32 -13 -20 -20 -20 -20 -20 -20 -7 -5 -20 -20 -20 -20 5 -11 -19 -7 -6 -1 8 3 -19 3 36 37 26 28 27 -20 28 20 -20 -20
-20 -20 -20 -20 -20 -20 -20 -6 5 -13 -1 -20 -12 -20 -20 -20 -20 7 -3 -14 -18 -16 -5 4 -16 -6 -14 -4 9 0 6 -1 13 35 41 39 26 9 24 13 -20 -12 -20
-20 -20 -20 -20 -20 -20 -20 -7 0 -20 -20 -14 -15 -19 -20 -20 -20 -17 -20 -4 -20 -20 -20 -5 -9 2 0 -13 -20 -20 -20 2 22 24 32 37 33 25 25 -13 -20 3 10
-20 -20 -20 -20 -20 -20 -20 -20 -20 -20 -2 -3 3 -1 -16 -20 -20 -20 -10 -3 -20 -20 -1 2 -2 -20 -2 -4 -20 -12 -4 -11 18 9 31 29 22 20 31 12 -20 -20 5
-20 -20 -20 -20 -20 -20 -20 -10 6 9 11 13 9 -12 -4 -7 -17 13 10 -20 -20 -20 -20 -14 1 -13 13 7 -19 -5 4 -5 4 13 28 25 29 21 21 25 -11 -20 -20
-20 -20 -20 -20 -20 -20 -20 -3 5 -17 -14 -14 -20 -6 0 -18 2 33 21 18 -4 -4 -20 0 -4 -4 12 1 -14 -4 -20 -20 15 -0 -4 6 15 29 28 25 12 -13 -20
-20 -20 -20 -20 -20 -20 -20 -15 5 2 1 3 -11 -20 -14 6 -6 4 33 40 31 -0 -20 -2 -20 -4 13 12 8 2 -0 -11 13 -17 -4 11 -14 -4 8 17 24 7 -20
-20 -20 -20 -18 -20 -20 -19 -16 8 3 5 9 -5 -13 -2 -18 -15 5 20 29 20 5 6 7 -2 2 10 12 9 4 -2 5 -4 -20 -14 14 -19 20 16 26 24 14 -10

GFSSE_prec_radar_105.txt.gz
Reflectivity
-20 -20 -20 -20 -20 -20 -20 -20 -20 -20 -20 -20 -20 -20 -20 -20 -20 -20 -20 -20 -20 -20 -20 -20 -20 -20 -20 -20 -20 -20 -20 -20 -20 -20 -20 -20 -20 -20 -20 -20 -20 -15 -20
-20 -20 -20 -20 -20 -20 -20 -20 -20 -20 -20 -20 -20 -20 -20 -20 -20 -20 -20 -20 -20 -20 -20 -20 -20 -20 -20 -20 -20 -20 -20 -20 -20 -20 -20 -17 -20 -20 -20 -20 28 -20 -20
-20 -20 -20 -20 -20 -20 -20 -20 -20 -20 -20 -20 -20 -20 -20 -20 -20 -20 -20 -20 -20 2 -1 -20 -18 -20 -20 -20 -20 -20 -20 -20 -20 -20 -20 -20 3 -20 -20 -20 -16 -16 -20
-20 -20 -20 -20 -20 -20 -20 -20 -20 -20 -20 -20 -20 -20 -20 -20 -20 -20 -20 -20 -20 3 3 2 -20 -20 -15 -20 -20 -20 -20 -20 -20 -20 -20 -5 -20 -20 -20 -20 -20 -20 -20
-20 -20 -20 -20 -20 -20 -20 -20 -20 -20 -20 -20 -20 -20 -20 -20 -20 -20 -20 -20 -6 5 6 -20 -20 -18 -20 -20 -20 -20 -20 -20 -20 -20 -20 30 1 -20 -20 27 -19 -20 -20
-20 -20 -20 -20 -20 -20 -20 -20 -20 -20 -20 -20 -20 -20 -20 -20 -20 -20 -20 -20 -20 -20 3 -20 -20 -20 -20 -20 -20 -20 -20 -20 -20 -20 -8 14 -20 -20 -20 -20 -20 -20 -20
-20 -20 -20 -20 -20 -20 -20 -20 -20 -20 -20 -20 -20 -20 -20 -20 -20 -20 -20 -20 -20 -20 5 -20 -19 -20 -20 -20 -20 -20 -20 -20 -20 -20 -5 26 -20 -19 -5 -13 -2 -20 -18
-20 -20 -20 -20 -20 -20 -20 -20 -20 -20 -20 -20 -20 -20 -20 -20 -20 -20 -20 -20 -20 -20 -20 -20 -20 -20 -20 -20 -20 -20 -20 -20 -20 -11 25 -3 -20 7 5 -20 1 -20 -20
-20 -20 -20 -8 -20 -20 -20 -20 -20 -20 -20 -20 -20 -20 -20 -20 -20 -20 -20 -20 -20 -20 -20 -20 -20 -20 -20 -20 -20 -20 -20 -20 -20 -20 -13 23 -20 -20 9 -6 -20 -20 -20
-20 -20 -4 -10 -20 -20 -20 -20 -20 -20 -20 -20 -20 -20 -20 -20 -20 -20 -20 -20 -20 -20 -20 -20 -20 -20 -20 -20 -20 -20 -20 -20 -20 -13 2 -20 -20 -20 12 13 -20 -18 4
-20 -20 -0 0 -9 -20 -20 -20 -20 -20 -20 -20 -20 -20 -5 -20 -20 -20 -20 -20 -20 -20 -20 -20 -20 -20 -10 -20 -20 -20 -20 -5 -20 -20 -20 -20 13 -9 2 13 -12 -3 -7
-20 -20 -18 4 -8 -20 -20 -2 -20 -20 -20 -20 -20 -20 -20 -20 -20 -20 -20 -20 -20 -20 -20 -20 -20 -20 -6 -20 -18 -20 -20 -20 -20 -19 -17 6 33 14 18 24 34 6 23
-20 -20 -20 1 10 -20 -20 -5 -18 -20 -20 -20 -20 -20 -20 -20 -20 -20 -19 -4 -14 -20 -20 -20 -20 -18 -20 -20 22 -20 -20 -20 -18 11 -20 22 -20 -15 31 30 36 21 20
-20 -20 -20 -20 -9 9 4 -20 -20 -20 -20 -20 -20 3 2 -20 -20 -20 -20 -20 7 -2 -6 6 -20 -20 -4 -20 3 -0 -17 0 -16 -20 24 29 -20 -19 5 31 41 34 31
-20 -20 -20 -20 -20 -20 9 -20 -20 -20 -20 -20 -10 -13 -20 -20 -20 -20 -20 -20 -20 -20 -20 -20 -2 8 -20 4 17 4 9 -20 -14 -5 13 0 -20 -20 18 31 30 32 32
-20 -20 -20 -20 -20 -20 -20 -20 -20 -20 -20 -20 -20 -14 -19 -14 -14 -20 -20 -20 -20 -20 7 -20 23 23 6 -17 13 6 -5 6 -20 -20 -20 7 -20 -20 11 29 26 33 26
-20 -20 -20 -20 -20 -20 -20 -20 -20 -20 -20 -20 -20 -20 -19 -20 -20 -20 -19 -20 -20 -20 -19 13 11 13 14 1 -8 -4 18 3 7 -5 -20 -20 2 -3 -20 -3 20 33 29
-20 -20 -20 -20 -20 -20 -20 -20 -20 -20 -20 -20 -20 -20 -11 -20 -20 -20 -20 -20 -15 -20 -17 -20 14 12 7 14 1 -6 0 6 25 10 18 20 -10 1 25 -12 29 46 35
-20 -20 -20 -20 -20 -20 -20 -20 -20 -20 -20 -20 -20 -20 -20 -20 -20 -20 -20 -20 -20 -20 9 4 11 12 15 10 5 6 1 9 22 8 -3 15 4 8 -8 17 1 47 43
-20 -20 -20 -20 -20 -20 -20 -20 -20 -20 -20 -20 -20 -20 -20 -20 -20 5 -3 -2 -2 -16 10 -0 -17 11 -9 10 -12 -15 -5 19 13 -14 -4 7 9 17 3 -20 -4 36 37
-20 -20 -20 -20 -20 -20 -20 -20 -20 -20 -20 -20 -20 -20 -20 -8 8 8 1 9 1 -19 5 -8 6 9 5 -2 -20 -19 8 13 20 14 -6 4 7 -20 13 3 23 37 37
-20 -20 -20 -20 -20 -20 -20 -20 -20 -20 -20 -20 -20 -20 -20 7 13 5 2 6 5 -6 6 -9 14 2 11 -20 -10 -12 -10 -7 -11 13 6 2 1 -20 1 5 45 35 33
-20 -20 -20 -20 -20 -20 -20 -20 -20 -20 -20 -20 -20 -20 -20 13 6 24 18 22 5 -8 2 -12 -8 -19 -6 -7 -5 -17 4 -6 -2 3 4 -1 -20 -12 17 32 45 39 36
-20 -20 -20 -20 -20 -20 -20 -20 -20 -20 -20 -20 -20 -20 -20 -20 -9 14 -3 3 6 3 2 -3 -18 -11 6 -11 5 -1 -7 9 1 -16 -9 7 -14 0 8 32 40 39 37
-20 -20 -20 -20 -20 -20 -20 -20 -20 -9 -20 -20 -20 -20 -20 -11 -1 13 15 7 0 1 7 0 2 -16 10 8 -3 -20 4 6 -11 12 -16 0 10 -1 18 22 33 33 33
-20 -20 -20 -20 -20 -20 -20 -20 -18 -3 -20 -20 -20 -20 -20 -20 -20 -8 18 8 4 10 -17 -3 26 34 -5 -1 3 8 -8 -7 -20 10 12 -12 -19 4 -4 11 16 26 29

GFSSE_prec_radar_111.txt.gz
Reflectivity
-20 -20 -20 -20 -20 -20 -20 -20 -20 -20 -20 -20 -20 -20 -20 -20 -20 -20 -20 -20 -20 -20 -20 -20 -20 -20 -20 -20 -20 -20 -20 -6 -20 -20 -20 -20 -20 -20 -20 -20 -20 -20 -20
-20 -20 -20 -20 -20 -20 -20 -20 -20 -20 -20 -20 -20 -20 -20 -20 -20 -20 -20 -20 -20 -20 -20 -20 -20 -20 -20 -20 -20 -20 -20 -20 -20 -20 -20 -20 -20 -20 -20 1 -19 -20 -20
-20 -20 -20 -20 -20 -20 -20 -20 -20 -20 -20 -20 -20 -20 -20 -20 -20 -20 -20 -20 -20 -20 -20 -20 -20 -20 -20 -20 -20 -20 -20 -20 -20 -20 -20 -20 -20 -20 -20 -6 -20 -6 -20
-20 -20 -20 -20 -20 -20 -20 -20 -20 -20 -20 -20 -20 -20 -20 -20 -20 -20 -20 -20 -20 -20 -20 -20 -20 -20 -20 -20 -20 -20 -20 -20 -20 -20 -20 -20 -20 -18 4 -13 10 -17 -8
-20 -20 -20 -20 -20 -20 -20 -20 -20 -20 -20 -20 -20 -20 -20 -20 -20 -20 -20 -20 -20 -20 -20 -20 -20 -20 -20 -20 -20 -20 -20 -20 -20 -20 -11 13 -20 11 3 -5 -20 -19 11
-20 -20 -20 -20 -20 -20 -20 -20 -20 -20 -20 -20 -20 -20 -20 -20 -20 -20 -20 -20 -20 -20 -20 -20 -20 -20 -20 -20 -20 -20 -20 -20 -20 -4 -20 -20 31 -1 25 13 -17 -20 -20
-20 -20 -20 -20 -20 -20 -20 -20 -20 -20 -20 -20 -20 -20 -20 -20 -20 -20 -20 -20 -20 -20 -20 -20 -20 -20 -20 -20 -20 -20 -20 -20 -20 -20 -20 -20 -18 -3 23 11 1 -10 14
-20 -20 -20 -20 -20 -20 -20 -20 -20 -20 -20 -20 -20 -20 -20 -20 -20 -20 -20 -20 -20 -20 -20 -20 -20 -20 -20 -20 -20 -20 -20 -20 -20 -20 4 6 -19 -9 14 9 -8 -20 -8
-20 -20 -20 -20 -20 -20 -20 -20 -20 -20 -20 -20 -20 -20 -20 -20 -20 -20 -20 -20 -20 -20 -20 -20 -20 -20 -20 -20 -20 -20 -20 -20 -20 -20 -20 28 -20 -20 -16 -20 -17 -19 3
-20 -20 -20 -20 -20 -20 -20 -20 -20 -20 -20 -20 -20 -20 -20 -20 -20 -20 -20 -20 -20 -20 -20 -20 -20 -20 -20 -20 -20 -20 -20 -20 -20 -6 -20 -20 -20 -10 10 -6 -20 14 -6
-20 -20 -20 -20 -20 -20 -20 -20 -20 -20 -20 -20 -20 -20 -20 -20 -20 -20 -20 -20 -20 -20 -20 -20 -20 -20 -20 -20 -20 -20 -20 -20 -20 -20 -1 -20 -19 3 -5 32 -15 -20 -18
-20 -20 -20 -20 -20 -20 -20 -20 -20 -20 -20 -20 -20 -20 -20 -20 -20 -20 -20 -20 -20 -20 -20 -20 -20 -20 -20 -20 -20 -20 -20 -20 -20 -20 -20 -20 -20 17 -20 -9 -10 -20 -15
-20 -20 -20 -20 -20 -20 -1 -20 -20 -20 -20 -20 -20 -20 -20 -20 -20 -20 -20 -20 -20 -20 -20 -20 -20 -20 -20 -20 -20 -20 -20 -20 -20 -20 -20 -12 -20 22 5 -18 -19 -9 -20
-20 -20 -20 -20 -20 -20 -20 10 -14 -20 -20 -20 -20 -20 -20 -20 -20 -20 -20 -20 -20 -20 -20 -20 -20 -20 -20 -20 -20 -20 -20 -20 -20 -20 -20 -20 -20 -20 6 -20 -20 -8 10
-20 -20 -20 -20 -20 -5 -3 9 18 -5 -20 -20 -20 -20 -19 -18 -20 -20 -20 -20 -20 -20 -20 -20 -20 -20 -20 -20 -20 -20 -20 -20 -20 -20 -20 -20 1 -17 -20 -20 -20 -17 -19
-20 -20 -20 -20 -20 -20 -20 -20 9 4 -17 6 -20 -20 -15 -15 -20 -20 -20 -20 -20 -20 -20 -20 -20 -20 -20 -20 -20 -20 -20 -20 -20 -20 -20 -20 -20 -20 -20 -20 -18 -9 -20
-20 -20 -20 -20 -20 -20 -20 -20 -20 26 -20 -20 19 3 -13 -6 -0 -18 -20 -20 -20 -20 -20 -20 -20 -20 -20 -20 -20 -20 -20 -20 -20 -20 -20 -20 -20 -20 -20 -20 -20 -16 24
-20 -20 -20 -20 -20 -20 -20 -20 -20 -20 -20 4 -20 -14 18 -20 16 9 -15 -20 -20 -20 -20 -20 -20 -20 -20 -20 -20 -20 -20 -20 -20 -20 -20 -20 -20 -20 -20 -18 -20 -20 16
-20 -20 -20 -20 -20 -20 -20 -20 -20 -20 -20 -12 -20 6 30 -20 -20 37 -6 12 -20 -20 -20 -20 -20 -20 -20 -20 -20 -20 -20 -20 -20 -20 -20 -20 -20 -20 -20 -15 -20 -20 -20
-20 -20 -20 -20 -20 -20 -20 -20 -20 -20 -20 -20 -20 -20 -20 33 -11 20 7 -1 13 2 -20 3 -20 -20 -20 -20 -20 -20 -20 -6 4 -20 -20 -20 -20 -20 -20 -20 -20 -20 -20
-20 -20 -20 -20 -20 -20 -20 -20 -20 -20 -20 -20 -20 -20 -20 -20 -20 -20 -20 -20 -20 -2 -20 -20 29 -20 -20 -18 -20 -20 -20 -20 3 -20 7 13 7 -20 -20 -20 -20 -20 -20
-20 -20 -20 -20 -20 -20 -20 -20 -20 -20 -20 -20 -20 -20 -20 -20 -20 -20 -20 -20 -20 -16 33 -6 33 35 -7 17 17 -3 -15 -12 -20 -15 9 0 -13 -20 -20 -20 -20 -20 -20
-20 -20 -20 -20 -20 -20 -20 -20 -20 -20 -20 -20 -20 -20 -20 -20 -20 -20 -1 17 -20 -6 -0 12 16 36 38 35 31 21 -3 -20 -20 -20 -11 7 11 -20 -20 -20 -20 -20 -1
-20 -20 -20 -20 -20 -20 -20 -20 -20 -20 -20 -20 -20 -20 -20 -20 -20 -20 -20 10 -12 -12 24 14 12 30 37 41 33 35 8 -17 -20 -20 -20 -7 6 -20 -20 -20 -20 -20 -0
-20 7 -20 -20 -20 -20 -20 -20 -20 -20 -20 -20 -20 -20 -20 -20 -20 -20 -20 -20 19 26 9 -20 25 -20 -20 -3 18 37 6 -11 -20 -20 -20 -20 12 6 -20 -20 -20 -20 -20
-16 -20 -20 -13 -3 -10 -20 -20 -20 -20 -20 -20 -20 -20 -20 -20 -20 -20 -20 -20 -20 -17 27 8 12 26 -20 -20 -20 10 11 -18 -20 -20 -20 -20 -20 -20 -12 -17 -20 -20 -20

GFSSE_prec_radar_117.txt.gz
Reflectivity
-20 -20 -20 -20 -20 -20 -20 -20 -20 -20 -20 -20 -20 -20 -20 -20 -20 -20 -20 -20 -20 -20 -20 2 -20 -20 -20 -20 -20 -20 -20 -20 -20 -20 -20 -20 -20 -4 -12 -20 -5 -20 -20
-20 -20 -20 -20 -20 -20 -20 -20 -20 -20 -20 -20 -20 -20 -20 -20 -20 -20 -20 -20 -20 -20 -20 -18 -20 -20 -20 -20 -20 -20 -20 -20 -20 -20 -20 -20 -18 5 -12 -18 -20 -20 -20
-20 -20 -20 -20 -20 -20 -20 -20 -20 -20 -20 -20 -20 -20 -20 -20 -20 -20 -20 -20 -20 -20 -20 -20 -20 -20 -20 -20 -20 -20 -20 -20 -20 -20 -20 -20 -20 10 -20 -20 -20 -2 -20
-20 -20 -20 -20 -20 -20 -20 -20 -20 -20 -20 -20 -20 -20 -20 -20 -20 -20 -20 -20 -20 -20 -20 -20 -20 -20 -20 -20 -20 -20 -20 -20 -20 -20 -20 -20 -20 -20 -16 -19 -20 -20 7
-20 -20 -20 -20 -20 -20 -20 -20 -20 -20 -20 -20 -20 -20 -20 -20 -20 -20 -20 -20 -20 -20 -20 -20 -20 -20 -20 -20 -20 -20 -20 -20 -20 -20 -20 -20 -20 -20 -20 -20 14 -18 -20
-20 -20 -20 -20 -20 -20 -20 -20 -20 -20 -20 -20 -20 -20 -20 -20 -20 -20 -20 -20 -20 -20 -20 -20 -20 -20 -20 -20 -20 -20 -20 -20 -20 -20 -20 -20 -20 -20 -20 -20 -17 -20 -20
-20 -20 -20 -20 -20 -20 -20 -20 -20 -20 -20 -20 -20 -20 -20 -20 -20 -20 -20 -20 -20 -20 -20 -20 -20 -20 -20 -20 -20 -20 -20 -20 -20 -20 -20 -20 -20 -20 -20 -20 -18 -17 -20
-20 -20 -20 -20 -20 -20 -20 -20 -20 -20 -20 -20 -20 -20 -20 -20 -20 -20 -20 -20 -20 -20 -20 -20 -20 -20 -20 -20 -20 -20 -20 -20 -20 -20 -20 -20 -20 -20 -20 -20 -16 -14 -19
-20 -20 -20 -20 -20 -20 -20 -20 -20 -20 -20 -20 -20 -20 -20 -20 -20 -20 -20 -20 -20 -20 -20 -20 -20 -20 -20 -20 -20 -20 -20 -20 -20 -20 -20 -20 -20 -20 -20 -20 -20 -15 -20
-20 -20 -20 -20 -20 -20 -20 -20 -20 -20 -20 -20 -20 -20 -20 -20 -20 -20 -20 -20 -20 -20 -20 -20 -20 -20 -20 -20 -20 -20 -20 -20 -20 -20 -20 -20 -20 -20 -20 -20 -20 -20 -20
-20 -20 -20 -20 -20 -20 -20 -20 -20 -20 -20 -20 -20 -20 -20 -20 -20 -20 -20 -20 -20 -20 -20 -20 -20 -20 -20 -20 -20 -20 -20 -20 -20 -20 -20 -20 -20 -20 -20 -20 -20 -20 -20
-20 -20 -20 -20 -20 -20 -20 -20 -20 -20 -20 -20 -20 -20 -20 -20 -20 -20 -20 -20 -20 -20 -20 -20 -20 -20 -20 -20 -20 -20 -20 -20 -20 -20 -20 -20 -20 -20 -20 -16 -20 -20 -20
-20 -20 -20 -20 -20 -20 -20 -20 -20 -20 -20 -20 2 -20 -20 -16 -17 -20 -20 -20 -20 -20 -20 -20 -20 -20 -20 -20 -20 -20 -20 -20 -20 -20 -20 -20 -20 -20 -20 -20 -20 -20 -20
-20 -20 -20 -20 -20 -20 -20 -20 -20 -20 -20 -20 -6 -3 10 -12 -4 -18 -20 -20 -20 -20 -20 -20 -20 -20 -20 -20 -20 -20 -20 -20 -20 -20 -20 -20 -20 -20 -20 -20 -8 6 -20
-20 -20 -20 -20 -20 -20 -20 -20 -20 7 -3 -20 -20 -20 -20 -5 5 -20 -19 -20 -20 -20 -20 -20 -20 -20 -20 -20 -20 -20 -20 -20 -20 -20 -20 -20 -20 -20 -20 -20 2 -0 -9
-20 -20 -20 -20 -20 -20 -20 -20 -20 -20 -9 -0 -20 -20 -18 -20 -20 -20 -20 -20 -20 -20 -20 -20 -20 -20 -20 -20 -20 -20 -20 -20 -20 -20 -20 -20 -20 -20 -20 -20 -20 -20 -20
-20 -20 -20 -20 -20 -20 -20 -20 -20 -20 -20 -9 13 23 4 29 -6 -20 -20 -20 -20 -12 -20 -13 -4 -20 -20 -20 -20 -20 -20 -20 -20 -20 -20 -20 -20 -20 -20 -20 -20 -20 -20
-20 -20 -20 -20 -20 -20 -20 -20 -20 -20 -20 -20 21 -9 26 7 16 22 0 -17 -19 -3 29 18 30 22 -7 -12 -20 -20 -20 -20 -20 -20 -20 -20 -20 -20 -20 -20 -20 -20 -20
-20 -20 -20 -20 -20 -20 -20 -20 -20 -20 -20 -20 -20 -20 -20 14 26 27 22 23 -2 9 34 31 34 21 17 20 -7 -6 -14 -20 -20 -20 -20 -20 -20 -20 -20 -20 -20 -20 -20
-20 -20 -20 -20 -20 -20 -20 -20 -20 -20 -20 -20 -20 -20 -20 -20 -20 -9 22 27 11 25 11 39 36 29 30 32 30 26 13 26 13 10 8 -16 -20 -20 -20 -20 -20 -20 -20
-20 -20 -20 -20 -20 -20 -20 -20 -20 -20 -20 -20 -20 -20 -20 -20 -20 -20 -20 0 -20 -7 18 34 30 -20 -10 44 29 23 33 30 28 30 32 30 19 -16 -20 -20 -20 -20 -20
-20 -20 -20 -20 -20 -20 -20 -20 -20 -20 -20 -20 -20 -20 -20 -20 -20 -20 -20 -20 -20 -20 -20 8 10 1 17 -20 16 33 33 28 19 25 37 35 29 17 17 -20 -20 -20 -20
-12 -20 -14 -11 -20 -20 -20 -20 -20 -20 -20 -20 -20 -20 -20 -20 -20 -20 -20 -20 -20 -20 -20 -20 9 5 -5 4 -18 28 22 17 1 -14 23 41 34 24 16 11 12 -20 -20
25 1 14 -15 -20 -20 -20 -20 -20 -20 -20 -20 -20 -20 -20 -20 -20 -20 -20 -20 -20 -20 -20 -20 -20 14 11 -11 -20 -18 -20 -20 -20 -12 -16 22 44 26 16 4 8 -20 -20
7 33 20 -3 -20 -20 -20 -20 -20 -20 -20 -20 -20 -20 -20 -20 -20 -20 -20 -20 -5 -12 -20 -19 -20 -20 9 -1 -20 -20 -20 -20 -20 -20 -20 -20 18 19 3 8 -19 -20 -20
22 13 18 7 -20 -19 -16 -20 -20 -20 -16 -10 -20 -20 -20 -20 -20 -20 -20 -20 -20 -20 -20 -20 -2 5 12 -7 -14 -19 -16 -20 -20 -20 -20 -20 -16 6 6 13 9 -20 -20

GFSSE_prec_radar_120.txt.gz
Reflectivity
-20 -20 -20 -20 -20 -20 -20 -20 -20 -20 -20 -20 -20 -20 -20 -20 -20 -20 -20 -20 -20 -1 1 -20 -20 -20 -20 -20 -20 -20 -20 -20 -20 -20 -20 -20 4 -17 -20 -20 -20 -20 3
-20 -20 -20 -20 -20 -20 -20 -20 -20 -20 -20 -20 -20 -20 -20 -20 -20 -20 -20 -20 -20 -18 -9 -20 -8 -20 -20 -20 -20 -20 -20 -20 -20 -20 -20 -20 -17 -3 -20 -20 -20 -12 2
-20 -20 -20 -20 -20 -20 -20 -20 -20 -20 -20 -20 -20 -20 -20 -20 -20 -20 -20 -20 -20 -20 -0 -9 -0 -6 -20 -20 -20 -20 -20 -20 -20 -20 -20 -20 -20 -9 -20 -20 -20 -20 -20
-20 -20 -20 -20 -20 -20 -20 -20 -20 -20 -20 -20 -20 -20 -20 -20 -20 -20 -20 -20 -20 -20 -20 -10 -20 -6 -20 -20 -20 -20 -20 -20 -20 -20 -20 -20 -20 -20 -20 -20 -20 -20 -20
-20 -20 -20 -20 -20 -20 -20 -20 -20 -20 -20 -20 -20 -20 -20 -20 -20 -20 -20 -20 -20 -20 -20 -20 -11 0 -20 -20 -20 -20 -20 -20 -20 -20 -20 -20 -20 -20 -20 -20 -20 -20 -20
-20 -20 -20 -20 -20 -20 -20 -20 -20 -20 -20 -20 -20 -20 -20 -20 -20 -20 -20 -20 -20 -20 -20 -20 -20 -20 -20 -20 -20 -20 -20 -20 -20 -20 -20 -20 -20 -20 -20 -20 -20 -20 -20
-20 -20 -20 -20 -20 -20 -20 -20 -20 -20 -20 -20 -20 -20 -20 -20 -20 -20 -20 -20 -20 -20 -20 -20 -20 -20 -20 -20 -20 -20 -20 -20 -20 -20 -20 -20 -20 -20 -14 -20 19 -20 -20
-20 -20 -20 -20 -20 -20 -20 -20 -20 -20 -20 -20 -20 -20 -20 -20 -20 -20 -20 -20 -20 -20 -20 -20 -20 -20 -20 -20 -20 -20 -20 -20 -20 -20 -20 -20 -20 -20 -20 3 -18 -20 -20
-20 -20 -20 -20 -20 -20 -20 -20 -20 -20 -20 -20 -20 -20 -20 -20 -20 -20 -20 -20 -20 -20 -20 -20 -20 -20 -20 -20 -20 -20 -20 -20 -20 -20 -20 -20 -20 -20 -20 -20 -20 -20 -20
-20 -20 -20 -20 -20 -20 -20 -20 -20 -20 -20 -20 -20 -20 -20 -20 -20 -20 -20 -20 -20 -20 -20 -20 -20 -20 -20 -20 -20 -20 -20 -20 -20 -20 -20 -20 -20 -20 -20 -20 -20 -20 -20
-20 -20 -20 -20 -20 -20 -20 -20 -20 -20 -20 -20 -20 -20 -3 -20 -20 -20 -20 -20 -20 -20 -20 -20 -20 -20 -20 -20 -20 -20 -20 -20 -20 -20 -20 -20 -20 -20 -20 -20 -20 -20 -20
-20 -20 -20 -20 -20 -20 -20 -20 -20 -20 -20 -20 -20 -20 -20 -20 -20 -20 -20 -20 -20 -20 -20 -20 -20 -20 -20 -20 -20 -20 -20 -20 -20 -20 -20 -20 -20 -20 -20 -20 -20 -20 -20
-20 -20 -20 -20 -20 -20 -20 -20 -20 -20 -20 -20 -16 -20 -17 10 -1 -20 -20 -20 -20 -20 -20 -20 -20 -20 -20 -20 -20 -20 -20 -20 -20 -20 -20 -20 -20 -20 -20 -20 -20 -20 -20
-20 -20 -20 -20 -20 -20 -20 -20 -20 -20 -20 -20 -20 -20 -17 15 12 26 1 -20 -20 -20 -20 -20 -20 -20 -20 -20 -20 -20 -20 -20 -20 -20 -20 -20 -20 -20 -20 -20 -20 -20 -20
-20 -20 -20 -20 -20 -20 -20 -20 -20 -20 -20 -20 -20 -20 -15 -20 4 12 2 16 -3 -11 -20 -20 -20 -20 -20 -20 -20 -20 -20 -20 -20 -20 -20 -20 -20 -20 -20 -20 -20 -20 -20
-20 -20 -20 -20 -20 -15 -12 -20 -20 -20 -20 -18 -20 -20 -18 1 16 22 7 1 0 17 10 -18 -20 -20 -20 -20 -20 -20 -20 -20 -20 -20 -20 -20 -20 -20 -20 -20 -20 -20 -20
-20 -20 -20 -20 8 -20 21 -20 -20 -20 -20 -15 11 -20 -19 -15 -4 -10 8 9 -19 -20 1 -20 -20 -8 -20 -15 2 -20 -20 9 -20 -20 -20 -20 -20 -20 -20 -20 -20 -20 -20
-20 -20 -20 -20 -20 11 -13 -20 -16 12 -20 17 -20 25 -16 -20 15 18 -19 -13 5 16 -18 -18 -17 -19 -12 11 19 16 -5 -2 -20 -14 -20 -20 -20 -20 -20 -20 -20 -20 -20
-20 -20 -20 -20 -20 -20 -20 -20 -20 -20 -19 -4 -20 -20 -20 -20 -20 -20 -20 10 6 13 17 16 28 27 16 -6 8 29 29 32 27 29 -13 -20 -20 -20 -20 -20 -20 -20 -20
-20 -20 -20 -20 -20 -20 -20 -20 -20 -20 -20 -20 -20 -20 -20 -20 -20 -20 -20 -20 4 8 24 24 36 34 32 23 27 33 32 22 15 17 27 29 30 17 14 10 -7 -19 -20
-20 -20 -20 -20 -20 -20 -20 -20 -20 -20 -20 -20 -20 -20 -20 -20 -20 -20 -20 -20 -20 -20 -20 -19 7 33 30 24 28 27 31 22 30 12 -11 33 29 31 -1 20 12 11 -17
-20 -20 -20 -20 -20 -20 -20 -20 -20 -20 -20 -20 -20 -20 -20 -20 -20 -20 -20 -20 -20 -20 -20 -20 -12 8 -16 -2 19 36 22 -19 -20 -5 -20 21 28 37 1 16 -12 3 12
-20 -20 -20 -20 -20 -20 -20 -6 -19 -20 -20 -20 -20 -20 -20 -20 -20 -20 -20 -20 -20 -20 -19 -20 -20 -20 9 -9 6 24 16 -4 7 24 14 -20 -1 -18 -20 -20 -17 5 13
-20 -20 -19 -20 1 19 -20 2 -8 -20 -20 -20 -20 -20 -20 -20 -20 -20 -20 -20 -20 -18 -8 -20 -20 -20 -15 9 -14 -7 -1 -20 7 -20 -15 -13 -20 -20 -20 -20 -20 -8 2
-12 -20 -14 4 20 34 13 8 -16 -20 -20 -12 -20 -20 -20 -20 -20 -20 -20 -20 -20 -4 -7 -20 -16 -13 -20 -9 2 -7 -7 -13 19 -20 -20 -20 -20 -20 -20 -20 -20 -20 -10
13 -20 16 1 28 13 34 11 7 7 -6 -9 -20 -20 -20 -19 -20 -20 -20 -20 -20 -20 -12 -2 3 -6 -9 -7 6 12 1 2 -6 -20 -20 -20 -20 -20 -20 -20 -20 -20 -20

GFSSE_prec_radar_123.txt.gz
Reflectivity
-20 -20 -20 -20 -20 -20 -20 -20 -20 -20 -20 -20 -20 -20 -20 -20 -20 -20 -20 -20 -20 -20 -20 -20 -20 -20 -20 -20 -20 -20 -20 -20 -20 -20 -20 -20 -20 -20 -20 -20 1 -10 -2
-20 -20 -20 -20 -20 -20 -20 -20 -20 -20 -20 -20 -20 -20 -20 -20 -20 -20 -20 -20 -20 -20 -20 -20 -20 -20 -20 -20 -20 -20 -20 -20 -20 -20 -20 -3 -19 -6 -20 -20 -20 -20 -20
-20 -20 -20 -20 -20 -20 -20 -20 -20 -20 -20 -20 -20 -20 -20 -20 -20 -20 -20 -20 -20 -19 -20 -20 -20 -20 -20 -20 -20 -20 -20 -20 -20 -20 -20 -4 -0 -16 -20 -20 -20 -20 4
-20 -20 -20 -20 -20 -20 -20 -20 -20 -20 -20 -20 -20 -20 -20 -20 -20 -20 -20 -20 -20 -20 -17 -20 -20 -20 -20 -20 -20 -20 -20 -20 -20 -20 -20 -20 -1 -9 -20 -20 -20 -20 -20
-20 -20 -20 -20 -20 -20 -20 -20 -20 -20 -20 -20 -20 -20 -20 -20 -20 -20 -20 -20 -20 -20 -20 -20 -20 -20 -20 -20 -20 -20 -20 -20 -20 -20 -20 -20 -14 -0 -20 -20 -20 -20 -20
-20 -20 -20 -20 -20 -20 -20 -20 -20 -20 -20 -20 -20 -20 -20 -20 -20 -20 -20 -20 -20 -20 -20 -20 -20 -20 -20 -20 -20 -20 -20 -20 -20 -20 -20 -20 -20 -20 -20 -20 -13 -20 -20
-20 -20 -20 -20 -20 -20 -20 -20 -20 -20 -20 -20 -20 -20 -20 -20 -20 -20 -20 -20 -20 -20 -20 -20 -15 -20 -20 -20 -20 -20 -20 -20 -20 -20 -20 -20 -20 -20 -20 -20 -20 -20 -20
-20 -20 -20 -20 -20 -20 -20 -20 -20 -20 -20 -20 -20 -20 -20 -20 -20 -20 -20 -20 -20 -20 -20 -20 -20 -20 -20 -20 -20 -20 -20 -20 -20 -20 -20 -20 -20 -20 -20 -20 -20 -20 -20
-20 -20 -20 -20 -20 -20 -20 -20 -20 -20 -20 -20 -20 -20 -20 -20 -20 -20 -20 -20 -20 -20 -20 -20 -20 -20 -20 -20 -20 -20 -20 -20 -20 -20 -20 -20 -20 -20 -20 -20 -20 -20 -20
-20 -20 -20 -20 -20 -20 -20 -20 -20 -20 -20 -20 -20 -20 -20 -20 -20 -20 -20 -20 -20 -20 -20 -20 -20 -20 -20 -20 -20 -20 -20 -20 -20 -20 -20 -20 -20 -20 -20 25 -20 -20 -20
-20 -20 -20 -20 -20 -20 -20 -20 -20 -20 -20 -20 -20 -20 -6 -20 -20 -20 -20 -20 -20 -20 -20 -20 -20 -20 -20 -20 -20 -20 -20 -20 -20 -20 -20 -20 -20 -20 -20 -20 -20 -20 -20
-20 -20 -20 -20 -20 -20 -20 -20 -20 -20 -20 -20 -20 -20 1 -4 -10 -20 -20 -20 -20 -20 -20 -20 -18 -20 -17 -16 -20 -20 -20 -20 -20 -20 -20 -20 -20 -20 -20 -20 -20 -20 -20
-20 -20 -20 -20 -20 -20 -20 -20 -20 -20 -20 -6 1 -1 -18 5 5 -0 -17 -13 -20 -20 -20 -9 6 7 10 4 -20 -20 -20 -20 -20 -20 -20 -20 -20 -20 -20 -20 -20 -20 -20
-20 -20 -20 -20 -20 -20 -20 -20 -20 -20 -20 -20 -20 -15 6 7 3 -1 1 -19 -19 -4 -3 0 1 8 19 17 -16 -20 -20 -20 -20 -20 -20 -20 -20 -20 -20 -20 -20 -20 -20
-20 -20 -20 -20 -20 -20 -18 -2 1 -20 -20 -20 -20 -12 -20 14 11 -12 -16 -7 -6 -11 -7 -9 -4 -1 -16 0 1 -14 -20 -20 -20 -20 -20 -20 -20 -20 -20 -20 -17 4 -13
-20 -20 -20 -20 -20 7 -19 7 -17 -20 -18 3 13 -6 3 -17 -1 19 9 12 4 -5 -18 -5 -20 -20 -20 -20 -13 -20 -11 -20 -20 -20 -20 -20 -20 -20 -20 -20 -20 -17 20
-20 -20 -20 -20 -20 -19 -20 -20 -20 -20 -20 -14 -20 -19 -16 -7 -20 -20 9 14 -1 -9 26 -8 4 8 15 -20 -20 -20 0 -20 -20 -14 -20 -20 -20 -20 -20 -20 -20 -20 -12
-20 -20 -20 -20 -20 0 2 -20 -20 -20 19 -20 -13 -20 -18 -20 -17 -20 -20 24 11 5 6 13 -9 6 4 26 -20 -20 -18 -13 -20 5 11 -20 2 -20 -19 -20 -20 -20 -20
-20 -20 -20 -20 -20 9 -0 -20 -20 -20 -20 -20 -20 -20 -20 -20 -20 -20 0 -8 -18 27 -15 16 16 -2 -16 -6 -8 0 5 14 -11 -1 12 18 20 -7 -20 -20 -20 -20 -20
-20 -20 -20 -17 -20 -6 -20 -20 -20 -20 -20 -15 -20 -20 -20 -20 -20 -20 -20 -20 -20 -20 2 27 27 15 9 37 31 25 22 12 21 8 9 15 18 16 10 15 12 -20 -20
-20 -20 -20 -20 -4 3 -20 -20 -20 -20 -20 -20 -20 -20 -20 -20 -20 -20 -20 -20 -20 -20 -20 -20 -20 -13 2 27 23 31 41 38 42 30 11 8 1 -19 -10 -15 9 4 -20
-20 -20 -20 -20 -20 -13 -20 5 -20 -20 -20 -20 -20 -20 -20 -20 -20 -20 -20 -20 -20 -20 -20 -20 -20 -20 13 -15 -2 25 30 33 7 6 16 3 -10 -19 -20 -8 -5 -20 -20
-20 -20 -20 -20 -20 -20 -20 -20 -20 -20 -20 -20 -20 -20 -20 -20 -20 -20 -20 -20 -20 -20 -20 -11 -5 -20 -20 4 -2 -20 -17 -17 -20 -20 -20 -13 -1 -14 -20 -20 -20 -20 -20
-20 -20 -20 -20 -20 -17 -10 -10 -20 -20 -20 -20 -13 -20 -20 -20 -20 -20 -20 -20 -17 -3 -1 -18 -19 1 -9 -16 2 20 11 -7 -20 -20 -14 -17 5 -20 -20 -20 -20 -20 -20
-20 -20 -20 -20 -20 -20 4 -13 -7 -18 -1 3 -8 -8 -20 -20 -20 -20 -20 -20 -19 -19 -19 -4 3 6 0 -6 -19 -0 11 15 4 3 -3 -18 0 -20 -20 -20 -20 -20 -20
-17 -20 -16 -20 -19 -20 -0 -4 -16 11 33 11 18 9 -19 -20 -20 -20 -20 -20 -20 -6 -2 -13 -4 -5 6 8 -1 -4 -10 15 7 -14 -5 -13 -19 -20 -20 -20 -20 -20 -20

GFSSE_prec_radar_126.txt.gz
Reflectivity
-20 -20 -20 -20 -20 -20 -20 -20 -20 -20 -20 -20 -20 -20 -20 -20 -20 -20 -20 -20 -20 -20 -20 -20 -20 -20 -20 -20 -20 -20 -20 -20 -20 -20 -20 -20 -20 -20 -20 -20 -20 -20 -20
-20 -20 -20 -20 -20 -20 -20 -20 -20 -20 -20 -20 -20 -20 -20 -20 -20 -20 -20 -20 -20 -20 -20 -20 -20 -20 -20 -20 -20 -20 -20 -20 -20 -20 -20 -20 -3 -20 -20 -20 6 -20 -20
-20 -20 -20 -20 -20 -20 -20 -20 -20 -20 -20 -20 -20 -20 -20 -20 -20 -20 -20 -20 -20 -20 -20 -20 -20 -20 -20 -20 -20 -20 -20 -20 -20 -20 -20 -20 7 -0 -20 -20 -20 -20 -20
-20 -20 -20 -20 -20 -20 -20 -20 -20 -20 -20 -20 -20 -20 -20 -20 -20 -20 -20 -20 -20 -20 -20 -20 -20 -20 -20 -20 -20 -20 -20 -20 -20 -20 -20 -20 -20 -5 -20 -20 -20 -20 -20
-20 -20 -20 -20 -20 -20 -20 -20 -20 -20 -20 -20 -20 -20 -20 -20 -20 -20 -20 -20 -20 -20 -20 -20 -20 -20 -20 -20 -20 -20 -20 -20 -20 -20 -20 -20 -20 -11 -20 -20 -20 -20 -20
-20 -20 8 -20 -20 -20 -20 -20 -20 -20 -20 -20 -20 -20 -20 -20 -20 -20 -20 -20 -20 -20 -6 -20 -20 -20 -20 -20 -20 -20 -20 -20 -20 -20 -20 -20 -20 -20 -20 -20 -20 -20 -20
-20 -20 -20 -20 -20 -20 -20 -20 -20 -20 -20 -20 -20 -20 -20 -20 -20 -20 -20 -20 -20 -20 1 -20 -20 -20 -20 -20 -20 -20 -20 -20 -20 -20 -20 -20 25 -20 -20 -20 -20 -20 -20
-20 -20 -20 -20 -20 -20 -20 -20 -20 -20 -20 -20 -20 -20 -20 -20 -20 -20 -20 -20 -20 -20 -20 -20 -20 -20 -20 -20 -20 -20 -20 -20 -20 -20 -20 -20 -20 -20 -20 -20 -20 -20 -20
-20 -20 -20 -20 -20 -10 -20 -20 -20 -20 -20 -20 -20 -20 -20 -20 -20 -20 -20 -20 -20 -20 -20 -20 -20 -20 -20 -20 -20 -20 -20 -20 -20 -20 -20 -20 -20 -20 -20 -20 -20 -20 -20
-20 -20 -20 -20 -20 -20 -20 -20 -20 -20 -20 -20 -20 -20 -20 -20 -20 -20 -20 -20 -20 -20 -20 -20 -20 -20 -20 -20 -20 -20 -20 -20 -20 -20 -20 -20 -20 -20 -20 -20 -20 -20 -20
-20 -20 -20 -20 -20 -20 -20 -20 -20 -19 -20 -20 -20 -20 -17 -20 -20 -20 -20 -20 -20 -20 -20 -20 -20 -20 -20 -20 -20 -20 -20 -20 -20 -20 -20 -20 -20 -20 -20 -20 -20 -20 -20
-20 -20 -20 -20 -20 -20 -20 -20 -20 -20 -20 -20 -20 -20 -20 -20 -11 -20 -20 -20 -20 -20 -20 -20 -20 -20 -7 -20 -20 -3 -20 -20 -20 -20 -20 -20 -20 -20 -20 -20 -20 -20 -20
-20 -20 -20 -20 -20 -20 -20 -20 -20 -20 -20 -5 5 8 4 -4 0 -6 10 0 -20 -20 -19 -14 5 10 4 -20 -20 -20 -20 -20 -20 -20 -20 -20 -20 -20 -20 -20 -20 -20 -20
-20 -20 -20 -20 -20 -20 -20 -20 -20 -20 -20 -8 -3 5 7 10 7 12 -17 -5 24 -14 2 1 29 27 2 6 -20 -20 -20 -20 -20 -20 -20 -20 -20 -20 -20 -20 -20 -20 -20
-20 -20 -20 -20 -20 -20 -1 7 14 2 -20 -18 -7 -2 -12 -2 14 11 -12 -15 3 8 2 15 14 16 25 9 6 20 -6 -20 -20 -20 -20 -20 -20 -20 -20 -20 -15 -20 -20
-20 -20 -20 -20 -20 -20 -14 12 12 7 9 3 4 7 7 2 17 12 17 -5 -6 -20 2 22 -11 12 26 -6 32 6 2 -6 -17 -20 -20 -15 -20 -20 -20 -20 -20 -20 -20
-20 -20 -20 -20 -20 -20 -9 0 2 12 -1 -9 -3 -19 -4 -8 -20 12 12 11 9 8 -12 -10 -4 28 -8 13 26 -10 3 -5 -5 19 -20 -20 -19 -4 -20 -20 -20 -20 -20
-20 -20 -20 -20 -20 -20 -20 -3 11 14 -20 -20 8 7 -3 -19 8 11 -14 8 -13 21 -17 10 4 26 12 18 11 14 3 -1 -5 14 27 24 -12 -20 -20 -20 -15 -20 -20
-20 -20 -20 -20 -20 -20 -20 -10 6 6 5 -15 -8 -19 -20 -20 -20 -20 -20 -19 -16 0 -20 -20 2 31 16 25 3 0 5 -1 6 3 2 15 1 7 -20 -13 -9 -18 -20
-20 -20 -20 -20 -20 -20 -20 5 6 -4 -19 -20 -20 -20 -20 -20 -20 -20 -20 -20 -20 -20 -20 -20 -20 -19 21 -1 27 15 21 28 28 29 26 23 14 5 -6 6 -1 7 -20
-20 -20 -20 -20 -20 -20 -20 -20 2 -6 -19 -20 -20 -20 -20 -20 -20 -20 -20 -20 -20 -20 -20 -20 -20 -18 7 13 4 8 31 24 37 30 44 46 34 30 24 8 5 -4 -20
-20 -20 -20 -20 -20 -20 -20 -20 -20 -8 6 -20 -10 -11 -20 -20 -20 -20 -8 -14 -20 -9 -17 -20 -20 -20 -20 9 16 4 22 -10 2 22 5 17 26 19 18 20 -20 -16 -7
-20 -20 -20 -20 -20 -20 -20 -20 -20 -9 -16 -20 -20 -20 -20 -20 -20 -20 -20 -9 -8 -20 -8 -20 -20 1 -14 -20 8 21 5 -7 -14 -8 -20 10 0 -12 -7 -7 6 -11 -20
-20 -20 -20 -20 -20 -20 -20 -20 -20 -20 10 -20 -20 -8 -20 -20 -20 -20 -7 -5 2 -1 -0 -1 1 0 -0 -6 -20 -18 12 -14 22 3 -20 -19 -20 -18 -16 -20 -20 -20 -20
-20 -20 -20 -20 -20 -20 -20 -20 -20 -20 -20 1 -20 -20 -20 -20 -20 -19 -17 -16 0 -3 -3 1 -1 -4 -2 8 3 -16 -20 12 13 19 -8 11 -18 -20 -20 -20 -20 -20 -20
-20 -20 -7 -13 -20 -20 -20 -16 -16 -20 -20 -20 -20 -20 -8 -9 -20 -14 -14 -16 -4 -2 -3 -0 2 -0 0 2 3 14 -3 -2 -0 12 19 -20 -20 -20 -20 -20 -20 -20 -20

GFSSE_prec_radar_129.txt.gz
Reflectivity
-20 -20 -20 -20 -20 -20 -20 -20 -20 -20 -20 -20 -20 -20 -20 -20 -20 -20 -20 -20 -20 -20 -20 -20 -20 -20 -20 -20 -20 -20 -20 -20 -20 -20 -20 -20 -20 -20 -20 -20 -20 -20 -20
-20 -20 -20 -20 -20 -20 -20 -20 -20 -20 -20 -20 -20 -20 -20 -20 -20 -20 -20 -20 -20 -20 -20 -20 -20 -20 -20 -20 -20 -20 -20 -20 -20 -20 -20 -20 -20 -20 -20 -20 6 -20 -20
-20 -20 -20 -20 -20 -20 -20 -20 -20 -20 -20 -20 -20 -20 -20 -20 -20 -20 -20 -20 -20 3 -20 -20 -20 -20 -20 -20 -20 -20 -20 -20 -20 -20 -20 -20 -20 -20 -20 -20 -20 -20 -20
-20 -20 -20 -20 -20 -20 -20 -20 -20 -20 -20 -20 -20 -20 -20 -20 -20 -20 -20 -20 -20 -20 -20 -20 -20 -20 -20 -20 -20 -20 -20 -20 -20 -20 -20 -19 -9 -20 -20 -20 -20 -20 -20
-20 -20 -20 -20 -20 -20 -20 -20 -20 -20 -20 -20 -20 -20 -20 -20 -20 -20 -20 -20 -20 -20 -20 -20 -20 -20 -20 -20 -20 -20 -20 -20 -20 -20 -10 -17 -6 -20 -20 -20 -20 -20 -20
-20 -20 -1 -20 -20 -20 -20 -20 -20 -20 -20 -20 -20 -20 -20 -20 -20 -20 -20 -20 -20 -20 -20 -20 -20 -20 -20 -20 -20 -20 -20 -20 -20 -20 -20 0 -20 -20 -20 -20 -20 -20 -20
-20 -20 -20 -20 -20 -20 -20 -20 -20 -20 -20 -20 -20 -20 -20 -20 -20 -20 -20 -20 -20 -20 -20 -20 -20 -20 -20 -20 -20 -20 -20 -20 -20 -20 -20 -20 -20 -20 -20 -20 -20 -20 -20
-20 -20 -20 -20 -20 -20 -20 -20 -20 -20 -20 -20 -20 -20 -20 -20 -20 -20 -20 -20 -20 -20 -20 -20 -20 -20 -20 -20 -20 -20 -20 -20 -20 -20 -20 -20 -20 -20 -20 -20 -20 -20 -20
-20 -20 -20 -20 -20 -20 -20 -20 -20 -20 -20 -20 -20 -20 -20 -20 -20 -20 -20 -20 -20 -20 -20 -20 -20 -20 -20 -20 -20 -20 -20 -20 -20 -20 -20 -20 -20 -20 -20 -20 -20 -20 -20
-20 -20 -20 -20 -20 -20 -20 -20 -20 -20 -20 -20 -20 -20 -20 -20 -20 -20 -20 -20 -20 -20 -18 -19 -20 -20 -20 -20 -20 -20 -20 -20 -20 -20 -20 -20 -20 -20 -20 -20 -20 -20 -20
-20 -20 -20 -20 -20 -20 -20 -20 -20 -20 -20 -19 -20 -20 -20 -20 -20 -20 -20 -20 -20 -20 -20 -20 -19 -15 -20 -20 -20 -20 -20 -20 -20 -20 -20 -20 -20 -20 -20 -20 -20 -20 -20
-20 -20 -20 -20 -20 -20 -20 -20 -20 -20 -20 -20 -20 -20 -20 -20 -20 -20 -20 -20 -20 -20 -20 -20 -19 -14 -8 -20 -20 -20 -20 -20 -20 -20 -20 -20 -20 -20 -20 -20 -20 -20 -20
-20 -20 -20 -20 -20 -20 -20 -20 -20 -20 -20 -20 -18 8 9 14 3 22 -6 6 -20 -20 -20 -20 -19 -20 -20 -20 -20 -20 -20 -20 -20 -20 -20 -20 -20 -20 -20 -20 -20 -20 -20
-20 -20 -20 -20 -20 -20 -20 -20 -20 -20 -20 -20 -20 -20 -12 5 8 -1 -16 6 31 -8 -18 -18 -20 8 1 -15 -20 -20 -20 -20 -20 -20 -20 -20 -20 -20 -20 -20 -20 -20 -20
-20 -20 -20 -20 -20 -20 -20 -20 -19 -12 1 -16 1 15 16 1 -12 -1 -1 -0 -16 10 23 16 -9 -20 -20 10 22 23 8 -20 -20 -20 -20 -20 -20 -20 -20 -20 -20 -20 -20
-19 -20 -20 -20 -20 -20 -20 -20 -20 -20 -15 3 -15 -20 -16 -7 -2 20 7 -8 29 -2 -14 0 -16 -18 -20 -20 -20 -14 1 14 2 -20 -20 -20 -20 -20 -20 -20 -20 -20 -20
-20 -20 -20 -6 2 -13 -4 -20 -20 -20 -7 5 5 21 12 -19 -20 -10 -19 2 22 28 32 29 29 27 19 -4 -20 -20 -18 19 -5 19 -20 -20 -20 -20 -20 -20 -20 -20 -20
-20 -20 -20 -19 -20 -20 -20 -20 -20 -20 15 6 6 -10 -20 -20 -20 -20 14 -10 3 1 -7 7 9 31 35 20 30 -14 -20 -1 -9 -20 2 -3 -15 -20 -16 -20 -20 -20 -20
-20 -20 -20 -20 -20 -20 -20 -20 -20 -20 11 1 -3 -0 -4 -17 -20 -20 -20 -20 -9 -13 -16 -18 -8 15 14 18 29 40 26 -16 -12 -14 -20 -15 -9 -9 23 -1 -18 -20 -20
-20 -20 -20 -20 -20 -20 -20 -20 -20 -18 -9 -9 -1 -4 -10 -17 -20 -20 -20 -20 -20 -20 -20 -20 9 9 1 -15 15 4 2 26 11 30 21 33 28 32 10 21 28 27 -20
-20 -20 -20 -20 -20 -20 -20 -20 -20 -20 -20 -12 8 -6 -17 -20 -20 -20 -20 -20 -20 -20 -20 -20 -20 -20 -20 4 13 18 -18 22 25 34 36 49 36 44 32 37 32 16 22
-20 -20 -20 -20 -20 -20 -20 -20 -20 -20 -20 -20 -12 -0 -20 -20 -20 -20 -12 -15 -12 -19 -20 -8 -8 -2 -20 -20 8 12 8 5 6 -13 7 25 17 14 21 14 3 -10 -4
-20 -20 -20 -20 -20 -20 -20 -20 -20 -20 -20 -20 -20 -20 -7 -18 -20 -20 -20 -20 -20 -12 -9 -14 -1 -0 2 -20 -20 9 12 -17 1 0 -15 -1 7 7 2 8 9 7 10
-20 -20 -20 -20 -20 -20 -20 -20 -20 -20 -20 -20 -20 -20 -20 -20 -20 -20 -20 -20 -19 -20 -15 -4 1 2 1 -4 -8 -20 -17 10 -8 -4 22 -20 -8 -5 -6 5 -3 0 5
-20 -20 -20 -20 -20 -20 -20 -20 -20 -20 -20 -20 -20 -20 -20 -20 -20 -20 -20 -20 -20 -20 -13 -3 -2 -2 -0 1 0 3 -0 -20 -20 13 11 -20 24 -18 -20 -20 -20 -20 -20
-20 -20 -20 -20 -20 -0 -14 -16 -20 -20 -20 -20 -20 -20 -17 -20 -20 -20 -20 -20 -20 -12 -4 -1 -2 -1 -0 1 2 4 7 -6 4 -10 4 1 5 -20 -17 9 -18 -20 -20

GFSSE_prec_radar_132.txt.gz
Reflectivity
-20 -20 -20 -20 -20 -20 -20 -20 -20 -20 -20 -20 -20 -20 -20 -20 -20 -20 -20 -20 -20 -20 -20 -20 -20 -20 -20 -20 -20 -20 -20 -20 -20 -20 -20 -20 -20 -20 -20 -20 -20 -20 -20
-20 -20 -20 -20 -20 -20 -20 -20 -20 -20 -20 -20 -20 -20 -20 -20 -20 -20 -20 -20 -20 -20 -20 -20 -20 -20 -20 -20 -20 -20 -20 -20 -20 -20 -20 -20 -20 -20 -20 -20 -17 -20 -20
-20 -20 -20 -20 -20 -20 -20 -20 -20 -20 -20 -20 -20 -20 -20 -20 -20 -20 -20 -20 -20 -20 -20 -20 -20 -20 -20 -20 -20 -20 -20 -20 -20 -20 -20 -20 -20 -20 -20 -20 -20 -20 -20
-20 -20 -20 -20 -20 -20 -20 -20 -20 -20 -20 -20 -20 -20 -20 -20 -20 -20 -20 -20 -20 -20 -20 -20 -20 -20 -20 -20 -20 -20 -20 -20 -20 -20 -11 29 -13 -20 -20 -20 -20 -20 -20
-20 -20 -20 -20 -20 -20 -20 -20 -20 -20 -20 -20 -20 -20 -20 -20 -20 -20 -20 -20 -20 -20 -20 -20 -20 -20 -20 -20 -20 -20 -20 -20 -20 -20 -20 -11 4 -20 -20 -20 -20 -20 -20
-20 -20 -20 -20 -20 -20 -20 -20 -20 -20 -20 -20 -20 -20 -20 -20 -20 -20 -20 -20 -20 -20 -20 -20 -20 -20 -20 -20 -20 -20 -20 -20 -20 -20 35 -13 -20 -20 -20 -20 -20 -20 -20
-20 -20 -20 -20 -20 -20 -20 -20 -20 -20 -20 -20 -20 -20 -20 -20 -20 -20 -20 -20 -20 -20 -20 -20 -20 -20 -20 -20 -20 -20 -20 -20 -20 -20 -13 26 -20 -20 -20 -20 -20 -20 -20
-20 -20 -20 -20 -20 -20 -20 -20 -20 -20 -20 -20 -20 -20 -20 -20 -20 -20 -20 -20 -20 -20 -20 -20 -20 -20 -20 -20 -20 -20 -20 -20 -20 -20 -20 20 -20 -20 -20 -20 -20 -20 -20
-20 -20 -20 -20 -20 -20 -20 -20 -20 -20 -20 -20 -20 -20 -20 -20 -20 -20 -20 -20 -20 -20 -20 -20 -9 -20 -20 -20 -20 -20 -20 -20 -20 -20 -20 4 -20 -20 -20 -20 -20 -20 -20
-20 -20 -20 -20 -20 -20 -20 -20 -20 -20 -20 -20 -20 -20 -20 -20 -20 -20 -20 -20 -20 -20 -20 -18 -19 -20 -20 -20 -20 -20 -20 -20 -20 -20 -20 -20 -6 -20 2 -20 -20 -20 -20
-20 -20 -20 -20 -20 -20 -20 -20 -20 -20 -20 -20 -20 -20 -20 -20 -20 -20 -20 -20 -20 -20 -20 -20 -20 -20 -20 -20 -20 -20 -20 -20 -20 -20 -20 -20 -18 -20 -20 -20 -20 -20 -20
-20 -20 -20 -20 -20 -20 -20 -20 -7 -20 -20 -20 -20 -20 -20 -20 -20 -20 -20 -20 -20 -20 -20 -20 -20 -20 -20 -20 -20 -20 -20 -20 -20 -20 -20 -20 -13 -20 -20 -20 -20 -20 -20
-20 -20 -20 -20 -20 -20 -20 -20 -20 -20 -20 -20 -20 -20 -20 -16 -17 2 -18 3 -20 -20 -20 -20 -20 -20 -20 -20 -20 -20 -20 -20 -20 -20 -20 -20 -20 -20 -20 -20 -20 -20 -20
-20 -20 -20 -20 -20 -20 -20 -20 -20 -20 20 2 -17 38 9 -8 -14 -20 -16 -16 -19 -16 -20 8 -2 -8 -17 -20 -20 -20 -20 -15 -17 -19 -20 -20 -20 -20 -20 -20 -20 -20 -20
-20 -20 -20 -20 -20 -20 -20 -20 -20 -20 -20 -17 -18 -1 5 -17 -18 -14 -17 0 -4 20 2 1 -7 -5 -20 -20 -20 -20 -20 3 18 1 -20 -20 -20 -20 -20 -20 -20 -20 -20
-20 -20 -20 -20 -20 -20 -20 -20 -20 -20 -20 -20 -20 -20 -20 -20 -20 -19 -2 -5 -16 -20 -19 6 -8 36 34 16 14 -6 -20 6 -20 -20 -20 -20 14 -20 -20 -20 -20 -20 -20
-20 -20 -20 -20 -20 -20 -20 -20 -20 -20 -17 -12 -10 -20 -6 8 -8 8 -7 -20 -20 -0 -20 -20 33 -3 34 23 34 37 36 -17 32 33 -20 -10 -20 16 -20 -20 -20 -20 -20
-20 -20 -20 -20 -20 -20 -20 -20 -20 -20 -19 -15 -19 -20 -5 -3 9 3 -9 -20 -5 -17 -20 -20 -20 -20 -20 -15 14 25 45 34 38 34 35 -12 -10 22 2 29 -17 -20 -12
-20 -20 -20 -20 -20 -20 -20 -20 -20 -20 -20 -20 -20 -20 10 -5 -11 -2 7 -17 -20 -20 -20 -20 -20 -11 -4 -20 -20 -13 -2 5 43 49 40 38 36 16 32 31 30 21 -17
-20 -20 -20 -20 -20 -20 -20 -20 -20 -20 -20 -20 -20 -20 -20 -7 16 5 -17 -20 -20 -20 -20 -20 -20 -20 -20 -20 -20 -20 -20 -18 13 14 24 24 31 30 36 37 26 31 30
-20 -20 -20 -20 -20 -20 -20 -20 -20 -20 -20 -20 -20 -20 -20 -20 -20 10 -20 -20 -20 -20 -20 -20 -20 -20 -20 -20 -20 -20 -20 -20 -20 -13 1 3 28 47 50 46 44 37 28
-20 -20 -20 -20 -20 -20 -20 -20 -20 -20 -20 -20 -20 -20 -20 -20 -1 -3 -20 -20 -20 -20 -20 -20 -20 -18 -20 -20 -20 -20 -18 -20 -20 10 -20 -20 -20 16 22 24 27 16 7
-20 -20 -20 -20 -20 -20 -20 -20 -20 -20 -20 -20 -20 -20 -20 -20 -20 -20 -20 -20 -20 -20 -20 -20 -20 -20 -20 -20 -20 4 5 -16 -20 -20 -12 -20 6 -4 1 3 11 11 -5
-20 -20 -20 -20 -20 -20 -20 -20 -20 -20 -20 -20 -20 -20 -20 -20 -20 -20 -20 -20 -20 -20 -20 -20 -19 -16 -2 1 -20 -20 -20 3 6 -6 -20 -20 -20 -20 21 15 -3 4 -16
-20 -20 -20 -20 -20 -20 -20 -20 -20 -20 -20 -20 -20 -20 -20 -20 -20 -20 -20 -20 -20 -20 -20 -12 -12 -10 -12 4 0 1 -10 -12 -20 -4 -19 -20 -20 -20 -2 -14 5 -13 -20
-20 -20 -20 -20 -20 -20 -20 -20 -20 -20 -20 -20 -20 -20 -20 -20 -20 -20 -20 -20 -20 -20 -20 -20 -11 -20 -20 -1 2 15 9 10 -5 17 14 -17 -20 -20 -20 -20 -16 23 28

GFSSE_prec_radar_138.txt.gz
Reflectivity
-20 -20 -20 -20 -20 -20 -20 -20 -20 -20 -20 -20 -20 -20 -20 -20 -20 -20 -20 -20 -20 -20 -20 -20 -20 -20 -20 -20 -20 -20 -20 -20 -20 -20 -20 -20 -20 -20 -20 -20 -11 -20 -14
-20 -20 -20 -20 -20 -20 -20 -20 -20 -20 -20 -20 -20 -20 -20 -20 -20 -20 -20 -20 -20 -20 -20 -20 -20 -20 -20 -20 -20 -20 -20 -20 -20 -20 -20 -20 -20 -20 -20 -20 -20 -9 -20
-20 -20 -20 -20 -20 -20 -20 -20 -20 -20 -20 -20 -20 -20 -20 -20 -20 -20 -20 -20 -20 -20 -20 -20 -20 -20 -20 -20 -20 -20 -20 -20 -20 -20 -20 -20 -20 -20 -20 -20 -20 -20 -19
-20 -20 -20 -20 -20 -20 -20 -20 -20 -20 -20 -20 -20 -20 -20 -20 -20 -20 -20 -20 -20 -20 -20 -20 -20 -20 -20 -20 -20 -20 -20 -20 -20 -20 -20 -20 -20 -20 -20 -20 -20 -20 -9
-20 -20 -20 -20 -20 -20 -20 -20 -20 -20 -20 -20 -20 -20 -20 -20 -20 -20 -20 -20 -20 -20 -20 -20 -20 -20 -20 -20 -20 -20 -20 -20 -20 -20 -20 -20 -20 -20 -17 -20 -20 -20 -20
-20 -20 -20 -20 -20 -20 -20 -20 -20 -20 -20 -20 -20 -20 -20 -20 -20 -20 -20 -20 -20 -20 -20 -20 -20 -20 -20 -20 -20 -20 -20 -20 -20 -20 -20 -20 -20 -20 -20 -18 -20 -20 -20
-20 -20 -20 -20 -20 -20 -20 -20 -20 -20 -20 -20 -20 -20 -20 -20 -20 -20 -20 -20 -20 -20 -20 -20 -20 -20 -20 -20 -20 -20 -20 -20 -20 -20 -20 -20 -20 -20 -20 -8 -20 -20 -20
-20 -20 -20 -20 -20 -20 -20 -20 -20 -20 -20 -20 -20 -20 -20 -20 -20 -20 -20 -20 -20 -20 -20 -20 -20 -20 -20 -20 -20 -20 -20 -20 -20 -20 -20 -20 -20 -20 -20 -20 -20 -20 -20
-20 -20 -20 -20 -20 -20 -20 -20 -20 -20 -20 -20 -20 -20 -20 -20 -20 -20 -20 -20 -20 -20 -20 -20 -20 -20 -20 -20 -20 -20 -20 -20 -20 -20 -20 -20 -20 -20 -3 -10 -20 -20 -20
-20 -20 -20 -20 -20 -20 -20 -20 1 9 -19 -20 -20 -20 -20 -20 -20 -20 -20 -20 -20 -20 -20 -20 -20 -20 -20 -20 -20 -20 -20 -20 -20 -20 -20 15 -20 -20 -17 -20 -20 -20 -20
-20 -20 -20 -20 -20 -20 -20 -15 -2 -1 -1 -14 -20 -20 -20 -20 -20 -20 -20 -20 -20 -20 -20 -20 -20 -20 3 23 -16 -17 -20 -20 -20 -20 -20 -20 -20 -20 -20 -15 13 -20 -20
-20 -20 -20 -20 -20 -20 -20 -20 -20 -18 -20 -20 -13 -20 -20 -20 -20 -20 -20 -20 -20 -20 -20 -20 -20 -20 -20 -20 -20 -20 -15 -20 -20 -20 -20 -20 -20 -20 -20 -20 -20 -20 -20
-20 -20 -20 -20 -20 -20 -20 -20 -20 -20 -20 -20 -20 -6 -20 -20 -17 -5 -19 -5 -18 -4 -20 -20 -20 -20 -20 -16 4 -15 -20 -20 -20 -20 -20 -20 -20 -20 9 22 -20 -17 -20
-20 -20 -20 -20 -20 -20 -20 -20 -20 -20 -20 -20 -20 -20 -20 -20 -20 -20 22 -7 -1 -8 -2 -19 -17 -20 -20 26 -7 7 9 -7 -20 -20 -20 -20 -15 -20 27 35 -12 -10 -16
-20 -20 -20 -20 -20 -20 -20 -20 -20 -20 -20 -20 -20 -20 -13 -11 -20 -20 -20 -20 -20 -20 -20 -14 -9 -20 -20 -19 -0 -13 7 2 1 11 8 -7 12 12 -2 30 13 32 1
-20 -20 -20 -20 -20 -20 -20 -20 -20 -20 -20 -20 -20 -20 -16 -14 -20 -20 -20 -20 -20 -20 -20 -20 -20 -20 -20 -20 -9 -14 13 -15 -19 -18 -10 -7 31 26 29 21 29 29 32
-20 -20 -20 -20 -20 -20 -20 -20 -20 -20 -20 -20 -20 -20 -20 -20 -20 1 -18 -20 -20 -20 -20 -20 -20 -20 -20 -20 -20 -20 -20 -18 -20 24 28 28 39 40 33 41 35 44 31
-20 -20 -20 -20 -20 -20 -20 -20 -20 -20 -20 -20 -20 -20 -20 -20 -20 -20 -20 -20 -20 -20 -20 -20 -20 -20 -20 -20 -20 -20 -20 -20 -20 -20 -20 -17 21 23 18 18 27 43 46
-20 -20 -20 -20 -20 -20 -20 -20 -20 -20 -20 -20 -20 -20 -20 -20 -20 -20 -20 -20 -20 -20 -20 -20 -20 -20 -20 -20 -20 -20 -20 -20 -20 -20 -20 -20 -20 -15 -15 -9 7 15 5
-20 -20 -20 -20 -20 -20 -20 -20 -20 -20 -20 -20 -20 -20 -20 -20 -20 -20 -20 -20 -20 -20 -20 -20 -20 -20 -20 -20 -20 -20 -20 -20 -20 -20 -20 -20 -20 -20 -20 -20 -12 -1 -6
-20 -20 -20 -20 -20 -20 -20 -20 -20 -20 -20 -20 -20 -20 -20 -20 -20 -20 -20 -20 -20 -20 -20 -20 -20 -20 -20 -20 -20 -20 -20 -20 -20 -20 -20 -20 -20 -20 -20 -20 -20 -20 -19
-20 -20 -20 -20 -20 -20 -20 -20 -20 -20 -20 -20 -20 -20 -20 -20 -20 -20 -20 -20 -20 -20 -20 -20 -20 -20 -20 -20 -20 -20 -20 -20 -20 -20 -20 -20 -20 -20 -20 -13 17 15 -20
-20 -20 -20 -20 -20 -20 -20 -20 -20 -20 -20 -20 -20 -20 -20 -20 -20 -20 -20 -20 -20 -20 -20 -20 -20 -20 -15 -20 -20 -16 -20 -20 -20 -20 -20 -20 -20 -20 -20 -20 -20 -4 5
-20 -20 -20 -20 -20 -20 -20 -20 -20 -20 -20 -20 -20 -20 -20 -20 -20 -20 -20 -20 -20 -20 -20 -20 -20 -20 -20 -20 -20 -18 -20 -19 -5 -20 -20 -20 -20 -20 -20 -20 -20 -20 -14
-20 -20 -20 -20 -20 -20 -20 -20 -20 -20 -20 -20 -20 -20 -20 -20 -20 -20 -20 -20 -20 -20 -20 -20 -20 -20 -12 -8 -4 -5 -20 -20 -18 1 -20 -20 -20 -20 -20 -20 -20 -20 -20
-20 -20 -20 -20 -20 -20 -20 -20 -20 -20 -20 -20 -20 -20 -20 -20 -20 -20 -20 -20 -20 -20 -20 -20 -19 -20 -20 -20 -10 8 -9 3 -20 -2 -17 -20 -20 -20 -20 -20 -20 -20 -20

GFSSE_prec_radar_141.txt.gz
Reflectivity
-20 -20 -20 -20 -20 -20 -20 -20 -20 -20 -20 -20 -20 -20 -20 -20 -20 -20 -20 -20 -20 -20 -20 -20 -20 -20 -20 -20 -20 -20 -20 -20 -20 -20 2 -0 -10 -6 -20 -20 -20 -20 4
-20 -20 -20 -20 -20 -20 -20 -20 -20 -20 -20 -20 -20 -20 -20 -20 -20 -20 -20 -20 -20 -20 -20 -20 -20 -20 -20 -20 -20 -20 -20 -20 -20 -20 -18 -18 -20 -20 -20 7 3 -6 -20
-20 -20 -13 -20 -20 -20 -20 -20 -20 -20 -20 -20 -20 -20 -20 -20 -20 -20 -20 -20 -20 -20 -20 -20 -20 -20 -20 -20 -20 -20 -20 -20 -20 -20 -20 -20 -20 -4 -20 -20 -20 -20 -20
-20 -20 -20 -20 -20 -20 -20 -20 -20 -20 -20 -20 -20 -20 -20 -20 -20 -20 -20 -20 -20 -20 -20 -20 -20 -20 -20 -20 -20 -20 -20 -20 -20 -20 -20 -20 -20 -20 -20 -20 -20 -20 -20
-20 -20 -20 -20 -20 -20 -20 -20 -20 -20 -20 -20 -20 -20 -20 -20 -20 -20 -20 -20 -20 -20 -20 -20 -20 -20 -20 -20 -20 -20 -20 -20 -20 -20 -20 22 -20 -20 -20 17 -20 -13 -20
-20 -20 -20 -20 -20 -20 -20 -20 -20 -20 -20 -20 -20 -20 -20 -20 -20 -20 -20 -20 -20 -20 -20 -20 -20 -20 -20 -20 -20 -20 -20 -20 -20 -20 -20 -19 -20 -20 -19 -20 -20 8 -20
-20 -20 -20 -20 -20 -20 -20 -20 -20 -20 -20 -20 -20 -20 -20 -20 -20 -20 -20 -20 -20 -20 -20 -20 -20 -20 -20 -20 -20 -20 -20 -20 -20 -20 -20 -20 -7 -20 -20 17 -8 -20 -20
-20 -20 -20 -20 -20 -20 -20 -20 -20 -20 -20 -20 -20 -20 -20 -20 -20 -20 -20 -20 -20 -20 -20 -20 -20 -20 -20 -20 -20 -20 -20 -20 -20 -20 -20 -20 -20 -20 -18 -20 -20 -2 -20
-20 -20 -20 -20 -20 -20 -20 0 -10 -20 -20 -20 -20 -20 -20 -20 -20 -20 -20 -20 -20 -20 -20 -20 -20 -20 -20 -20 -20 -20 -20 -20 -20 -20 -20 -20 -20 -20 -19 -20 -20 -20 -20
-20 -20 -20 -20 -20 -20 -20 4 9 -20 13 3 -20 -20 -20 -20 -20 -20 -20 -20 -20 -20 -20 -20 -20 -19 -20 -20 -20 -20 -20 -20 -20 -20 -20 -20 -20 -20 -20 -20 -20 -20 -20
-20 -20 -20 -20 -20 -20 -20 -20 -9 4 -9 -8 2 4 -20 -20 -20 -20 -20 -20 -20 -20 -20 -20 -20 -20 -15 -10 -20 -18 -20 -20 -20 -20 -20 -20 -20 -20 -20 -20 -20 -20 -20
-20 -20 -20 -20 -20 -20 -20 -20 -20 -20 -20 -20 -19 6 -18 -20 -20 -20 -20 -20 -20 -20 -20 -20 -20 -20 -17 -20 -17 -20 -5 -7 -13 -13 -20 -20 -20 -20 -20 -20 -20 -20 -20
-20 -20 -20 -20 -20 -20 -20 -20 -20 -20 -20 -20 -20 7 11 2 9 -20 -20 -20 -20 2 -20 -20 -17 -20 -17 -17 -19 7 -9 -19 -1 -17 -20 -20 -20 -20 -20 -20 -9 -8 -17
-20 -20 -20 -20 -20 -20 -20 -20 -20 -20 -20 -18 -20 -20 8 15 5 0 -20 -20 -20 -16 -20 -20 -20 -20 -20 -20 -20 -20 -18 -18 0 7 -19 -5 -20 -20 -20 -20 -20 -12 24
-20 -20 -20 -20 -20 -20 -20 -20 -20 -20 -20 -20 -20 1 -2 -18 5 -9 -20 -20 -20 -20 -20 -20 -20 -20 -20 -20 -20 -20 -20 -20 -20 -20 1 -4 15 -19 5 -5 17 10 0
-20 -20 -20 -20 -20 -20 -20 -20 -20 -20 -20 -20 -20 -20 -20 -20 -13 7 5 -20 -20 -20 -20 -20 -20 -20 -20 -20 -20 -20 -20 -20 -20 -20 -20 -7 6 19 12 33 17 26 33
-20 -20 -20 -20 -20 -20 -20 -20 -20 -20 -20 -20 -20 -20 -20 -20 -19 -14 -12 -20 -7 3 -20 -20 -20 -20 -20 -20 -20 -20 -20 -20 -20 -20 -20 -20 -20 -19 3 28 27 8 31
-20 -20 -20 -20 -20 -20 -20 -20 -20 -20 -20 -20 -20 -20 -20 -20 -20 -20 -20 -20 -20 -20 -20 -20 -20 -20 -20 -20 -20 -20 -20 -20 -20 -20 -20 -20 -20 -20 -20 -20 1 -8 -3
-20 -20 -20 -20 -20 -20 -20 -20 -20 -20 -20 -20 -20 -20 -20 -20 -20 -20 -20 -20 -20 -20 -20 -20 -20 -20 -20 -20 -20 -20 -20 -20 -20 -20 -20 -20 -20 -20 -20 -20 -20 -20 -20
-20 -20 -20 -20 -20 -20 -20 -20 -20 -20 -20 -20 -20 -20 -20 -20 -20 -20 -20 -20 -20 -20 -20 -20 -20 -20 -20 -20 -20 -20 -20 -20 -20 -20 -20 -20 -20 -20 -20 -20 -20 -20 -20
-20 -20 -20 -20 -20 -20 -20 -20 -20 -20 -20 -20 -20 -20 -20 -20 -20 -20 -20 -20 -20 -20 -20 -20 -20 -20 -20 -20 -20 -20 -20 -20 -20 -20 -20 -20 15 5 17 25 -20 -20 14
-20 -20 -20 -20 -20 -20 -20 -20 -20 -20 -20 -20 -20 -20 -20 -20 -20 -20 -20 -20 -20 -20 -20 -20 -20 -20 -20 -20 -20 -20 -20 -20 -20 -20 -20 -20 -20 -20 -18 -9 6 11 20
-20 -20 -20 -20 -20 -20 -20 -20 -20 -20 -20 -20 -20 -20 -20 -20 -20 -20 -20 -20 -20 -20 -20 -20 -20 -20 -20 -20 -20 -18 -20 -20 -20 -20 -20 -20 -20 -20 -20 -20 -20 5 10
-20 -20 -20 -20 -20 -20 -20 -20 -20 -20 -20 -20 -20 -20 -20 -20 -20 -20 -20 -20 -20 -20 -20 -20 -20 -20 -20 -20 -20 -20 -20 -6 -3 -20 -20 -20 -20 -20 -6 -20 -20 -20 -20
-20 -20 -20 -20 -20 -20 -20 -20 -20 -20 -20 -20 -20 -20 -20 -20 -20 -20 -20 -20 -20 -20 -20 -20 -20 -20 -20 -3 -9 -3 -20 -17 -1 8 -19 -20 -20 -20 -20 -20 -20 -20 -20
-20 -20 -20 -20 -20 -20 -20 -20 -20 -20 -20 -20 -20 -20 -20 -20 -20 -20 -20 -20 -20 -20 -20 -20 -20 -20 -20 -20 -20 -2 -14 7 -8 3 4 -1 -20 -19 -20 -9 -16 -20 -20

GFSSE_prec_radar_147.txt.gz
Reflectivity
-20 -20 -20 -20 -20 -20 -20 -20 -20 -20 -20 -20 -20 -20 -20 -20 -20 -20 -20 -20 -20 -20 -20 -20 -20 -20 -20 -20 -20 -20 -20 -20 -20 -20 -20 -7 -17 -20 -20 -20 -20 -20 -20
-20 -20 -20 -20 -20 -20 -20 -20 -20 -20 -20 -20 -20 -20 -20 -20 -20 -20 -20 -20 -20 -20 -20 -20 -20 -20 -20 -20 -20 -20 -20 -20 -20 -20 -20 -20 -20 -20 3 -20 -20 -20 -20
-11 -17 -20 -20 -20 -20 -20 -20 -20 -20 -20 -20 -20 -20 -20 -20 -20 -20 -20 -20 -20 -20 -20 -20 -20 -20 -20 -20 -20 -20 -20 -20 -20 -20 -20 -20 -20 -20 -20 -6 -20 -20 -20
-13 -13 -20 -20 -20 -4 -20 -20 -20 -20 -20 -20 -20 -20 -20 -20 -20 -20 -20 -20 -20 -20 -20 -20 -20 -20 -20 -20 -20 -20 -20 -20 -20 -20 -20 -20 -20 -20 -20 -20 -20 -20 -20
-20 -20 -20 -20 -20 -20 -20 -20 -20 -20 -20 -20 -20 -20 -20 -20 -20 -20 -20 -20 -20 -20 -20 -20 -20 -20 -20 -20 -20 -20 -20 -20 -20 -20 -20 -20 -20 -20 -20 -20 -20 -20 -20
-20 -20 -20 -20 -8 -20 -20 -20 -20 -20 -20 -20 -20 -20 -20 -20 -20 -20 -20 -20 -20 -20 -20 -20 -20 -20 -20 -20 -20 -20 -20 -20 -20 -20 -20 -20 -20 -20 -20 -20 -20 -20 -20
-20 -20 -20 -3 7 11 -14 -20 -20 -20 -20 -20 -20 -20 -20 -20 -20 -20 -20 -20 -20 -20 -20 -20 -20 -20 -20 -20 -20 -20 -20 -20 -20 -20 -20 -20 -20 -20 -20 -20 -20 -20 -20
-20 -20 -20 -20 -14 -13 -20 -20 -20 -20 -20 -20 -20 -20 -20 -4 -18 -20 -20 -20 -20 -20 -20 -14 2 -20 -20 -20 -20 -20 -20 -20 -20 -20 -20 -20 -20 -20 -20 -20 -20 -20 -20
-20 -20 -20 -20 -20 -20 -20 -20 -20 -20 -20 -10 -20 -20 -17 6 -3 5 -11 -20 -20 -20 -20 -20 -20 -20 -20 -20 -20 -20 -20 -20 -20 -20 -20 -20 -20 -20 -20 -20 -20 -19 -20
-20 -20 -20 -20 -20 -20 -20 -20 -20 -20 -10 2 -4 3 -15 -20 -5 3 11 8 1 -6 -20 -20 -20 -20 -20 -20 -20 -20 -20 -20 -20 -20 -20 -20 -20 -20 -20 -20 -20 -20 -20
-20 -20 -20 -20 -20 -20 -20 -20 -20 -20 -20 -20 -20 -2 0 -3 -2 2 -9 -1 -19 -15 -20 -20 -20 -20 -19 -20 3 5 8 -20 -20 -20 -20 -20 -20 -20 -20 -16 -20 -20 -20
-20 -20 -20 -20 -20 -20 -20 -20 -20 -20 -20 -20 -20 -20 -20 -20 -9 6 6 9 -19 2 5 9 6 5 5 -16 -17 2 -7 2 2 -6 -20 -20 -20 -20 -6 -20 -20 -20 -20
-20 -20 -20 -20 -20 -20 -20 -20 -20 -20 -20 -20 -20 -20 -20 -19 -11 -3 -20 -19 -20 -20 -20 -4 -20 -20 -20 -20 -2 -3 -13 -9 -8 -17 -20 -20 -20 -20 -20 -20 -20 -20 -20
-20 -20 -20 -20 -20 -20 -20 -20 -20 -20 -20 -20 -20 -20 -20 -20 -10 -20 -16 -6 -17 -13 -19 -20 -20 -20 -20 -20 -20 -20 -20 -20 -20 -18 -20 -20 -20 -20 -19 -19 -17 -20 -20
-20 -20 -20 -20 -20 -20 -20 -20 -20 -20 -20 -20 -20 -20 -20 -20 -20 -20 -20 -16 -20 -4 -8 -20 -20 -20 -20 -20 -20 -20 -20 -20 -20 -20 -4 -20 -20 -20 -20 -20 -20 11 1
-20 -20 -20 -20 -20 -20 -20 -20 -20 -20 -20 -20 -20 -20 -20 -20 -20 -20 -20 -20 -20 -20 -20 -20 -20 -20 -20 -20 -20 -20 -20 -20 -20 -20 -20 -20 -20 -15 -20 -20 5 15 13
-20 -20 -20 -20 -20 -20 -20 -20 -20 -20 -20 -20 -20 -20 -20 -20 -20 -20 -20 -20 -20 -20 -20 -20 -20 -20 -20 -20 -20 -20 -20 -20 -20 -20 -20 -20 -20 9 -4 12 14 15 10
-20 -20 -20 -20 -20 -20 -20 -20 -20 -20 -20 -20 -20 -20 -20 -20 -20 -20 -20 -20 -20 -20 -20 -20 -20 -20 -20 -20 -20 -20 -20 -20 -20 -20 -20 -20 -20 -14 12 8 12 -4 16
-20 -20 -20 -20 -20 -20 -20 -20 -20 -20 -20 -20 -20 -20 -20 -20 -20 -20 -20 -20 -20 -20 -20 -20 -20 -20 -20 -20 -20 -20 -20 -20 -20 -20 -20 -20 -20 -14 1 20 13 -2 3
-20 -20 -20 -20 -20 -20 -20 -20 -20 -20 -20 -20 -20 -20 -20 -20 -20 -20 -20 -20 -20 -20 -20 -20 -20 -20 -20 -20 -20 -20 -20 -20 -20 -20 -6 -5 -20 -20 -20 -20 -18 9 13
-20 -20 -20 -20 -20 -20 -20 -20 -20 -20 -20 -20 -20 -20 -20 -20 -20 -20 -20 -20 -20 -20 -20 -20 -20 -20 -20 -20 -20 -20 -20 -20 -20 -20 -20 -20 -20 -20 -20 -20 -20 -11 10
-20 -20 -20 -20 -20 -20 -20 -20 -20 -20 -20 -20 -20 -20 -20 -20 -20 -20 -20 -20 -20 -20 -20 -20 -20 -20 -20 -20 -20 -20 -20 -20 -20 -20 -20 -20 -20 -20 -20 -20 -3 -3 10
-20 -20 -20 -20 -20 -20 -20 -20 -20 -20 -20 -20 -20 -20 -20 -20 -20 -20 -20 -20 -20 -20 -20 -20 -20 -20 -20 -20 -20 -20 -20 -17 -20 -20 -20 -20 -20 -20 -20 -14 -20 11 5
-20 -20 -20 -20 -20 -20 -20 -20 -20 -20 -20 -20 -20 -20 -20 -20 -20 -20 -20 -20 -20 -20 -20 -20 -20 -20 -20 -20 -20 -20 -20 0 4 -8 -20 -20 -20 -20 -20 -16 -15 -20 -9
-20 -20 -20 -20 -20 -20 -20 -20 -20 -20 -20 -20 -20 -20 -20 -20 -20 -20 -20 -20 -20 -20 -20 -20 -20 -20 -20 -20 -20 -20 -20 -20 -20 -9 -20 -20 -20 -20 -20 -20 -19 -20 -13
-20 -20 -20 -20 -20 -20 -20 -20 -20 -20 -20 -20 -20 -20 -20 -20 -20 -20 -20 -20 -20 -20 -20 -20 -20 -20 -20 -20 -20 -20 -8 1 -1 -0 -8 -18 -20 -20 -20 -13 -20 -20 -20

GFSSE_prec_radar_153.txt.gz
Reflectivity
-20 -20 -20 -20 -20 -20 -20 -20 -20 -20 -20 -20 -20 -20 -20 -20 -20 -20 -20 -20 -20 -20 -20 -20 -20 -20 -20 -20 -20 -20 -20 -20 -20 -20 -20 -20 -20 -20 -20 -20 0 -20 -20
-20 -20 -20 -20 -20 -20 -20 -20 -20 -20 -20 -20 -20 -20 -20 -20 -20 -20 -20 -20 -20 -20 -20 -20 -20 -20 -20 -20 -20 -20 -20 -20 -20 -20 -20 -20 -20 -20 -20 -20 6 -20 -20
-20 -20 -20 -20 -20 -20 -20 -20 -20 -20 -20 -20 -20 -20 -20 -20 -20 -20 -20 -20 -20 -20 -20 -20 -20 -20 -20 -20 -20 -20 -20 -20 -20 -20 -19 5 -20 -20 -20 -20 -20 -20 -20
-20 -20 -20 -20 -20 -20 -20 -20 -20 -20 -20 -20 -20 -20 -20 -20 -20 -20 -20 -20 -20 -20 -20 -20 -20 -20 -20 -20 -20 -20 -20 -20 -20 -20 -20 24 -20 -20 -20 -20 -20 -20 -20
-20 -20 -20 -20 -20 -20 -20 -20 -20 -20 -20 -20 -20 -20 -20 -20 -20 -20 -20 -20 -20 -20 -20 -20 -20 -20 -20 -20 -20 -20 -20 -20 -20 -20 -20 5 -2 -20 -20 -20 -20 -20 -20
-20 -20 -15 -20 -20 -20 -20 -20 -20 -20 -20 -20 -20 -20 -20 -20 -20 -20 -20 -20 -20 -20 -20 -20 -1 -20 -20 -20 -20 -20 -20 -20 -20 -20 -20 -20 -20 -20 -20 -20 -17 -17 -20
-20 -20 -20 -6 -20 -20 -20 -20 -20 -20 -20 -20 -20 -20 -20 -20 -20 -20 -20 -20 -20 -20 -20 -4 -11 -20 -20 -20 -20 -20 -20 -20 -20 -20 -20 -20 -20 -20 -20 -20 -20 -20 -20
-20 -20 -20 7 -18 -19 -20 -20 -20 -20 -20 -20 -20 -20 -20 -20 -20 -20 -20 -20 -20 -20 -2 5 -8 -19 -20 -20 -20 -20 -20 -20 -20 -20 -20 -20 -20 -20 -20 -20 -20 -20 -20
-20 -20 -20 -20 -19 -20 -20 -20 -20 -20 -20 -20 -20 -20 -20 -13 -20 -20 -20 -20 -20 -20 -20 -20 -7 6 10 -20 -20 -20 -20 -20 -20 -20 -20 -20 -20 -20 -20 -20 -20 -20 -20
-20 -20 -4 -20 -20 -20 -20 -20 -20 -20 -16 -20 -11 -20 -20 -17 5 7 7 1 -15 -20 -20 -20 -20 -20 -20 -20 -20 -20 -19 -20 -20 -20 -20 -1 -20 -20 -20 -20 -20 -20 -20
-20 -20 -20 -20 -13 -7 -20 -20 -20 -20 -20 -20 -20 -20 -14 -12 2 -2 -17 9 9 5 -19 -13 -16 -18 -20 -20 -20 -20 -16 -20 -20 -15 -20 -11 -20 -20 -20 -20 -20 -20 -20
-20 -20 -20 -20 -20 -11 -20 -10 -18 -20 -20 -20 -6 -10 6 -11 -20 -2 -6 -9 -20 -20 -20 -18 -20 -20 -20 -1 -4 -18 -9 -2 -18 -20 -20 -20 -20 -20 4 -8 -16 -18 -20
-20 -20 -20 -20 -20 -20 -20 -20 -20 -20 -20 -20 -20 -1 -17 -20 -20 -18 6 -10 -20 -20 -9 -20 -20 12 12 -9 8 3 2 -2 -20 -20 13 -4 -18 -14 -20 -16 -19 -20 -15
-20 -20 -20 -20 -20 -20 -20 -20 -20 -20 -20 -20 -20 -20 1 -20 -20 -18 -18 -20 -20 -20 -20 -20 -20 -20 -11 -20 -20 -20 -20 -20 -20 -20 -14 -8 -20 -20 -20 -20 -16 -16 -20
-20 -20 -20 -20 -20 -20 -20 -20 -20 -20 -20 -20 -20 -20 -20 -20 -20 -20 -3 9 -9 -20 -20 -20 -20 -20 -20 -20 -20 -20 -20 -20 -20 -20 -20 -20 -20 -20 -20 -20 -20 -20 -8
-20 -20 -20 -20 -20 -20 -20 -20 -20 -20 -20 -20 -20 -20 -20 -20 -20 -20 -20 -20 -20 -20 -20 -20 -20 -20 -20 -20 -20 -20 -20 -20 -20 -20 -20 -20 -20 -20 -20 -20 -20 -10 8
-20 -20 -20 -20 -20 -20 -20 -20 -20 -20 -20 -20 -20 -20 -20 -20 -20 -20 -20 -20 -20 -20 -20 -20 -20 -20 -20 -20 -20 -20 -20 -20 -20 -20 -20 -20 -20 -20 -20 -20 -20 -20 -18
-20 -20 -20 -20 -20 -20 -20 -20 -20 -20 -20 -20 -20 -20 -20 -20 -20 -20 -20 -20 -20 -20 -20 -20 -20 -20 -20 -20 -20 -20 -20 -20 -20 -20 -20 -20 -20 -20 -14 -20 -20 -20 -20
-20 -20 -20 -20 -20 -20 -20 -20 -20 -20 -20 -20 -20 -20 -20 -20 -20 -20 -20 -20 -20 -20 -20 -20 -20 -20 -20 -20 -20 -20 -20 -20 -20 -20 -20 -18 -20 -20 -20 -20 -20 -20 -20
-20 -20 -20 -20 -20 -20 -20 -20 -20 -20 -20 -20 -20 -20 -20 -20 -20 -20 -20 -20 -20 -20 -20 -20 -20 -20 -20 -20 -20 -20 -20 -20 -20 -20 -20 -20 -20 -20 -20 -20 -20 -18 -5
-20 -20 -20 -20 -20 -20 -20 -20 -20 -20 -20 -20 -20 -20 -20 -20 -20 -20 -20 -20 -20 -20 -20 -20 -20 -20 -20 -20 -20 -20 -20 -20 -20 -20 -20 -20 -20 -20 -20 -20 -20 -20 -5
-20 -20 -20 -20 -20 -20 -20 -20 -20 -20 -20 -20 -20 -20 -20 -20 -20 -20 -20 -20 -20 -20 -20 -20 -20 -20 -20 -20 -20 -20 -20 -20 -20 -20 -20 -20 -20 -20 -20 -20 -20 -20 -20
-20 -20 -20 -20 -20 -20 -20 -20 -20 -20 -20 -20 -20 -20 -20 -20 -20 -20 -20 -20 -20 -20 -20 -20 -20 -20 -20 -20 -20 -20 -20 -20 -20 -20 -20 -20 -20 -20 -20 -20 -20 -20 -20
-20 -20 -20 -20 -20 -20 -20 -20 -20 -20 -20 -20 -20 -20 -20 -20 -20 -20 -20 -20 -20 -20 -20 -20 -20 -20 -20 -20 -20 -20 -20 -20 -20 -20 -20 -20 -20 -20 -20 -20 -20 -20 -20
-20 -20 -20 -20 -20 -20 -20 -20 -20 -20 -20 -20 -20 -20 -20 -20 -20 -20 -20 -20 -20 -20 -20 -20 -20 -20 -20 -20 -20 -20 -20 -20 -20 -20 -20 -20 -20 -20 -20 -20 -20 -20 -0
-20 -20 -20 -20 -20 -20 -20 -20 -20 -20 -20 -20 -20 -20 -20 -20 -20 -20 -20 -20 -20 -20 -20 -20 -20 -20 -20 -20 -20 -20 -20 -20 -20 -20 -20 -20 -20 -20 -20 -20 -20 -20 -20

GFSSE_prec_radar_156.txt.gz
Reflectivity
-20 -20 -20 -20 -20 -20 -20 -20 -20 -20 -20 -20 -20 -20 -20 -20 -20 -20 -20 -20 -20 -20 -20 -20 -20 -20 -20 -20 -20 -20 -20 -20 -20 -20 -20 -20 -20 -20 -20 -13 -3 -20 -20
-20 -20 -20 -20 -20 -20 -20 -20 -20 -20 -20 -20 -20 -20 -20 -20 -20 -20 -20 -20 -20 -20 -20 -20 -20 -20 -20 -20 -20 -20 -20 -20 -20 -20 -20 -20 -20 -20 -20 -20 -19 -2 -20
-20 -20 -20 -20 -20 -20 -20 -20 -20 -20 -20 -20 -20 -20 -20 -20 -20 -20 -20 -20 -20 -20 -20 -20 -20 -20 -20 -20 -20 -20 -20 -20 -20 -20 -20 -19 -20 -20 -20 -20 -20 -20 -20
-20 -20 -20 -20 -20 -20 -20 -20 -20 -20 -20 -20 -20 -20 -20 -20 -20 -20 -20 -20 -20 -20 -20 -20 -20 -20 -20 -20 -20 -20 -20 -20 -20 -20 -3 -12 -20 -20 -20 -20 -20 -20 -20
-20 -20 -20 -20 -20 -20 -20 -20 -20 -20 -20 -20 -20 -20 -20 -20 -20 -20 -20 -20 -19 -20 -20 -20 -20 -20 -20 -20 -20 -20 -20 -20 -20 -20 -20 -19 -20 -20 -20 -20 -20 -20 -20
-20 -20 -20 -20 -20 -20 -20 -20 -20 -20 -20 -20 -20 -20 -20 -20 -20 -20 -20 -20 -20 -20 -20 -20 2 -20 -20 -20 -20 -20 -20 -20 -20 -20 -19 -20 -20 -20 -20 -20 -20 -20 -20
-20 -20 -20 -20 -20 -20 -20 -20 -20 -20 -20 -20 -20 -20 -20 -20 -20 -20 -20 -20 -20 -20 -20 -20 -18 -20 -20 -20 -20 -20 -20 -20 -20 -20 -20 -20 -20 -20 -20 -20 -20 -20 -20
-20 -20 -11 10 -5 -20 -20 -20 -20 -20 -20 -20 -20 -20 -20 -20 -20 -20 -20 -20 -20 -20 -20 -20 -20 -20 -20 -20 -20 -20 -20 -20 -20 -20 -20 -20 -20 -20 -20 -20 -20 -20 -20
-20 -20 -1 -4 -15 -20 -20 -20 -20 -20 -20 -20 -20 -20 -20 -20 -20 -20 -20 -20 -20 -20 -20 -20 -20 -20 -20 -20 -20 -20 -20 -20 -20 -20 -20 10 13 -20 -20 -20 -20 -20 -20
-9 -16 -20 -20 -20 -20 -20 -20 -20 8 7 -20 3 -1 1 -20 -3 1 -18 -20 -20 -20 -20 -20 -20 -20 -20 -20 -20 -20 -19 -20 -20 -20 -20 -20 2 -20 -20 -20 -20 -20 -20
-20 -16 -13 -14 -4 -20 -20 -20 -20 -20 -20 -20 -20 -20 -20 5 7 12 8 11 11 10 8 -12 1 -15 -20 -20 -20 -20 -14 -20 -20 -20 -20 -11 -17 -20 -20 -20 -20 -20 -20
-20 -20 -20 -11 -16 -20 -20 -20 -20 -20 -20 -20 -20 -10 -20 -20 11 7 13 14 11 12 1 -9 -12 -10 -20 -20 -18 -20 -20 -20 -20 -11 -18 -20 16 -7 3 -20 -20 -20 -20
-20 -20 -20 -20 -19 -19 -20 -20 -20 -20 -20 -20 -5 -1 -0 5 6 13 12 -2 -7 0 -6 -20 -20 -17 -15 13 13 3 -20 -20 -15 -2 6 -13 11 -20 -15 -20 -20 -20 -14
-20 -20 -20 -20 -20 -20 -20 -20 -20 -20 -20 -20 -20 -20 5 -20 -5 16 8 10 7 -6 8 1 -20 -20 -20 5 -20 -14 -16 -20 -20 -15 14 0 -20 -20 -20 -20 -20 -20 -20
-20 -20 -20 -20 -20 -20 -20 -20 -20 -20 -20 -20 -20 -20 -17 4 -20 -20 0 -4 16 7 -2 1 -11 0 -17 -20 -20 -20 -20 -20 -20 -20 -20 -17 -20 -20 -20 -20 -20 -20 6
-20 -20 -20 -20 -20 -20 -20 -20 -20 -20 -20 -20 -20 -20 -20 -20 -20 -20 -20 -17 -10 1 12 6 -13 -6 -3 -20 -20 -20 -20 -20 -20 -20 -20 -20 -20 -20 -20 -20 -20 -20 8
-20 -20 -20 -20 -20 -20 -20 -20 -20 -20 -20 -20 -20 -20 -20 -20 -20 -20 -20 -20 -20 -20 -20 -20 -20 -20 -20 -20 -20 -20 -20 -20 -20 -20 -20 -20 -20 -20 -20 -20 -18 -0 9
-20 -20 -20 -20 -20 -20 -20 -20 -20 -20 -20 -20 -20 -20 -20 -20 -20 -20 -20 -20 -20 -20 -20 -20 -20 -20 -20 -20 -20 -20 -20 -20 -20 -20 -20 -20 -20 -20 -20 -20 -20 -20 3
-20 -20 -20 -20 -20 -20 -20 -20 -20 -20 -20 -20 -20 -20 -20 -20 -20 -20 -20 -20 -20 -20 -20 -20 -20 -20 -20 -20 -20 -20 -20 -20 -20 -20 -20 -20 -20 -20 -20 -20 9 -4 -7
-20 -20 -20 -20 -20 -20 -20 -20 -20 -20 -20 -20 -20 -20 -20 -20 -20 -20 -20 -20 -20 -20 -20 -20 -20 -20 -20 -20 -20 -20 -20 -20 -20 -20 -20 -20 -20 -20 -20 -20 -20 -10 8
-20 -20 -20 -20 -20 -20 -20 -20 -20 -20 -20 -20 -20 -20 -20 -20 -20 -20 -20 -20 -20 -20 -20 -20 -20 -20 -20 -20 -20 -20 -20 -20 -20 -20 -20 -20 -20 -20 -20 -20 -20 -20 -20
-20 -20 -20 -20 -20 -20 -20 -20 -20 -20 -20 -20 -20 -20 -20 -20 -20 -20 -20 -20 -20 -20 -20 -20 -20 -20 -20 -20 -20 -20 -20 -20 -20 -20 -20 -20 -20 -20 -20 -20 -20 -20 -20
-20 -20 -20 -20 -20 -20 -20 -20 -20 -20 -20 -20 -20 -20 -20 -20 -20 -20 -20 -20 -20 -20 -20 -20 -20 -20 -20 -20 -20 -20 -20 -20 -20 -20 -20 -20 -20 -20 -20 -20 -20 -20 -20
-20 -20 -20 -20 -20 -20 -20 -20 -20 -20 -20 -20 -20 -20 -20 -20 -20 -20 -20 -20 -20 -20 -20 -20 -20 -20 -20 -20 -20 -20 -20 -20 -20 -20 -20 -20 -20 -20 -20 -20 -20 -20 -20
-20 -20 -20 -20 -20 -20 -20 -20 -20 -20 -20 -20 -20 -20 -20 -20 -20 -20 -20 -20 -20 -20 -20 -20 -20 -20 -20 -20 -20 -20 -20 -20 -20 -20 -20 -20 -20 -20 -20 -20 -20 -20 -20
-20 -20 -20 -20 -20 -20 -20 -20 -20 -20 -20 -20 -20 -20 -20 -20 -20 -20 -20 -20 -20 -20 -20 -20 -20 -20 -20 -20 -20 -20 -20 -20 -20 -20 -20 -20 -20 -20 -20 -20 -20 -20 -20